Darstellungsparameter: Aktuell verwendete Einstellungen:
Skalierung der Graphiken ... ?
xyx+y,   Skalierungsfaktor:      Skalierung: Modus: x, Faktor: 1
Darstellungszeitraum ... ?
Vom - - bis: - -   Zeitraum: 03.11.2015 - 02.11.2020
Min/Max/Avg-Anzeige ... ?
Zeige MMA aktuell
Zeige MMA Monat
Zeige MMA alles
Zeige --A aktuell
Zeige --A Monat
Zeige --A alles
Keine MMA-Anzeige
MMA:
Average (ber die Originaldaten)
MMA-Basis: 23.02.2003 - 03.08.2020
Quicknavigation für Darstellung... ?
Tage:      1T, 2T, 3T, 5T -1T -2T -3T -5T +1T +2T +3T +5T
Wochen: 1W, 2W, 3W -1W -2W -3W +1W +2W +3W
Monate: 1M, 3M, 6M -1M -3M -6M +1M +3M +6M
Jahre:    1J, 3J, 5J, 10J -1J -3J -5J -10J +1J +3J +5J +10J
Nutze für die Darstellung ... ?
Originaldaten oder ...
Mittelwerte Minima Maxima auf...
Stundenbasis Tagesbasis Wochenbasis
Monatsbasis Jahresbasis      Datenbasis: Mittelwerte auf Stundenbasis
Darstellen als:
Statistik (Auto) Statistik J:M      Darstellung:
Zur Graphik,    zurück zur Übersicht aller Sensoren.
 
Tabellarische Datenbersicht: ?
 
Sensor: Nr:Datum:Temp:Abs-Feuchte:Windchill:Wind:
Aussen-T/F 1 03-11-2015 00:00:00 4.2 C 6.2 g/m*3 4.2 C 2.26667 km/h
2 03-11-2015 01:00:00 4.10833 C 6.15 g/m*3 4.11 C 0.13333 km/h
3 03-11-2015 02:00:00 4.21667 C 6.19 g/m*3 4.22 C 0.13333 km/h
4 03-11-2015 03:00:00 4.19167 C 6.18 g/m*3 4.19 C 2.53333 km/h
5 03-11-2015 04:00:00 3.68333 C 5.98 g/m*3 2.3 C 5.74167 km/h
6 03-11-2015 05:00:00 3.23333 C 5.84 g/m*3 3.23 C 0.66667 km/h
7 03-11-2015 06:00:00 3.3 C 5.87 g/m*3 3.3 C 4.28333 km/h
8 03-11-2015 07:00:00 2.84167 C 5.7 g/m*3 2.84 C 1.06667 km/h
9 03-11-2015 08:00:00 3.13333 C 5.82 g/m*3 3.13 C 2.66667 km/h
10 03-11-2015 09:00:00 3.10833 C 5.79 g/m*3 3.11 C 4.54167 km/h
11 03-11-2015 10:00:00 3.59167 C 6 g/m*3 3.59 C 2.53333 km/h
12 03-11-2015 11:00:00 5.01667 C 6.5 g/m*3 5.02 C 2 km/h
13 03-11-2015 12:00:00 6.00833 C 6.74 g/m*3 6.01 C 4 km/h
14 03-11-2015 13:00:00 6.81667 C 7.04 g/m*3 6.82 C 0.8 km/h
15 03-11-2015 14:00:00 7.425 C 7.37 g/m*3 7.43 C 0 km/h
16 03-11-2015 15:00:00 7.95833 C 7.61 g/m*3 7.96 C 0.53333 km/h
17 03-11-2015 16:00:00 7.34167 C 7.36 g/m*3 7.34 C 0.53333 km/h
18 03-11-2015 17:00:00 6.55833 C 7.05 g/m*3 6.56 C 1.2 km/h
19 03-11-2015 18:00:00 5.575 C 6.66 g/m*3 5.58 C 1.46667 km/h
20 03-11-2015 19:00:00 5.26667 C 6.6 g/m*3 5.27 C 0 km/h
21 03-11-2015 20:00:00 5.60833 C 6.79 g/m*3 5.61 C 0.26667 km/h
22 03-11-2015 21:00:00 5.60833 C 6.79 g/m*3 5.61 C 0 km/h
23 03-11-2015 22:00:00 5.41667 C 6.71 g/m*3 5.42 C 0.26667 km/h
24 03-11-2015 23:00:00 5.76667 C 6.86 g/m*3 5.77 C 0 km/h
25 04-11-2015 00:00:00 4.84167 C 6.43 g/m*3 4.84 C 0 km/h
Sensor: Nr:Datum:Temp:Abs-Feuchte:Windchill:Wind:
Aussen-T/F 26 04-11-2015 01:00:00 4.19167 C 6.18 g/m*3 4.19 C 0 km/h
27 04-11-2015 02:00:00 3.65 C 5.96 g/m*3 3.65 C 0 km/h
28 04-11-2015 03:00:00 3.35833 C 5.86 g/m*3 3.36 C 0 km/h
29 04-11-2015 04:00:00 2.925 C 5.71 g/m*3 2.93 C 0 km/h
30 04-11-2015 05:00:00 3.01667 C 5.77 g/m*3 3.02 C 0 km/h
31 04-11-2015 06:00:00 3.43333 C 5.94 g/m*3 3.43 C 0 km/h
32 04-11-2015 07:00:00 3.44167 C 5.94 g/m*3 3.44 C 0 km/h
33 04-11-2015 08:00:00 3.56667 C 5.99 g/m*3 3.57 C 0 km/h
34 04-11-2015 09:00:00 4.875 C 6.59 g/m*3 4.88 C 0 km/h
35 04-11-2015 10:00:00 6.675 C 7.43 g/m*3 6.68 C 0 km/h
36 04-11-2015 11:00:00 8.06667 C 8.14 g/m*3 8.07 C 0 km/h
37 04-11-2015 12:00:00 9.6 C 8.98 g/m*3 9.6 C 1.06667 km/h
38 04-11-2015 13:00:00 11.88333 C 10.15 g/m*3 11.88 C 0 km/h
39 04-11-2015 14:00:00 13.9 C 10.77 g/m*3 13.9 C 0.4 km/h
40 04-11-2015 15:00:00 14.61667 C 10.55 g/m*3 14.62 C 3.33333 km/h
41 04-11-2015 16:00:00 14.10833 C 9.78 g/m*3 14.11 C 4.80833 km/h
42 04-11-2015 17:00:00 12.675 C 9.51 g/m*3 12.68 C 2.80833 km/h
43 04-11-2015 18:00:00 11 C 9.08 g/m*3 11 C 0.93333 km/h
44 04-11-2015 19:00:00 9.91667 C 8.68 g/m*3 9.92 C 1.46667 km/h
45 04-11-2015 20:00:00 9.45833 C 8.58 g/m*3 9.46 C 0.53333 km/h
46 04-11-2015 21:00:00 9.84167 C 8.85 g/m*3 9.84 C 0.93333 km/h
47 04-11-2015 22:00:00 9.35833 C 8.5 g/m*3 9.36 C 0 km/h
48 04-11-2015 23:00:00 8.69167 C 8.21 g/m*3 8.69 C 0 km/h
49 05-11-2015 00:00:00 8.49167 C 8.19 g/m*3 8.49 C 0 km/h
50 05-11-2015 01:00:00 8.63333 C 8.27 g/m*3 8.63 C 0.26667 km/h
Sensor: Nr:Datum:Temp:Abs-Feuchte:Windchill:Wind:
Aussen-T/F 51 05-11-2015 02:00:00 8.90833 C 8.43 g/m*3 8.91 C 0.26667 km/h
52 05-11-2015 03:00:00 8.05833 C 7.97 g/m*3 8.06 C 0.66667 km/h
53 05-11-2015 04:00:00 7.75 C 7.86 g/m*3 7.75 C 0.13333 km/h
54 05-11-2015 05:00:00 7.58333 C 7.79 g/m*3 7.58 C 0 km/h
55 05-11-2015 06:00:00 7.70833 C 7.87 g/m*3 7.71 C 0.13333 km/h
56 05-11-2015 07:00:00 7.54167 C 7.79 g/m*3 7.54 C 0 km/h
57 05-11-2015 08:00:00 7.725 C 7.88 g/m*3 7.73 C 0.4 km/h
58 05-11-2015 09:00:00 8.29167 C 8.17 g/m*3 8.29 C 1.33333 km/h
59 05-11-2015 10:00:00 8.5 C 8.32 g/m*3 8.5 C 0.4 km/h
60 05-11-2015 11:00:00 9.425 C 8.88 g/m*3 9.43 C 1.6 km/h
61 05-11-2015 12:00:00 10.75833 C 9.66 g/m*3 10.76 C 3.46667 km/h
62 05-11-2015 13:00:00 12.06667 C 10.49 g/m*3 12.07 C 3.6 km/h
63 05-11-2015 14:00:00 13.58333 C 11.45 g/m*3 13.58 C 3.06667 km/h
64 05-11-2015 15:00:00 14.775 C 11.62 g/m*3 14.78 C 3.2 km/h
65 05-11-2015 16:00:00 14.65 C 11.13 g/m*3 14.65 C 5.2 km/h
66 05-11-2015 17:00:00 13.35 C 10.53 g/m*3 13.35 C 4.53333 km/h
67 05-11-2015 18:00:00 12.90833 C 10.33 g/m*3 12.91 C 3.06667 km/h
68 05-11-2015 19:00:00 12.50833 C 10.1 g/m*3 12.51 C 1.73333 km/h
69 05-11-2015 20:00:00 11.9 C 9.87 g/m*3 11.9 C 1.33333 km/h
70 05-11-2015 21:00:00 11.61667 C 9.78 g/m*3 11.62 C 1.06667 km/h
71 05-11-2015 22:00:00 11.25833 C 9.63 g/m*3 11.26 C 0 km/h
72 05-11-2015 23:00:00 11.2 C 9.63 g/m*3 11.2 C 0 km/h
73 06-11-2015 00:00:00 11.06667 C 9.62 g/m*3 11.07 C 0 km/h
74 06-11-2015 01:00:00 11 C 9.61 g/m*3 11 C 0 km/h
75 06-11-2015 02:00:00 10.80833 C 9.52 g/m*3 10.81 C 0 km/h
Sensor: Nr:Datum:Temp:Abs-Feuchte:Windchill:Wind:
Aussen-T/F 76 06-11-2015 03:00:00 10.93333 C 9.67 g/m*3 10.93 C 0.26667 km/h
77 06-11-2015 04:00:00 10.85833 C 9.62 g/m*3 10.86 C 0 km/h
78 06-11-2015 05:00:00 10.90833 C 9.65 g/m*3 10.91 C 0 km/h
79 06-11-2015 06:00:00 11.09167 C 9.77 g/m*3 11.09 C 0 km/h
80 06-11-2015 07:00:00 10.39167 C 9.34 g/m*3 10.39 C 0 km/h
81 06-11-2015 08:00:00 10.11667 C 9.18 g/m*3 10.12 C 0.26667 km/h
82 06-11-2015 09:00:00 11.03333 C 9.81 g/m*3 11.03 C 0.66667 km/h
83 06-11-2015 10:00:00 12.01667 C 10.45 g/m*3 12.02 C 0 km/h
84 06-11-2015 11:00:00 13.58333 C 11.46 g/m*3 13.58 C 4.14167 km/h
85 06-11-2015 12:00:00 15.4 C 11.81 g/m*3 15.4 C 8.19167 km/h
86 06-11-2015 13:00:00 15.73333 C 11.78 g/m*3 15.73 C 10.61667 km/h
87 06-11-2015 14:00:00 15.8 C 11.71 g/m*3 15.8 C 4.69167 km/h
88 06-11-2015 15:00:00 16.14167 C 11.55 g/m*3 16.14 C 5.09167 km/h
89 06-11-2015 16:00:00 16.41667 C 11.51 g/m*3 16.42 C 5.35833 km/h
90 06-11-2015 17:00:00 15.375 C 11.11 g/m*3 15.38 C 2.80833 km/h
91 06-11-2015 18:00:00 14.90833 C 11.15 g/m*3 14.91 C 2.80833 km/h
92 06-11-2015 19:00:00 15.50833 C 11.45 g/m*3 15.51 C 6.84167 km/h
93 06-11-2015 20:00:00 15.61667 C 11.85 g/m*3 15.62 C 2 km/h
94 06-11-2015 21:00:00 14.88333 C 11.97 g/m*3 14.88 C 0.13333 km/h
95 06-11-2015 22:00:00 14.74167 C 12.14 g/m*3 14.74 C 1.73333 km/h
96 06-11-2015 23:00:00 15.225 C 12.6 g/m*3 15.23 C 3.2 km/h
97 07-11-2015 00:00:00 15.53333 C 12.85 g/m*3 15.53 C 4.41667 km/h
98 07-11-2015 01:00:00 15.66667 C 12.95 g/m*3 15.67 C 5.08333 km/h
99 07-11-2015 02:00:00 15.80833 C 13.06 g/m*3 15.81 C 6.85 km/h
100 07-11-2015 03:00:00 16.00833 C 13.13 g/m*3 16.01 C 6.96667 km/h
Sensor: Nr:Datum:Temp:Abs-Feuchte:Windchill:Wind:
Aussen-T/F 101 07-11-2015 04:00:00 16.08333 C 13.15 g/m*3 16.08 C 3.89167 km/h
102 07-11-2015 05:00:00 15.95 C 13.04 g/m*3 15.95 C 0.26667 km/h
103 07-11-2015 06:00:00 15.875 C 13.09 g/m*3 15.88 C 0.93333 km/h
104 07-11-2015 07:00:00 15.89167 C 13.13 g/m*3 15.89 C 0.93333 km/h
105 07-11-2015 08:00:00 15.99167 C 13.21 g/m*3 15.99 C 0 km/h
106 07-11-2015 09:00:00 16.6 C 13.7 g/m*3 16.6 C 0.13333 km/h
107 07-11-2015 10:00:00 17.15833 C 14.01 g/m*3 17.16 C 5.5 km/h
108 07-11-2015 11:00:00 18.05 C 13.86 g/m*3 18.05 C 10.625 km/h
109 07-11-2015 12:00:00 18.4 C 13.7 g/m*3 18.4 C 7.91667 km/h
110 07-11-2015 13:00:00 18.375 C 13.7 g/m*3 18.38 C 7.25 km/h
111 07-11-2015 14:00:00 18.15833 C 13.64 g/m*3 18.16 C 4.01667 km/h
112 07-11-2015 15:00:00 17.98333 C 13.55 g/m*3 17.98 C 1.86667 km/h
113 07-11-2015 16:00:00 17.05 C 13.24 g/m*3 17.05 C 2.66667 km/h
114 07-11-2015 17:00:00 16.2 C 12.81 g/m*3 16.2 C 2.26667 km/h
115 07-11-2015 18:00:00 15.80833 C 12.66 g/m*3 15.81 C 2.13333 km/h
116 07-11-2015 19:00:00 15.60833 C 12.62 g/m*3 15.61 C 0.53333 km/h
117 07-11-2015 20:00:00 15.31667 C 12.43 g/m*3 15.32 C 0.66667 km/h
118 07-11-2015 21:00:00 15.225 C 12.46 g/m*3 15.23 C 1.46667 km/h
119 07-11-2015 22:00:00 15.34167 C 12.57 g/m*3 15.34 C 2.8 km/h
120 07-11-2015 23:00:00 15.61667 C 12.77 g/m*3 15.62 C 3.075 km/h
121 08-11-2015 00:00:00 15.075 C 12.3 g/m*3 15.08 C 2.275 km/h
122 08-11-2015 01:00:00 14.48333 C 11.93 g/m*3 14.48 C 0.53333 km/h
123 08-11-2015 02:00:00 13.96667 C 11.6 g/m*3 13.97 C 1.875 km/h
124 08-11-2015 03:00:00 13.56667 C 11.32 g/m*3 13.57 C 2.8 km/h
125 08-11-2015 04:00:00 12.36667 C 10.45 g/m*3 12.37 C 0 km/h
Sensor: Nr:Datum:Temp:Abs-Feuchte:Windchill:Wind:
Aussen-T/F 126 08-11-2015 05:00:00 11.49167 C 9.89 g/m*3 11.49 C 0 km/h
127 08-11-2015 06:00:00 10.86667 C 9.55 g/m*3 10.87 C 0 km/h
128 08-11-2015 07:00:00 10.41667 C 9.33 g/m*3 10.42 C 0 km/h
129 08-11-2015 08:00:00 10 C 9.09 g/m*3 10 C 0 km/h
130 08-11-2015 09:00:00 10.51667 C 9.42 g/m*3 10.52 C 0 km/h
131 08-11-2015 10:00:00 10.80833 C 9.59 g/m*3 10.81 C 0 km/h
132 08-11-2015 11:00:00 11.45 C 10.05 g/m*3 11.45 C 0 km/h
133 08-11-2015 12:00:00 13.375 C 11.37 g/m*3 13.38 C 0 km/h
134 08-11-2015 13:00:00 14.60833 C 12.1 g/m*3 14.61 C 0 km/h
135 08-11-2015 14:00:00 16.7 C 12.9 g/m*3 16.7 C 0 km/h
136 08-11-2015 15:00:00 17.01667 C 12.72 g/m*3 17.02 C 0.13333 km/h
137 08-11-2015 16:00:00 15.88333 C 12.02 g/m*3 15.88 C 0.93333 km/h
138 08-11-2015 17:00:00 14.24167 C 11.29 g/m*3 14.24 C 2 km/h
139 08-11-2015 18:00:00 13.51667 C 10.96 g/m*3 13.52 C 2.93333 km/h
140 08-11-2015 19:00:00 12.9 C 10.69 g/m*3 12.9 C 2.53333 km/h
141 08-11-2015 20:00:00 12.63333 C 10.62 g/m*3 12.63 C 1.73333 km/h
142 08-11-2015 21:00:00 12.18333 C 10.35 g/m*3 12.18 C 0 km/h
143 08-11-2015 22:00:00 11.60833 C 10.03 g/m*3 11.61 C 0 km/h
144 08-11-2015 23:00:00 11.675 C 10.12 g/m*3 11.68 C 0.66667 km/h
145 09-11-2015 00:00:00 11.44167 C 9.99 g/m*3 11.44 C 1.60833 km/h
146 09-11-2015 01:00:00 13.01667 C 10.97 g/m*3 13.02 C 10.075 km/h
147 09-11-2015 02:00:00 15.25 C 11.36 g/m*3 15.25 C 10.89167 km/h
148 09-11-2015 03:00:00 15.44167 C 11.29 g/m*3 15.44 C 9 km/h
149 09-11-2015 04:00:00 15.15833 C 11.25 g/m*3 15.16 C 6.98333 km/h
150 09-11-2015 05:00:00 15.04167 C 11.34 g/m*3 15.04 C 6.3 km/h
Sensor: Nr:Datum:Temp:Abs-Feuchte:Windchill:Wind:
Aussen-T/F 151 09-11-2015 06:00:00 15.04167 C 11.46 g/m*3 15.04 C 6.975 km/h
152 09-11-2015 07:00:00 14.9 C 11.87 g/m*3 14.9 C 4.275 km/h
153 09-11-2015 08:00:00 14.325 C 11.75 g/m*3 14.33 C 1.6 km/h
154 09-11-2015 09:00:00 14.54167 C 11.99 g/m*3 14.54 C 1.46667 km/h
155 09-11-2015 10:00:00 14.34167 C 11.89 g/m*3 14.34 C 4.28333 km/h
156 09-11-2015 11:00:00 15.84167 C 11.53 g/m*3 15.84 C 15.83333 km/h
157 09-11-2015 12:00:00 16.85833 C 10.7 g/m*3 16.86 C 16.36667 km/h
158 09-11-2015 13:00:00 16.68333 C 9.57 g/m*3 16.68 C 22.39167 km/h
159 09-11-2015 14:00:00 15.9 C 9.43 g/m*3 15.9 C 11.56667 km/h
160 09-11-2015 15:00:00 15.44286 C 9.5 g/m*3 15.44 C 8.74286 km/h
161 09-11-2015 16:00:00 15.1 C 9.55 g/m*3 15.1 C 1.6 km/h
162 09-11-2015 17:00:00 14.43333 C 9.3 g/m*3 14.43 C 6.975 km/h
163 09-11-2015 18:00:00 14.54167 C 9.22 g/m*3 14.54 C 11 km/h
164 09-11-2015 19:00:00 14.725 C 9.11 g/m*3 14.73 C 16.5 km/h
165 09-11-2015 20:00:00 14.75 C 9.47 g/m*3 14.75 C 14.5 km/h
166 09-11-2015 21:00:00 14.55 C 9.68 g/m*3 14.55 C 13.575 km/h
167 09-11-2015 22:00:00 14.35833 C 9.6 g/m*3 14.36 C 17.16667 km/h
168 09-11-2015 23:00:00 14.25 C 9.46 g/m*3 14.25 C 18.36667 km/h
169 10-11-2015 00:00:00 14.06667 C 9.36 g/m*3 14.07 C 13.96667 km/h
170 10-11-2015 01:00:00 13.825 C 9.28 g/m*3 13.83 C 15.56667 km/h
171 10-11-2015 02:00:00 13.76667 C 9.32 g/m*3 13.77 C 15.69167 km/h
172 10-11-2015 03:00:00 13.48333 C 9.33 g/m*3 13.48 C 16.36667 km/h
173 10-11-2015 04:00:00 12.96667 C 9.23 g/m*3 12.97 C 9.53333 km/h
174 10-11-2015 05:00:00 12.79167 C 9.24 g/m*3 12.79 C 9.55 km/h
175 10-11-2015 06:00:00 12.675 C 9.1 g/m*3 12.68 C 11.3 km/h
Sensor: Nr:Datum:Temp:Abs-Feuchte:Windchill:Wind:
Aussen-T/F 176 10-11-2015 07:00:00 12.575 C 9.14 g/m*3 12.58 C 14.1 km/h
177 10-11-2015 08:00:00 12.74167 C 9.26 g/m*3 12.74 C 15.03333 km/h
178 10-11-2015 09:00:00 12.95 C 9.38 g/m*3 12.95 C 14.76667 km/h
179 10-11-2015 10:00:00 13.14167 C 9.5 g/m*3 13.14 C 16.76667 km/h
180 10-11-2015 11:00:00 13.55 C 9.65 g/m*3 13.55 C 16.5 km/h
181 10-11-2015 12:00:00 13.45833 C 9.67 g/m*3 13.46 C 10.06667 km/h
182 10-11-2015 13:00:00 13.43333 C 9.78 g/m*3 13.43 C 9.275 km/h
183 10-11-2015 14:00:00 13.525 C 9.85 g/m*3 13.53 C 14.63333 km/h
184 10-11-2015 15:00:00 13.35 C 9.8 g/m*3 13.35 C 16.5 km/h
185 10-11-2015 16:00:00 13.26667 C 9.85 g/m*3 13.27 C 13.7 km/h
186 10-11-2015 17:00:00 13.16667 C 9.88 g/m*3 13.17 C 12.9 km/h
187 10-11-2015 18:00:00 12.75833 C 9.84 g/m*3 12.76 C 13.43333 km/h
188 10-11-2015 19:00:00 12.54167 C 9.91 g/m*3 12.54 C 14.1 km/h
189 10-11-2015 20:00:00 12.40833 C 9.84 g/m*3 12.41 C 13.83333 km/h
190 10-11-2015 21:00:00 12.55 C 9.93 g/m*3 12.55 C 11.81667 km/h
191 10-11-2015 22:00:00 12.56667 C 9.95 g/m*3 12.57 C 2.675 km/h
192 10-11-2015 23:00:00 12.35 C 9.91 g/m*3 12.35 C 2.13333 km/h
193 11-11-2015 00:00:00 12.35833 C 9.9 g/m*3 12.36 C 5.76667 km/h
194 11-11-2015 01:00:00 12.40833 C 9.96 g/m*3 12.41 C 8.2 km/h
195 11-11-2015 02:00:00 12.30833 C 9.89 g/m*3 12.31 C 7.10833 km/h
196 11-11-2015 03:00:00 11.7 C 9.54 g/m*3 11.7 C 3.75833 km/h
197 11-11-2015 04:00:00 11.775 C 9.67 g/m*3 11.78 C 9.40833 km/h
198 11-11-2015 05:00:00 12.075 C 9.74 g/m*3 12.08 C 9.94167 km/h
199 11-11-2015 06:00:00 12.04167 C 9.63 g/m*3 12.04 C 6.98333 km/h
200 11-11-2015 07:00:00 11.80833 C 9.44 g/m*3 11.81 C 5.9 km/h
Sensor: Nr:Datum:Temp:Abs-Feuchte:Windchill:Wind:
Aussen-T/F 201 11-11-2015 08:00:00 11.8 C 9.15 g/m*3 11.8 C 4.68333 km/h
202 11-11-2015 09:00:00 12.01667 C 8.71 g/m*3 12.02 C 9.00833 km/h
203 11-11-2015 10:00:00 12.36667 C 8.62 g/m*3 12.37 C 10.75833 km/h
204 11-11-2015 11:00:00 12.49167 C 8.39 g/m*3 12.49 C 12.63333 km/h
205 11-11-2015 12:00:00 12.775 C 8.41 g/m*3 12.78 C 11.43333 km/h
206 11-11-2015 13:00:00 12.975 C 8.43 g/m*3 12.98 C 10.21667 km/h
207 11-11-2015 14:00:00 13.25833 C 8.47 g/m*3 13.26 C 9.55 km/h
208 11-11-2015 15:00:00 12.64167 C 8.46 g/m*3 12.64 C 5.24167 km/h
209 11-11-2015 16:00:00 11.35 C 8.29 g/m*3 11.35 C 2.53333 km/h
210 11-11-2015 17:00:00 9.78333 C 7.95 g/m*3 9.78 C 2.8 km/h
211 11-11-2015 18:00:00 9.375 C 7.92 g/m*3 9.38 C 3.35833 km/h
212 11-11-2015 19:00:00 10.51667 C 7.97 g/m*3 9.89 C 6.7 km/h
213 11-11-2015 20:00:00 10.89167 C 8.14 g/m*3 10.89 C 1.33333 km/h
214 11-11-2015 21:00:00 10.7 C 8.41 g/m*3 10.7 C 0 km/h
215 11-11-2015 22:00:00 10.66667 C 8.58 g/m*3 10.67 C 0 km/h
216 11-11-2015 23:00:00 10.875 C 8.71 g/m*3 10.88 C 0 km/h
217 12-11-2015 00:00:00 11.075 C 8.82 g/m*3 11.08 C 0.4 km/h
218 12-11-2015 01:00:00 11.275 C 8.99 g/m*3 11.28 C 0.53333 km/h
219 12-11-2015 02:00:00 11.425 C 9.09 g/m*3 11.43 C 1.2 km/h
220 12-11-2015 03:00:00 12.1 C 9.31 g/m*3 12.1 C 6.44167 km/h
221 12-11-2015 04:00:00 12.05 C 9.39 g/m*3 12.05 C 6.29167 km/h
222 12-11-2015 05:00:00 11.9 C 9.46 g/m*3 11.9 C 6.29167 km/h
223 12-11-2015 06:00:00 11.825 C 9.57 g/m*3 11.83 C 7.93333 km/h
224 12-11-2015 07:00:00 11.56667 C 9.45 g/m*3 11.57 C 2.53333 km/h
225 12-11-2015 08:00:00 11.06667 C 9.26 g/m*3 11.07 C 1.06667 km/h
Sensor: Nr:Datum:Temp:Abs-Feuchte:Windchill:Wind:
Aussen-T/F 226 12-11-2015 09:00:00 11.75833 C 9.66 g/m*3 11.76 C 9.28333 km/h
227 12-11-2015 10:00:00 12.60833 C 9.78 g/m*3 12.61 C 7.925 km/h
228 12-11-2015 11:00:00 13.41667 C 9.88 g/m*3 13.42 C 10.63333 km/h
229 12-11-2015 12:00:00 13.53333 C 9.86 g/m*3 13.53 C 5.375 km/h
230 12-11-2015 13:00:00 13.70833 C 9.51 g/m*3 13.71 C 4.95 km/h
231 12-11-2015 14:00:00 13.61667 C 9.36 g/m*3 13.62 C 3.075 km/h
232 12-11-2015 15:00:00 12.975 C 9.4 g/m*3 12.98 C 3.2 km/h
233 12-11-2015 16:00:00 13.16667 C 9.62 g/m*3 13.17 C 2.4 km/h
234 12-11-2015 17:00:00 12.74167 C 9.39 g/m*3 12.74 C 0.26667 km/h
235 12-11-2015 18:00:00 12.50833 C 9.27 g/m*3 12.51 C 0 km/h
236 12-11-2015 19:00:00 11.125 C 8.74 g/m*3 11.13 C 4.53333 km/h
237 12-11-2015 20:00:00 10.15 C 8.54 g/m*3 10.15 C 2 km/h
238 12-11-2015 21:00:00 9.15833 C 8.23 g/m*3 9.16 C 0 km/h
239 12-11-2015 22:00:00 8.61667 C 8.01 g/m*3 8.62 C 0 km/h
240 12-11-2015 23:00:00 7.80833 C 7.7 g/m*3 7.81 C 0 km/h
241 13-11-2015 00:00:00 7.05833 C 7.39 g/m*3 7.06 C 0 km/h
242 13-11-2015 01:00:00 7.56667 C 7.72 g/m*3 7.57 C 0 km/h
243 13-11-2015 02:00:00 8.15 C 8.01 g/m*3 8.15 C 0 km/h
244 13-11-2015 03:00:00 8.45 C 8.17 g/m*3 8.45 C 1.73333 km/h
245 13-11-2015 04:00:00 8.55833 C 8.22 g/m*3 8.56 C 4.41667 km/h
246 13-11-2015 05:00:00 8.90833 C 8.35 g/m*3 8.91 C 4.54167 km/h
247 13-11-2015 06:00:00 9.73333 C 8.66 g/m*3 9.23 C 5.75 km/h
248 13-11-2015 07:00:00 9.375 C 8.41 g/m*3 9.38 C 1.06667 km/h
249 13-11-2015 08:00:00 9.68333 C 8.66 g/m*3 9.68 C 0.4 km/h
250 13-11-2015 09:00:00 11 C 9.11 g/m*3 10.54 C 6.31667 km/h
Sensor: Nr:Datum:Temp:Abs-Feuchte:Windchill:Wind:
Aussen-T/F 251 13-11-2015 10:00:00 11.95833 C 9.25 g/m*3 11.96 C 12.9 km/h
252 13-11-2015 11:00:00 12.44167 C 9.44 g/m*3 12.44 C 14.9 km/h
253 13-11-2015 12:00:00 13 C 9.59 g/m*3 13 C 15.96667 km/h
254 13-11-2015 13:00:00 13.3 C 9.7 g/m*3 13.3 C 13.3 km/h
255 13-11-2015 14:00:00 13.18333 C 9.73 g/m*3 13.18 C 10.75833 km/h
256 13-11-2015 15:00:00 13.09167 C 9.87 g/m*3 13.09 C 9.00833 km/h
257 13-11-2015 16:00:00 12.98333 C 10.07 g/m*3 12.98 C 8.33333 km/h
258 13-11-2015 17:00:00 12.50833 C 9.85 g/m*3 12.51 C 9.95 km/h
259 13-11-2015 18:00:00 12.30833 C 9.42 g/m*3 12.31 C 10.08333 km/h
260 13-11-2015 19:00:00 11.51667 C 8.38 g/m*3 11.52 C 6.58333 km/h
261 13-11-2015 20:00:00 10.84167 C 7.85 g/m*3 9.08 C 13.95833 km/h
262 13-11-2015 21:00:00 10.05833 C 7.19 g/m*3 8.35 C 12.225 km/h
263 13-11-2015 22:00:00 8.91667 C 6.88 g/m*3 7.87 C 7.39167 km/h
264 13-11-2015 23:00:00 7.85833 C 6.75 g/m*3 7.12 C 5.625 km/h
265 14-11-2015 00:00:00 7.71667 C 6.6 g/m*3 7.72 C 4.825 km/h
266 14-11-2015 01:00:00 7.375 C 6.45 g/m*3 6.41 C 6.15833 km/h
267 14-11-2015 02:00:00 7.56667 C 6.61 g/m*3 5.76 C 9.80833 km/h
268 14-11-2015 03:00:00 7.75833 C 6.87 g/m*3 6.21 C 8.73333 km/h
269 14-11-2015 04:00:00 7.725 C 6.95 g/m*3 5.8 C 10.625 km/h
270 14-11-2015 05:00:00 7.975 C 6.96 g/m*3 5.22 C 16.5 km/h
271 14-11-2015 06:00:00 8.225 C 6.97 g/m*3 5.55 C 16.36667 km/h
272 14-11-2015 07:00:00 8.31667 C 7 g/m*3 5.65 C 16.5 km/h
273 14-11-2015 08:00:00 8.59167 C 7.07 g/m*3 6.02 C 16.23333 km/h
274 14-11-2015 09:00:00 8.94167 C 7.09 g/m*3 6.5 C 15.83333 km/h
275 14-11-2015 10:00:00 9.25 C 7.15 g/m*3 6.94 C 15.43333 km/h
Sensor: Nr:Datum:Temp:Abs-Feuchte:Windchill:Wind:
Aussen-T/F 276 14-11-2015 11:00:00 10 C 7.31 g/m*3 7.61 C 17.70833 km/h
277 14-11-2015 12:00:00 10.425 C 7.41 g/m*3 8.47 C 14.76667 km/h
278 14-11-2015 13:00:00 10.50833 C 7.58 g/m*3 8.63 C 14.225 km/h
279 14-11-2015 14:00:00 10.075 C 7.84 g/m*3 8.1 C 14.23333 km/h
280 14-11-2015 15:00:00 9.325 C 7.95 g/m*3 7.79 C 10.2 km/h
281 14-11-2015 16:00:00 8.875 C 7.95 g/m*3 8.17 C 6.025 km/h
282 14-11-2015 17:00:00 8.7 C 7.86 g/m*3 8.21 C 5.20833 km/h
283 14-11-2015 18:00:00 8.79167 C 7.89 g/m*3 8.79 C 2.26667 km/h
284 14-11-2015 19:00:00 9.2 C 7.86 g/m*3 7.1 C 13.69167 km/h
285 14-11-2015 20:00:00 9.74167 C 7.7 g/m*3 7.68 C 14.36667 km/h
286 14-11-2015 21:00:00 9.68333 C 7.56 g/m*3 7.75 C 13.3 km/h
287 14-11-2015 22:00:00 9.71667 C 7.52 g/m*3 7.45 C 15.96667 km/h
288 14-11-2015 23:00:00 9.55 C 7.67 g/m*3 6.8 C 20.11667 km/h
289 15-11-2015 00:00:00 9.39167 C 7.78 g/m*3 6.15 C 25.06667 km/h
290 15-11-2015 01:00:00 9.66667 C 7.98 g/m*3 6.68 C 23.05 km/h
291 15-11-2015 02:00:00 9.925 C 8.19 g/m*3 7.12 C 21.71667 km/h
292 15-11-2015 03:00:00 10.25833 C 8.42 g/m*3 7.57 C 21.44167 km/h
293 15-11-2015 04:00:00 10.60833 C 8.64 g/m*3 7.7 C 25.35 km/h
294 15-11-2015 05:00:00 11.15 C 8.88 g/m*3 11.15 C 17.16667 km/h
295 15-11-2015 06:00:00 11.3 C 9.01 g/m*3 11.3 C 15.7 km/h
296 15-11-2015 07:00:00 11.79167 C 9.14 g/m*3 11.79 C 19.175 km/h
297 15-11-2015 08:00:00 12.19167 C 9.28 g/m*3 12.19 C 19.30833 km/h
298 15-11-2015 09:00:00 12.69167 C 9.45 g/m*3 12.69 C 19.575 km/h
299 15-11-2015 10:00:00 13.49167 C 9.74 g/m*3 13.49 C 19.56667 km/h
300 15-11-2015 11:00:00 14.43333 C 10 g/m*3 14.43 C 22.24167 km/h
Sensor: Nr:Datum:Temp:Abs-Feuchte:Windchill:Wind:
Aussen-T/F 301 15-11-2015 12:00:00 14.825 C 10.12 g/m*3 14.83 C 22.91667 km/h
302 15-11-2015 13:00:00 15.09167 C 10.2 g/m*3 15.09 C 22.25 km/h
303 15-11-2015 14:00:00 14.91667 C 10.08 g/m*3 14.92 C 21.85833 km/h
304 15-11-2015 15:00:00 14.71667 C 10 g/m*3 14.72 C 19.30833 km/h
305 15-11-2015 16:00:00 14.28333 C 9.87 g/m*3 14.28 C 16.9 km/h
306 15-11-2015 17:00:00 13.475 C 9.74 g/m*3 13.48 C 15.16667 km/h
307 15-11-2015 18:00:00 13.23333 C 9.66 g/m*3 13.23 C 15.56667 km/h
308 15-11-2015 19:00:00 13.14167 C 9.52 g/m*3 13.14 C 14.76667 km/h
309 15-11-2015 20:00:00 12.9 C 9.34 g/m*3 12.9 C 15.56667 km/h
310 15-11-2015 21:00:00 12.68333 C 9.29 g/m*3 12.68 C 9.78333 km/h
311 15-11-2015 22:00:00 12.46667 C 9.34 g/m*3 12.47 C 2.93333 km/h
312 15-11-2015 23:00:00 12.29167 C 9.3 g/m*3 12.29 C 6.28333 km/h
313 16-11-2015 00:00:00 12.14167 C 9.22 g/m*3 12.14 C 7.50833 km/h
314 16-11-2015 01:00:00 12.39167 C 9.19 g/m*3 12.39 C 4.00833 km/h
315 16-11-2015 02:00:00 12.28333 C 9.1 g/m*3 12.28 C 6.70833 km/h
316 16-11-2015 03:00:00 11.96667 C 8.96 g/m*3 11.97 C 11.025 km/h
317 16-11-2015 04:00:00 11.6 C 8.86 g/m*3 11.6 C 6.98333 km/h
318 16-11-2015 05:00:00 10.96667 C 8.53 g/m*3 10.97 C 4.675 km/h
319 16-11-2015 06:00:00 10.45833 C 8.38 g/m*3 10.46 C 2.8 km/h
320 16-11-2015 07:00:00 10.78333 C 8.2 g/m*3 9.43 C 10.875 km/h
321 16-11-2015 08:00:00 10.78333 C 7.89 g/m*3 10.09 C 7.23333 km/h
322 16-11-2015 09:00:00 10.91667 C 7.92 g/m*3 9.95 C 8.725 km/h
323 16-11-2015 10:00:00 11.29167 C 7.95 g/m*3 11.29 C 13.43333 km/h
324 16-11-2015 11:00:00 11.725 C 8.15 g/m*3 11.73 C 17.03333 km/h
325 16-11-2015 12:00:00 11.88333 C 8.28 g/m*3 11.88 C 15.16667 km/h
Sensor: Nr:Datum:Temp:Abs-Feuchte:Windchill:Wind:
Aussen-T/F 326 16-11-2015 13:00:00 11.825 C 8.4 g/m*3 11.83 C 8.325 km/h
327 16-11-2015 14:00:00 12.03333 C 8.55 g/m*3 12.03 C 11.15833 km/h
328 16-11-2015 15:00:00 12 C 8.6 g/m*3 12 C 12.09167 km/h
329 16-11-2015 16:00:00 11.81667 C 8.67 g/m*3 11.82 C 11.96667 km/h
330 16-11-2015 17:00:00 11.50833 C 8.83 g/m*3 11.51 C 15.7 km/h
331 16-11-2015 18:00:00 11.3 C 8.98 g/m*3 11.3 C 14.63333 km/h
332 16-11-2015 19:00:00 11.59167 C 9.22 g/m*3 11.59 C 16.76667 km/h
333 16-11-2015 20:00:00 11.79167 C 9.34 g/m*3 11.79 C 11.7 km/h
334 16-11-2015 21:00:00 11.90833 C 9.4 g/m*3 11.91 C 15.7 km/h
335 16-11-2015 22:00:00 12.04167 C 9.43 g/m*3 12.04 C 14.23333 km/h
336 16-11-2015 23:00:00 12.21667 C 9.51 g/m*3 12.22 C 15.025 km/h
337 17-11-2015 00:00:00 12.3 C 9.64 g/m*3 12.3 C 10.35 km/h
338 17-11-2015 01:00:00 12.55833 C 9.78 g/m*3 12.56 C 11.025 km/h
339 17-11-2015 02:00:00 12.875 C 9.92 g/m*3 12.88 C 11.29167 km/h
340 17-11-2015 03:00:00 13.21667 C 10.06 g/m*3 13.22 C 13.025 km/h
341 17-11-2015 04:00:00 12.84167 C 10.17 g/m*3 12.84 C 9.81667 km/h
342 17-11-2015 05:00:00 12.675 C 10.21 g/m*3 12.68 C 12.20833 km/h
343 17-11-2015 06:00:00 12.99167 C 10.18 g/m*3 12.99 C 16.76667 km/h
344 17-11-2015 07:00:00 13.41667 C 10.26 g/m*3 13.42 C 20.36667 km/h
345 17-11-2015 08:00:00 13.19167 C 10.51 g/m*3 13.19 C 17.43333 km/h
346 17-11-2015 09:00:00 13.35 C 10.57 g/m*3 13.35 C 13.55833 km/h
347 17-11-2015 10:00:00 13.39167 C 10.78 g/m*3 13.39 C 8.725 km/h
348 17-11-2015 11:00:00 14.05 C 11.13 g/m*3 14.05 C 11.025 km/h
349 17-11-2015 12:00:00 13.99167 C 11.31 g/m*3 13.99 C 5.75833 km/h
350 17-11-2015 13:00:00 14.59167 C 11.53 g/m*3 14.59 C 7.36667 km/h
Sensor: Nr:Datum:Temp:Abs-Feuchte:Windchill:Wind:
Aussen-T/F 351 17-11-2015 14:00:00 14.9 C 11.35 g/m*3 14.9 C 12.1 km/h
352 17-11-2015 15:00:00 15.06667 C 11.1 g/m*3 15.07 C 12.36667 km/h
353 17-11-2015 16:00:00 14.85833 C 11.03 g/m*3 14.86 C 8.46667 km/h
354 17-11-2015 17:00:00 14.89167 C 11.1 g/m*3 14.89 C 13.95833 km/h
355 17-11-2015 18:00:00 14.68333 C 11.28 g/m*3 14.68 C 13.56667 km/h
356 17-11-2015 19:00:00 15.075 C 11.37 g/m*3 15.08 C 16.5 km/h
357 17-11-2015 20:00:00 15.025 C 11.41 g/m*3 15.03 C 13.96667 km/h
358 17-11-2015 21:00:00 15.26667 C 11.45 g/m*3 15.27 C 17.04167 km/h
359 17-11-2015 22:00:00 15.725 C 11.74 g/m*3 15.73 C 20.64167 km/h
360 17-11-2015 23:00:00 16 C 11.68 g/m*3 16 C 26.675 km/h
361 18-11-2015 00:00:00 15.81667 C 10.82 g/m*3 15.82 C 19.975 km/h
362 18-11-2015 01:00:00 15.70833 C 10.53 g/m*3 15.71 C 17.44167 km/h
363 18-11-2015 02:00:00 15.46667 C 10.17 g/m*3 15.47 C 16.1 km/h
364 18-11-2015 03:00:00 15.11667 C 9 g/m*3 15.12 C 21.59167 km/h
365 18-11-2015 04:00:00 14.19167 C 8.7 g/m*3 14.19 C 16.23333 km/h
366 18-11-2015 05:00:00 13.90833 C 8.64 g/m*3 13.91 C 15.83333 km/h
367 18-11-2015 06:00:00 13.8 C 8.69 g/m*3 13.8 C 17.16667 km/h
368 18-11-2015 07:00:00 13.5 C 8.61 g/m*3 13.5 C 12.76667 km/h
369 18-11-2015 08:00:00 13.4 C 8.62 g/m*3 13.4 C 13.96667 km/h
370 18-11-2015 09:00:00 13.575 C 8.72 g/m*3 13.58 C 13.425 km/h
371 18-11-2015 10:00:00 13.90833 C 8.73 g/m*3 13.91 C 15.03333 km/h
372 18-11-2015 11:00:00 14.09167 C 8.84 g/m*3 14.09 C 13.7 km/h
373 18-11-2015 12:00:00 14.175 C 8.67 g/m*3 14.18 C 13.28333 km/h
374 18-11-2015 13:00:00 14.11667 C 8.46 g/m*3 14.12 C 14.36667 km/h
375 18-11-2015 14:00:00 13.86667 C 8.35 g/m*3 13.87 C 15.96667 km/h
Sensor: Nr:Datum:Temp:Abs-Feuchte:Windchill:Wind:
Aussen-T/F 376 18-11-2015 15:00:00 13.58333 C 8.15 g/m*3 13.58 C 17.84167 km/h
377 18-11-2015 16:00:00 13.075 C 7.98 g/m*3 13.08 C 14.49167 km/h
378 18-11-2015 17:00:00 12.76667 C 8.05 g/m*3 12.77 C 17.70833 km/h
379 18-11-2015 18:00:00 12.64167 C 8.06 g/m*3 12.64 C 17.44167 km/h
380 18-11-2015 19:00:00 12.825 C 8.31 g/m*3 12.83 C 20.11667 km/h
381 18-11-2015 20:00:00 13.03333 C 8.47 g/m*3 13.03 C 25.60833 km/h
382 18-11-2015 21:00:00 13.14167 C 8.65 g/m*3 13.14 C 23.71667 km/h
383 18-11-2015 22:00:00 13.475 C 8.9 g/m*3 13.48 C 20.64167 km/h
384 18-11-2015 23:00:00 13.84167 C 9.23 g/m*3 13.84 C 15.83333 km/h
385 19-11-2015 00:00:00 14.24167 C 9.59 g/m*3 14.24 C 15.96667 km/h
386 19-11-2015 01:00:00 14.26667 C 9.84 g/m*3 14.27 C 15.03333 km/h
387 19-11-2015 02:00:00 14.55 C 9.83 g/m*3 14.55 C 14.36667 km/h
388 19-11-2015 03:00:00 14.325 C 10.15 g/m*3 14.33 C 8.45833 km/h
389 19-11-2015 04:00:00 13.65833 C 9.97 g/m*3 13.66 C 10.88333 km/h
390 19-11-2015 05:00:00 14 C 9.47 g/m*3 14 C 10.48333 km/h
391 19-11-2015 06:00:00 13.56667 C 9.37 g/m*3 13.57 C 15.84167 km/h
392 19-11-2015 07:00:00 13.325 C 9.07 g/m*3 13.33 C 11.40833 km/h
393 19-11-2015 08:00:00 13.09167 C 9.11 g/m*3 13.09 C 13.55833 km/h
394 19-11-2015 09:00:00 13.13333 C 8.47 g/m*3 13.13 C 15.83333 km/h
395 19-11-2015 10:00:00 13.18333 C 8.29 g/m*3 13.18 C 17.56667 km/h
396 19-11-2015 11:00:00 12.99167 C 9.08 g/m*3 12.99 C 16.1 km/h
397 19-11-2015 12:00:00 12.89167 C 9.63 g/m*3 12.89 C 14.63333 km/h
398 19-11-2015 13:00:00 12.775 C 9.65 g/m*3 12.78 C 14.1 km/h
399 19-11-2015 14:00:00 11.83333 C 9.74 g/m*3 11.83 C 6.575 km/h
400 19-11-2015 15:00:00 11.41667 C 9.44 g/m*3 11.42 C 13.025 km/h
Sensor: Nr:Datum:Temp:Abs-Feuchte:Windchill:Wind:
Aussen-T/F 401 19-11-2015 16:00:00 11.13333 C 9.3 g/m*3 11.13 C 4.95 km/h
402 19-11-2015 17:00:00 10.38333 C 9.02 g/m*3 10.38 C 3.88333 km/h
403 19-11-2015 18:00:00 10.05833 C 8.94 g/m*3 10.06 C 0.13333 km/h
404 19-11-2015 19:00:00 9.925 C 8.93 g/m*3 9.93 C 0 km/h
405 19-11-2015 20:00:00 10.1 C 9.09 g/m*3 10.1 C 1.74167 km/h
406 19-11-2015 21:00:00 10.55833 C 9.31 g/m*3 8.66 C 14.50833 km/h
407 19-11-2015 22:00:00 9.33333 C 8.51 g/m*3 8.39 C 7.24167 km/h
408 19-11-2015 23:00:00 8.925 C 8.36 g/m*3 8.93 C 1.06667 km/h
409 20-11-2015 00:00:00 8.99167 C 8.46 g/m*3 8.99 C 0 km/h
410 20-11-2015 01:00:00 8.94167 C 8.43 g/m*3 8.94 C 0 km/h
411 20-11-2015 02:00:00 9.41667 C 8.76 g/m*3 9.42 C 1.46667 km/h
412 20-11-2015 03:00:00 9.725 C 8.96 g/m*3 9.73 C 2.4 km/h
413 20-11-2015 04:00:00 9.80833 C 9 g/m*3 9.81 C 2.13333 km/h
414 20-11-2015 05:00:00 9.5 C 8.8 g/m*3 9.5 C 2.53333 km/h
415 20-11-2015 06:00:00 8.75 C 8.3 g/m*3 8.75 C 3.875 km/h
416 20-11-2015 07:00:00 8.54167 C 8.08 g/m*3 7.75 C 6.16667 km/h
417 20-11-2015 08:00:00 8.7 C 7.96 g/m*3 8.7 C 4.8 km/h
418 20-11-2015 09:00:00 8.66667 C 7.9 g/m*3 7.37 C 8.325 km/h
419 20-11-2015 10:00:00 8.675 C 7.87 g/m*3 7.83 C 6.43333 km/h
420 20-11-2015 11:00:00 8.40833 C 7.9 g/m*3 7.67 C 5.89167 km/h
421 20-11-2015 12:00:00 8.4 C 7.9 g/m*3 8.4 C 3.35 km/h
422 20-11-2015 13:00:00 8.23333 C 7.89 g/m*3 8.23 C 3.33333 km/h
423 20-11-2015 14:00:00 7.70833 C 7.62 g/m*3 7.71 C 4.14167 km/h
424 20-11-2015 15:00:00 6.95 C 7.26 g/m*3 6.95 C 3.74167 km/h
425 20-11-2015 16:00:00 6.40833 C 7.04 g/m*3 6.41 C 2 km/h
Sensor: Nr:Datum:Temp:Abs-Feuchte:Windchill:Wind:
Aussen-T/F 426 20-11-2015 17:00:00 5.94167 C 6.87 g/m*3 5.94 C 3.86667 km/h
427 20-11-2015 18:00:00 5.68333 C 6.8 g/m*3 5.68 C 2.26667 km/h
428 20-11-2015 19:00:00 5.5 C 6.73 g/m*3 5.5 C 4.55 km/h
429 20-11-2015 20:00:00 5.65 C 6.74 g/m*3 4.59 C 5.63333 km/h
430 20-11-2015 21:00:00 5.275 C 6.57 g/m*3 5.28 C 1.33333 km/h
431 20-11-2015 22:00:00 5.00833 C 6.44 g/m*3 5.01 C 3.20833 km/h
432 20-11-2015 23:00:00 4.58333 C 6.21 g/m*3 4.58 C 4.68333 km/h
433 21-11-2015 00:00:00 4.21667 C 6.05 g/m*3 3.01 C 5.48333 km/h
434 21-11-2015 01:00:00 4.36667 C 6 g/m*3 2.3 C 8.33333 km/h
435 21-11-2015 02:00:00 5.10833 C 6.11 g/m*3 2.89 C 9.55833 km/h
436 21-11-2015 03:00:00 4.86667 C 6.02 g/m*3 2.86 C 8.45833 km/h
437 21-11-2015 04:00:00 4.55833 C 5.87 g/m*3 2.17 C 9.80833 km/h
438 21-11-2015 05:00:00 4.375 C 5.86 g/m*3 2.5 C 7.63333 km/h
439 21-11-2015 06:00:00 4.63333 C 5.87 g/m*3 3.34 C 5.89167 km/h
440 21-11-2015 07:00:00 4.28333 C 5.86 g/m*3 4.28 C 4.00833 km/h
441 21-11-2015 08:00:00 4.48333 C 5.92 g/m*3 4.48 C 4.13333 km/h
442 21-11-2015 09:00:00 4.725 C 6.07 g/m*3 4.72 C 0.53333 km/h
443 21-11-2015 10:00:00 5.34167 C 6.2 g/m*3 5.34 C 0 km/h
444 21-11-2015 11:00:00 6.025 C 6.3 g/m*3 6.03 C 3.46667 km/h
445 21-11-2015 12:00:00 6.25833 C 6.27 g/m*3 6.26 C 3.48333 km/h
446 21-11-2015 13:00:00 6.725 C 6.24 g/m*3 5.42 C 6.975 km/h
447 21-11-2015 14:00:00 4.99167 C 5.87 g/m*3 3.49 C 6.71667 km/h
448 21-11-2015 15:00:00 3.63333 C 5.77 g/m*3 3.63 C 2.4 km/h
449 21-11-2015 16:00:00 2.025 C 5.19 g/m*3 2.03 C 1.6 km/h
450 21-11-2015 17:00:00 1.975 C 5.27 g/m*3 1.98 C 0.93333 km/h
Sensor: Nr:Datum:Temp:Abs-Feuchte:Windchill:Wind:
Aussen-T/F 451 21-11-2015 18:00:00 2.33333 C 5.45 g/m*3 2.33 C 0.53333 km/h
452 21-11-2015 19:00:00 2.56667 C 5.54 g/m*3 2.57 C 2.66667 km/h
453 21-11-2015 20:00:00 1.65833 C 5.19 g/m*3 1.66 C 3.6 km/h
454 21-11-2015 21:00:00 1.10833 C 5.02 g/m*3 1.11 C 1.6 km/h
455 21-11-2015 22:00:00 1.20833 C 5.06 g/m*3 1.21 C 0.4 km/h
456 21-11-2015 23:00:00 1.65833 C 5.22 g/m*3 1.66 C 2 km/h
457 22-11-2015 00:00:00 1.28333 C 5.08 g/m*3 1.28 C 1.86667 km/h
458 22-11-2015 01:00:00 1.43333 C 5.17 g/m*3 1.43 C 2.4 km/h
459 22-11-2015 02:00:00 1.9 C 5.35 g/m*3 1.9 C 2.26667 km/h
460 22-11-2015 03:00:00 2.08333 C 5.41 g/m*3 2.08 C 2.13333 km/h
461 22-11-2015 04:00:00 1.81667 C 5.31 g/m*3 1.82 C 1.73333 km/h
462 22-11-2015 05:00:00 2.425 C 5.53 g/m*3 0.52 C 6.7 km/h
463 22-11-2015 06:00:00 2.73333 C 5.45 g/m*3 0.2 C 8.99167 km/h
464 22-11-2015 07:00:00 2.75833 C 5.37 g/m*3 0.69 C 7.36667 km/h
465 22-11-2015 08:00:00 2.83333 C 5.37 g/m*3 1.53 C 5.225 km/h
466 22-11-2015 09:00:00 3.08333 C 5.52 g/m*3 3.08 C 2.28333 km/h
467 22-11-2015 10:00:00 3.58333 C 5.71 g/m*3 3.58 C 0.8 km/h
468 22-11-2015 11:00:00 3.74167 C 5.71 g/m*3 3.74 C 2.675 km/h
469 22-11-2015 12:00:00 4.54167 C 5.93 g/m*3 4.54 C 4.825 km/h
470 22-11-2015 13:00:00 4.875 C 5.71 g/m*3 4.88 C 4.94167 km/h
471 22-11-2015 14:00:00 5.45 C 5.44 g/m*3 2.96 C 11.15 km/h
472 22-11-2015 15:00:00 5.35 C 5.29 g/m*3 3 C 10.35 km/h
473 22-11-2015 16:00:00 4.64167 C 5.16 g/m*3 2.49 C 8.875 km/h
474 22-11-2015 17:00:00 3.56667 C 5.12 g/m*3 0.2 C 13.69167 km/h
475 22-11-2015 18:00:00 1.58333 C 5.04 g/m*3 -1.87 C 11.95 km/h
Sensor: Nr:Datum:Temp:Abs-Feuchte:Windchill:Wind:
Aussen-T/F 476 22-11-2015 19:00:00 1.50833 C 5.1 g/m*3 1.51 C 4.825 km/h
477 22-11-2015 20:00:00 1.60833 C 5.14 g/m*3 1.61 C 3.2 km/h
478 22-11-2015 21:00:00 1.675 C 5.22 g/m*3 1.68 C 4.14167 km/h
479 22-11-2015 22:00:00 2 C 5.32 g/m*3 2 C 4.96667 km/h
480 22-11-2015 23:00:00 1.95833 C 5.18 g/m*3 -0.16 C 7.10833 km/h
481 23-11-2015 00:00:00 1.68333 C 5.06 g/m*3 1.68 C 4.41667 km/h
482 23-11-2015 01:00:00 1.84167 C 5.09 g/m*3 1.84 C 4.68333 km/h
483 23-11-2015 02:00:00 2.24167 C 5.2 g/m*3 0.25 C 6.85833 km/h
484 23-11-2015 03:00:00 2.68333 C 5.3 g/m*3 0.36 C 8.19167 km/h
485 23-11-2015 04:00:00 2.70833 C 5.36 g/m*3 1.13 C 5.89167 km/h
486 23-11-2015 05:00:00 2.7 C 5.36 g/m*3 2.7 C 4.81667 km/h
487 23-11-2015 06:00:00 2.78333 C 5.39 g/m*3 1.12 C 6.15833 km/h
488 23-11-2015 07:00:00 2.8 C 5.4 g/m*3 2.8 C 3.33333 km/h
489 23-11-2015 08:00:00 2.9 C 5.43 g/m*3 2.9 C 4.675 km/h
490 23-11-2015 09:00:00 3.05833 C 5.48 g/m*3 3.06 C 1.86667 km/h
491 23-11-2015 10:00:00 3.38333 C 5.53 g/m*3 3.38 C 2.93333 km/h
492 23-11-2015 11:00:00 3.825 C 5.58 g/m*3 3.83 C 2.93333 km/h
493 23-11-2015 12:00:00 4.50833 C 5.75 g/m*3 4.51 C 4.26667 km/h
494 23-11-2015 13:00:00 4.83333 C 5.69 g/m*3 3.76 C 5.34167 km/h
495 23-11-2015 14:00:00 4.15 C 5.59 g/m*3 4.15 C 1.06667 km/h
496 23-11-2015 15:00:00 3.45833 C 5.49 g/m*3 3.46 C 2.13333 km/h
497 23-11-2015 16:00:00 2.68333 C 5.3 g/m*3 2.68 C 4.4 km/h
498 23-11-2015 17:00:00 1.70833 C 5.08 g/m*3 1.71 C 1.60833 km/h
499 23-11-2015 18:00:00 1.3 C 4.99 g/m*3 1.3 C 0 km/h
500 23-11-2015 19:00:00 1.09167 C 4.96 g/m*3 1.09 C 0 km/h
Sensor: Nr:Datum:Temp:Abs-Feuchte:Windchill:Wind:
Aussen-T/F 501 23-11-2015 20:00:00 0.85 C 4.88 g/m*3 0.85 C 0.4 km/h
502 23-11-2015 21:00:00 0.875 C 4.89 g/m*3 0.88 C 0.26667 km/h
503 23-11-2015 22:00:00 0.81667 C 4.88 g/m*3 0.82 C 0.13333 km/h
504 23-11-2015 23:00:00 0.66667 C 4.86 g/m*3 0.67 C 0.26667 km/h
505 24-11-2015 00:00:00 0.75833 C 4.9 g/m*3 0.76 C 0.53333 km/h
506 24-11-2015 01:00:00 0.8 C 4.91 g/m*3 0.8 C 0 km/h
507 24-11-2015 02:00:00 0.65833 C 4.87 g/m*3 0.66 C 0.13333 km/h
508 24-11-2015 03:00:00 0.24167 C 4.73 g/m*3 0.24 C 0.4 km/h
509 24-11-2015 04:00:00 -0.18333 C 4.59 g/m*3 -0.18 C 0 km/h
510 24-11-2015 05:00:00 -0.05833 C 4.63 g/m*3 -0.06 C 0.4 km/h
511 24-11-2015 06:00:00 -0.09167 C 4.62 g/m*3 -0.09 C 0.53333 km/h
512 24-11-2015 07:00:00 -0.31667 C 4.55 g/m*3 -0.32 C 1.73333 km/h
513 24-11-2015 08:00:00 0.16667 C 4.71 g/m*3 0.17 C 4.14167 km/h
514 24-11-2015 09:00:00 0.99167 C 4.91 g/m*3 0.99 C 3.475 km/h
515 24-11-2015 10:00:00 1.95 C 5.06 g/m*3 1.95 C 1.2 km/h
516 24-11-2015 11:00:00 2.975 C 5.13 g/m*3 2.98 C 4.15 km/h
517 24-11-2015 12:00:00 3.625 C 5.16 g/m*3 1.36 C 8.59167 km/h
518 24-11-2015 13:00:00 3.71667 C 5.09 g/m*3 1.3 C 9.275 km/h
519 24-11-2015 14:00:00 3.90833 C 5.1 g/m*3 2.32 C 6.43333 km/h
520 24-11-2015 15:00:00 3.7 C 4.96 g/m*3 2.22 C 6.01667 km/h
521 24-11-2015 16:00:00 3.36667 C 4.91 g/m*3 1.83 C 6.03333 km/h
522 24-11-2015 17:00:00 3.15 C 4.9 g/m*3 3.15 C 4.825 km/h
523 24-11-2015 18:00:00 3.21667 C 4.94 g/m*3 1.47 C 6.575 km/h
524 24-11-2015 19:00:00 3.025 C 5.08 g/m*3 1.34 C 6.30833 km/h
525 24-11-2015 20:00:00 2.21667 C 5.19 g/m*3 2.22 C 2.13333 km/h
Sensor: Nr:Datum:Temp:Abs-Feuchte:Windchill:Wind:
Aussen-T/F 526 24-11-2015 21:00:00 2.3 C 5.26 g/m*3 0.46 C 6.43333 km/h
527 24-11-2015 22:00:00 2.45833 C 5.3 g/m*3 0.55 C 6.70833 km/h
528 24-11-2015 23:00:00 2.73333 C 5.34 g/m*3 -0.13 C 10.34167 km/h
529 25-11-2015 00:00:00 2.76667 C 5.37 g/m*3 -0.47 C 12.09167 km/h
530 25-11-2015 01:00:00 2.74167 C 5.43 g/m*3 -0.33 C 11.29167 km/h
531 25-11-2015 02:00:00 2.83333 C 5.46 g/m*3 -0.39 C 12.1 km/h
532 25-11-2015 03:00:00 2.85 C 5.51 g/m*3 0.63 C 7.925 km/h
533 25-11-2015 04:00:00 3.00833 C 5.59 g/m*3 1.23 C 6.575 km/h
534 25-11-2015 05:00:00 3.275 C 5.69 g/m*3 0.77 C 9.28333 km/h
535 25-11-2015 06:00:00 3.53333 C 5.76 g/m*3 0.63 C 11.28333 km/h
536 25-11-2015 07:00:00 3.79167 C 5.83 g/m*3 1.1 C 10.5 km/h
537 25-11-2015 08:00:00 4.03333 C 5.93 g/m*3 1.67 C 9.275 km/h
538 25-11-2015 09:00:00 4.35833 C 5.99 g/m*3 1.93 C 9.81667 km/h
539 25-11-2015 10:00:00 4.825 C 6.17 g/m*3 3.06 C 7.50833 km/h
540 25-11-2015 11:00:00 5.45833 C 6.34 g/m*3 3.63 C 8.18333 km/h
541 25-11-2015 12:00:00 6.31667 C 6.53 g/m*3 3.79 C 12.36667 km/h
542 25-11-2015 13:00:00 6.55 C 6.56 g/m*3 4.21 C 11.56667 km/h
543 25-11-2015 14:00:00 6.23333 C 6.53 g/m*3 4.6 C 7.925 km/h
544 25-11-2015 15:00:00 5.90833 C 6.4 g/m*3 4.76 C 6.01667 km/h
545 25-11-2015 16:00:00 5.5 C 6.36 g/m*3 5.5 C 2.8 km/h
546 25-11-2015 17:00:00 5.3 C 6.31 g/m*3 5.3 C 2.66667 km/h
547 25-11-2015 18:00:00 5.3 C 6.31 g/m*3 5.3 C 1.33333 km/h
548 25-11-2015 19:00:00 5.3 C 6.34 g/m*3 5.3 C 0.4 km/h
549 25-11-2015 20:00:00 5.2 C 6.35 g/m*3 5.2 C 1.6 km/h
550 25-11-2015 21:00:00 5.25 C 6.42 g/m*3 5.25 C 1.33333 km/h
Sensor: Nr:Datum:Temp:Abs-Feuchte:Windchill:Wind:
Aussen-T/F 551 25-11-2015 22:00:00 5.36667 C 6.47 g/m*3 5.37 C 0.66667 km/h
552 25-11-2015 23:00:00 5.575 C 6.48 g/m*3 5.58 C 4.14167 km/h
553 26-11-2015 00:00:00 5.6 C 6.46 g/m*3 5.6 C 3.46667 km/h
554 26-11-2015 01:00:00 5.325 C 6.41 g/m*3 5.33 C 2.54167 km/h
555 26-11-2015 02:00:00 5.31667 C 6.45 g/m*3 5.32 C 2.4 km/h
556 26-11-2015 03:00:00 5.4 C 6.45 g/m*3 5.4 C 2.675 km/h
557 26-11-2015 04:00:00 5.475 C 6.48 g/m*3 5.48 C 3.86667 km/h
558 26-11-2015 05:00:00 5.325 C 6.5 g/m*3 5.33 C 2.8 km/h
559 26-11-2015 06:00:00 5.3 C 6.52 g/m*3 5.3 C 3.06667 km/h
560 26-11-2015 07:00:00 5.18333 C 6.47 g/m*3 5.18 C 3.6 km/h
561 26-11-2015 08:00:00 5.075 C 6.42 g/m*3 5.08 C 2.4 km/h
562 26-11-2015 09:00:00 5.15 C 6.41 g/m*3 5.15 C 4.54167 km/h
563 26-11-2015 10:00:00 5.24167 C 6.41 g/m*3 4.23 C 5.35 km/h
564 26-11-2015 11:00:00 5.38333 C 6.41 g/m*3 3.71 C 7.525 km/h
565 26-11-2015 12:00:00 5.55 C 6.42 g/m*3 5.55 C 4.54167 km/h
566 26-11-2015 13:00:00 5.81667 C 6.42 g/m*3 5.82 C 3.86667 km/h
567 26-11-2015 14:00:00 6.25 C 6.39 g/m*3 6.25 C 1.2 km/h
568 26-11-2015 15:00:00 6.4 C 6.54 g/m*3 6.4 C 1.33333 km/h
569 26-11-2015 16:00:00 6 C 6.53 g/m*3 6 C 0.13333 km/h
570 26-11-2015 17:00:00 5.46667 C 6.48 g/m*3 5.47 C 0.26667 km/h
571 26-11-2015 18:00:00 4.70833 C 6.19 g/m*3 4.71 C 3.46667 km/h
572 26-11-2015 19:00:00 3.85 C 5.92 g/m*3 3.85 C 1.46667 km/h
573 26-11-2015 20:00:00 3.50833 C 5.83 g/m*3 3.51 C 0.26667 km/h
574 26-11-2015 21:00:00 2.60833 C 5.5 g/m*3 2.61 C 0.4 km/h
575 26-11-2015 22:00:00 1.85 C 5.24 g/m*3 1.85 C 0 km/h
Sensor: Nr:Datum:Temp:Abs-Feuchte:Windchill:Wind:
Aussen-T/F 576 26-11-2015 23:00:00 2.35833 C 5.47 g/m*3 2.36 C 1.2 km/h
577 27-11-2015 00:00:00 2.6 C 5.56 g/m*3 2.6 C 1.2 km/h
578 27-11-2015 01:00:00 2.41667 C 5.49 g/m*3 2.42 C 2.66667 km/h
579 27-11-2015 02:00:00 2.09167 C 5.37 g/m*3 2.09 C 0.93333 km/h
580 27-11-2015 03:00:00 1.56667 C 5.18 g/m*3 1.57 C 4.26667 km/h
581 27-11-2015 04:00:00 1.2 C 5.09 g/m*3 1.2 C 1.06667 km/h
582 27-11-2015 05:00:00 1.09167 C 5.07 g/m*3 1.09 C 0.8 km/h
583 27-11-2015 06:00:00 1.21667 C 5.11 g/m*3 1.22 C 0.13333 km/h
584 27-11-2015 07:00:00 1.525 C 5.22 g/m*3 1.53 C 1.73333 km/h
585 27-11-2015 08:00:00 1.675 C 5.27 g/m*3 1.68 C 1.6 km/h
586 27-11-2015 09:00:00 1.70833 C 5.28 g/m*3 1.71 C 4.26667 km/h
587 27-11-2015 10:00:00 1.66667 C 5.27 g/m*3 -0.12 C 6.01667 km/h
588 27-11-2015 11:00:00 1.875 C 5.34 g/m*3 1.88 C 3.2 km/h
589 27-11-2015 12:00:00 2.48333 C 5.55 g/m*3 2.48 C 1.2 km/h
590 27-11-2015 13:00:00 3.11667 C 5.74 g/m*3 3.12 C 1.46667 km/h
591 27-11-2015 14:00:00 3.825 C 5.91 g/m*3 3.83 C 2.53333 km/h
592 27-11-2015 15:00:00 4.025 C 5.91 g/m*3 2.95 C 5.075 km/h
593 27-11-2015 16:00:00 3.63333 C 5.77 g/m*3 3.63 C 2.66667 km/h
594 27-11-2015 17:00:00 3.23333 C 5.65 g/m*3 3.23 C 0.66667 km/h
595 27-11-2015 18:00:00 2.98333 C 5.49 g/m*3 2.98 C 2.8 km/h
596 27-11-2015 19:00:00 2.71667 C 5.32 g/m*3 2.72 C 0.93333 km/h
597 27-11-2015 20:00:00 2.325 C 5.22 g/m*3 2.33 C 0.53333 km/h
598 27-11-2015 21:00:00 2.06667 C 5.06 g/m*3 2.07 C 2.26667 km/h
599 27-11-2015 22:00:00 1.71667 C 4.96 g/m*3 1.72 C 0.53333 km/h
600 27-11-2015 23:00:00 0.83333 C 4.74 g/m*3 0.83 C 1.6 km/h
Sensor: Nr:Datum:Temp:Abs-Feuchte:Windchill:Wind:
Aussen-T/F 601 28-11-2015 00:00:00 0.81667 C 4.84 g/m*3 0.82 C 0.13333 km/h
602 28-11-2015 01:00:00 1.68333 C 5.04 g/m*3 1.68 C 3.625 km/h
603 28-11-2015 02:00:00 2.15 C 5.2 g/m*3 2.15 C 1.46667 km/h
604 28-11-2015 03:00:00 2.49167 C 5.27 g/m*3 2.49 C 3.74167 km/h
605 28-11-2015 04:00:00 3.10833 C 5.39 g/m*3 3.11 C 1.86667 km/h
606 28-11-2015 05:00:00 3.275 C 5.46 g/m*3 -0.25 C 14.225 km/h
607 28-11-2015 06:00:00 3.16667 C 5.54 g/m*3 -0.87 C 17.3 km/h
608 28-11-2015 07:00:00 3.275 C 5.63 g/m*3 -0.15 C 13.7 km/h
609 28-11-2015 08:00:00 3.68333 C 5.84 g/m*3 1.13 C 9.81667 km/h
610 28-11-2015 09:00:00 4.46364 C 6.23 g/m*3 3.01 C 6.28182 km/h
611 28-11-2015 10:00:00 5 C 6.43 g/m*3 3.39 C 7.08 km/h
612 28-11-2015 11:00:00 5.35833 C 6.38 g/m*3 3.44 C 8.45 km/h
613 28-11-2015 12:00:00 5.975 C 5.92 g/m*3 3.11 C 13.96667 km/h
614 28-11-2015 13:00:00 6.4 C 5.59 g/m*3 3.8 C 12.9 km/h
615 28-11-2015 14:00:00 6.36667 C 5.45 g/m*3 3.87 C 12.23333 km/h
616 28-11-2015 15:00:00 5.91667 C 5.46 g/m*3 3.6 C 10.74167 km/h
617 28-11-2015 16:00:00 5.03333 C 5.34 g/m*3 3.27 C 7.65 km/h
618 28-11-2015 17:00:00 4.28333 C 5.32 g/m*3 2.63 C 6.825 km/h
619 28-11-2015 18:00:00 4.50833 C 5.38 g/m*3 2.08 C 9.95833 km/h
620 28-11-2015 19:00:00 4.85 C 5.44 g/m*3 3.09 C 7.51667 km/h
621 28-11-2015 20:00:00 5.625 C 5.68 g/m*3 2.5 C 15.15833 km/h
622 28-11-2015 21:00:00 6.15833 C 5.91 g/m*3 2.86 C 17.3 km/h
623 28-11-2015 22:00:00 6.35 C 6 g/m*3 2.77 C 19.98333 km/h
624 28-11-2015 23:00:00 6.675 C 6 g/m*3 2.87 C 22.925 km/h
625 29-11-2015 00:00:00 6.88333 C 6.07 g/m*3 3.11 C 23.2 km/h
Sensor: Nr:Datum:Temp:Abs-Feuchte:Windchill:Wind:
Aussen-T/F 626 29-11-2015 01:00:00 6.93333 C 6.14 g/m*3 3.15 C 23.45833 km/h
627 29-11-2015 02:00:00 6.675 C 6.38 g/m*3 2.46 C 27.35833 km/h
628 29-11-2015 03:00:00 6.3 C 6.47 g/m*3 2.17 C 25.2 km/h
629 29-11-2015 04:00:00 6.375 C 6.58 g/m*3 2.24 C 25.46667 km/h
630 29-11-2015 05:00:00 6.66667 C 6.7 g/m*3 2.86 C 22.91667 km/h
631 29-11-2015 06:00:00 7.275 C 6.94 g/m*3 3.68 C 22.50833 km/h
632 29-11-2015 07:00:00 7.58333 C 7.08 g/m*3 4.4 C 19.3 km/h
633 29-11-2015 08:00:00 7.91667 C 7.26 g/m*3 4.88 C 18.76667 km/h
634 29-11-2015 09:00:00 8.375 C 7.54 g/m*3 5.43 C 19.04167 km/h
635 29-11-2015 10:00:00 9.05 C 7.81 g/m*3 6.47 C 17.3 km/h
636 29-11-2015 11:00:00 9.64167 C 8.04 g/m*3 7.26 C 16.76667 km/h
637 29-11-2015 12:00:00 10.425 C 8.24 g/m*3 8.39 C 15.43333 km/h
638 29-11-2015 13:00:00 10.55833 C 8.4 g/m*3 8.25 C 18.23333 km/h
639 29-11-2015 14:00:00 10.29167 C 8.53 g/m*3 7.72 C 20.24167 km/h
640 29-11-2015 15:00:00 10.45 C 8.64 g/m*3 7.81 C 21.44167 km/h
641 29-11-2015 16:00:00 10.63333 C 8.6 g/m*3 8.34 C 18.23333 km/h
642 29-11-2015 17:00:00 10.65 C 8.48 g/m*3 7.94 C 22.91667 km/h
643 29-11-2015 18:00:00 10.81667 C 8.35 g/m*3 8.4 C 20.10833 km/h
644 29-11-2015 19:00:00 10.73333 C 8.4 g/m*3 8.17 C 21.45 km/h
645 29-11-2015 20:00:00 10.73333 C 8.43 g/m*3 7.87 C 25.2 km/h
646 29-11-2015 21:00:00 11.15 C 8.49 g/m*3 11.15 C 23.875 km/h
647 29-11-2015 22:00:00 11.125 C 8.47 g/m*3 11.13 C 25.325 km/h
648 29-11-2015 23:00:00 11.26667 C 8.3 g/m*3 11.27 C 26.675 km/h
649 30-11-2015 00:00:00 11.18333 C 8.35 g/m*3 11.18 C 23.99167 km/h
650 30-11-2015 01:00:00 10.94167 C 8.39 g/m*3 8.3 C 23.075 km/h
Sensor: Nr:Datum:Temp:Abs-Feuchte:Windchill:Wind:
Aussen-T/F 651 30-11-2015 02:00:00 10.80833 C 8.41 g/m*3 8.51 C 18.76667 km/h
652 30-11-2015 03:00:00 10.55 C 8.46 g/m*3 8.62 C 14.76667 km/h
653 30-11-2015 04:00:00 8.78333 C 7.96 g/m*3 7.34 C 9.14167 km/h
654 30-11-2015 05:00:00 7.84167 C 7.67 g/m*3 6.76 C 6.84167 km/h
655 30-11-2015 06:00:00 7.75 C 7.65 g/m*3 7.04 C 5.48333 km/h
656 30-11-2015 07:00:00 7.66667 C 7.67 g/m*3 7.67 C 2 km/h
657 30-11-2015 08:00:00 7.775 C 7.79 g/m*3 7.78 C 1.46667 km/h
658 30-11-2015 09:00:00 8.1 C 7.99 g/m*3 8.1 C 0.93333 km/h
659 30-11-2015 10:00:00 8.68333 C 8.32 g/m*3 8.68 C 1.33333 km/h
660 30-11-2015 11:00:00 9.20833 C 8.6 g/m*3 8.55 C 6.05 km/h
661 30-11-2015 12:00:00 9.975 C 8.91 g/m*3 7.8 C 15.7 km/h
662 30-11-2015 13:00:00 10.31667 C 8.91 g/m*3 8.09 C 16.9 km/h
663 30-11-2015 14:00:00 10.40833 C 8.8 g/m*3 7.84 C 20.50833 km/h
664 30-11-2015 15:00:00 10.6 C 8.74 g/m*3 8.2 C 19.3 km/h
665 30-11-2015 16:00:00 10.54167 C 8.67 g/m*3 8.14 C 19.16667 km/h
666 30-11-2015 17:00:00 10.425 C 8.66 g/m*3 8.04 C 18.64167 km/h
667 30-11-2015 18:00:00 10.95833 C 8.65 g/m*3 8.51 C 20.9 km/h
668 30-11-2015 19:00:00 11.14167 C 8.65 g/m*3 11.14 C 23.99167 km/h
669 30-11-2015 20:00:00 11.00833 C 8.67 g/m*3 11.01 C 21.84167 km/h
670 30-11-2015 21:00:00 10.80833 C 8.79 g/m*3 7.92 C 25.86667 km/h
671 30-11-2015 22:00:00 10.925 C 8.77 g/m*3 8.08 C 25.725 km/h
672 30-11-2015 23:00:00 11.08333 C 8.77 g/m*3 11.08 C 27.21667 km/h
673 01-12-2015 00:00:00 11.15 C 8.85 g/m*3 11.15 C 22.90833 km/h
674 01-12-2015 01:00:00 11.125 C 8.98 g/m*3 11.13 C 20.775 km/h
675 01-12-2015 02:00:00 11.01667 C 9.04 g/m*3 11.02 C 23.30833 km/h
Sensor: Nr:Datum:Temp:Abs-Feuchte:Windchill:Wind:
Aussen-T/F 676 01-12-2015 03:00:00 11.15833 C 9.12 g/m*3 11.16 C 18.50833 km/h
677 01-12-2015 04:00:00 11.24167 C 9.16 g/m*3 11.24 C 18.23333 km/h
678 01-12-2015 05:00:00 10.9 C 9.11 g/m*3 9.08 C 14.5 km/h
679 01-12-2015 06:00:00 10.76667 C 9.12 g/m*3 9.1 C 13.03333 km/h
680 01-12-2015 07:00:00 10.51667 C 9.13 g/m*3 9.95 C 6.45 km/h
681 01-12-2015 08:00:00 10.33333 C 9.14 g/m*3 10.33 C 2.8 km/h
682 01-12-2015 09:00:00 10.28333 C 9.18 g/m*3 10.28 C 0.26667 km/h
683 01-12-2015 10:00:00 10.00833 C 9.03 g/m*3 10.01 C 0.4 km/h
684 01-12-2015 11:00:00 9.725 C 8.86 g/m*3 9.73 C 0.4 km/h
685 01-12-2015 12:00:00 9.93333 C 9.04 g/m*3 9.93 C 2.13333 km/h
686 01-12-2015 13:00:00 11.225 C 9.85 g/m*3 11.23 C 7.93333 km/h
687 01-12-2015 14:00:00 12.05 C 10.16 g/m*3 12.05 C 10.89167 km/h
688 01-12-2015 15:00:00 12.24167 C 10.07 g/m*3 12.24 C 9.95833 km/h
689 01-12-2015 16:00:00 12.125 C 9.99 g/m*3 12.13 C 10.75833 km/h
690 01-12-2015 17:00:00 12.14167 C 9.92 g/m*3 12.14 C 12.63333 km/h
691 01-12-2015 18:00:00 12.325 C 9.86 g/m*3 12.33 C 13.03333 km/h
692 01-12-2015 19:00:00 12.28333 C 9.76 g/m*3 12.28 C 11.29167 km/h
693 01-12-2015 20:00:00 12.11667 C 9.66 g/m*3 12.12 C 8.60833 km/h
694 01-12-2015 21:00:00 11.975 C 9.6 g/m*3 11.98 C 8.45833 km/h
695 01-12-2015 22:00:00 11.725 C 9.53 g/m*3 11.73 C 10.63333 km/h
696 01-12-2015 23:00:00 11.54167 C 9.43 g/m*3 11.54 C 5.63333 km/h
697 02-12-2015 00:00:00 11.16667 C 9.32 g/m*3 11.17 C 5.225 km/h
698 02-12-2015 01:00:00 10.95833 C 9.12 g/m*3 10.96 C 2.4 km/h
699 02-12-2015 02:00:00 10.625 C 8.91 g/m*3 10.63 C 2.13333 km/h
700 02-12-2015 03:00:00 10.4 C 8.77 g/m*3 10.4 C 2.8 km/h
Sensor: Nr:Datum:Temp:Abs-Feuchte:Windchill:Wind:
Aussen-T/F 701 02-12-2015 04:00:00 10.59167 C 8.69 g/m*3 10.59 C 1.46667 km/h
702 02-12-2015 05:00:00 10.25 C 8.81 g/m*3 10.25 C 0.13333 km/h
703 02-12-2015 06:00:00 9.96667 C 8.6 g/m*3 9.97 C 2.81667 km/h
704 02-12-2015 07:00:00 9.8 C 8.4 g/m*3 9.8 C 1.6 km/h
705 02-12-2015 08:00:00 9.60833 C 8.16 g/m*3 9.61 C 2.53333 km/h
706 02-12-2015 09:00:00 9.69167 C 8.09 g/m*3 9.69 C 0.66667 km/h
707 02-12-2015 10:00:00 9.98333 C 8.39 g/m*3 9.98 C 0.53333 km/h
708 02-12-2015 11:00:00 10.44167 C 8.29 g/m*3 10.44 C 0.93333 km/h
709 02-12-2015 12:00:00 10.61667 C 8.35 g/m*3 10.62 C 2.66667 km/h
710 02-12-2015 13:00:00 10.68333 C 8.12 g/m*3 10.43 C 5.34167 km/h
711 02-12-2015 14:00:00 10.475 C 8.03 g/m*3 10.48 C 2.4 km/h
712 02-12-2015 15:00:00 10.075 C 8.02 g/m*3 10.07 C 0.26667 km/h
713 02-12-2015 16:00:00 9.43333 C 7.9 g/m*3 9.43 C 0.4 km/h
714 02-12-2015 17:00:00 9.09167 C 7.78 g/m*3 9.09 C 0.66667 km/h
715 02-12-2015 18:00:00 9.01667 C 7.63 g/m*3 9.02 C 1.73333 km/h
716 02-12-2015 19:00:00 8.90833 C 7.54 g/m*3 8.91 C 2 km/h
717 02-12-2015 20:00:00 8.825 C 7.56 g/m*3 8.82 C 0.8 km/h
718 02-12-2015 21:00:00 8.61667 C 7.56 g/m*3 8.62 C 0.66667 km/h
719 02-12-2015 22:00:00 8.80833 C 7.26 g/m*3 8.81 C 3.06667 km/h
720 02-12-2015 23:00:00 8.54167 C 7.5 g/m*3 8.54 C 0 km/h
721 03-12-2015 00:00:00 8.21667 C 7.48 g/m*3 8.22 C 0 km/h
722 03-12-2015 01:00:00 8.08333 C 7.47 g/m*3 8.08 C 0 km/h
723 03-12-2015 02:00:00 7.9 C 7.37 g/m*3 7.9 C 0 km/h
724 03-12-2015 03:00:00 7.80833 C 7.27 g/m*3 7.81 C 0.66667 km/h
725 03-12-2015 04:00:00 7.75833 C 7.28 g/m*3 7.76 C 0 km/h
Sensor: Nr:Datum:Temp:Abs-Feuchte:Windchill:Wind:
Aussen-T/F 726 03-12-2015 05:00:00 7.71667 C 7.19 g/m*3 7.72 C 1.6 km/h
727 03-12-2015 06:00:00 7.89167 C 7.05 g/m*3 7.89 C 1.86667 km/h
728 03-12-2015 07:00:00 7.69167 C 7.14 g/m*3 7.69 C 0 km/h
729 03-12-2015 08:00:00 7.6 C 7.06 g/m*3 7.6 C 0.13333 km/h
730 03-12-2015 09:00:00 8.05833 C 7.03 g/m*3 8.06 C 0.66667 km/h
731 03-12-2015 10:00:00 8.65 C 7.17 g/m*3 8.65 C 0.4 km/h
732 03-12-2015 11:00:00 9.475 C 7.16 g/m*3 9.48 C 3.875 km/h
733 03-12-2015 12:00:00 10.075 C 7.15 g/m*3 10.07 C 4 km/h
734 03-12-2015 13:00:00 10.38333 C 7.15 g/m*3 10.38 C 3.2 km/h
735 03-12-2015 14:00:00 10.48333 C 7.03 g/m*3 10.48 C 2.66667 km/h
736 03-12-2015 15:00:00 9.58333 C 6.95 g/m*3 9.58 C 3.20833 km/h
737 03-12-2015 16:00:00 7.35833 C 6.75 g/m*3 7.36 C 3.6 km/h
738 03-12-2015 17:00:00 6.06 C 6.47 g/m*3 6.06 C 4.16 km/h
739 03-12-2015 18:00:00 5.79167 C 6.47 g/m*3 5.79 C 3.6 km/h
740 03-12-2015 19:00:00 5.4 C 6.38 g/m*3 5.4 C 0.93333 km/h
741 03-12-2015 20:00:00 5.11667 C 6.32 g/m*3 5.12 C 0.93333 km/h
742 03-12-2015 21:00:00 4.73333 C 6.22 g/m*3 4.73 C 1.46667 km/h
743 03-12-2015 22:00:00 4.75 C 6.28 g/m*3 4.75 C 1.73333 km/h
744 03-12-2015 23:00:00 4.525 C 6.22 g/m*3 4.53 C 0.26667 km/h
745 04-12-2015 00:00:00 4.56667 C 6.27 g/m*3 4.57 C 0.4 km/h
746 04-12-2015 01:00:00 4.55 C 6.27 g/m*3 4.55 C 1.875 km/h
747 04-12-2015 02:00:00 4.85833 C 6.35 g/m*3 4.86 C 1.33333 km/h
748 04-12-2015 03:00:00 6.14167 C 6.48 g/m*3 6.14 C 4.55 km/h
749 04-12-2015 04:00:00 6.75833 C 6.46 g/m*3 6.76 C 3.35 km/h
750 04-12-2015 05:00:00 6.69167 C 6.46 g/m*3 6.69 C 3.74167 km/h
Sensor: Nr:Datum:Temp:Abs-Feuchte:Windchill:Wind:
Aussen-T/F 751 04-12-2015 06:00:00 7.45 C 6.58 g/m*3 5.37 C 11.14167 km/h
752 04-12-2015 07:00:00 7.85 C 6.89 g/m*3 4.72 C 19.45 km/h
753 04-12-2015 08:00:00 7.43333 C 7.19 g/m*3 4.52 C 16.76667 km/h
754 04-12-2015 09:00:00 7.6 C 7.47 g/m*3 5.35 C 12.36667 km/h
755 04-12-2015 10:00:00 7.78333 C 7.66 g/m*3 5.39 C 13.55833 km/h
756 04-12-2015 11:00:00 8.34167 C 7.87 g/m*3 6.15 C 13.03333 km/h
757 04-12-2015 12:00:00 8.9 C 8.05 g/m*3 7.07 C 11.425 km/h
758 04-12-2015 13:00:00 9.35 C 8.2 g/m*3 8.06 C 8.875 km/h
759 04-12-2015 14:00:00 9.225 C 8.14 g/m*3 8.69 C 5.61667 km/h
760 04-12-2015 15:00:00 8.8 C 8.06 g/m*3 8.8 C 2.53333 km/h
761 04-12-2015 16:00:00 8.775 C 8.13 g/m*3 8.78 C 1.86667 km/h
762 04-12-2015 17:00:00 7.325 C 7.41 g/m*3 7.33 C 3.2 km/h
763 04-12-2015 18:00:00 6.275 C 7 g/m*3 6.28 C 3.06667 km/h
764 04-12-2015 19:00:00 5.81667 C 6.81 g/m*3 5.82 C 4.13333 km/h
765 04-12-2015 20:00:00 5.86667 C 6.74 g/m*3 5.87 C 4.275 km/h
766 04-12-2015 21:00:00 5.40833 C 6.52 g/m*3 5.41 C 4.28333 km/h
767 04-12-2015 22:00:00 5.25833 C 6.5 g/m*3 5.26 C 4.95 km/h
768 04-12-2015 23:00:00 5.375 C 6.56 g/m*3 5.38 C 4.68333 km/h
769 05-12-2015 00:00:00 5.93333 C 6.77 g/m*3 5.93 C 4.275 km/h
770 05-12-2015 01:00:00 6.125 C 6.78 g/m*3 4.54 C 7.65833 km/h
771 05-12-2015 02:00:00 5.81667 C 6.6 g/m*3 4.83 C 5.49167 km/h
772 05-12-2015 03:00:00 5.95 C 6.69 g/m*3 4.89 C 5.775 km/h
773 05-12-2015 04:00:00 5.51667 C 6.47 g/m*3 5.52 C 2.675 km/h
774 05-12-2015 05:00:00 5.58333 C 6.55 g/m*3 4.14 C 6.84167 km/h
775 05-12-2015 06:00:00 6 C 6.64 g/m*3 3.92 C 9.69167 km/h
Sensor: Nr:Datum:Temp:Abs-Feuchte:Windchill:Wind:
Aussen-T/F 776 05-12-2015 07:00:00 6.04167 C 6.59 g/m*3 3.65 C 11.28333 km/h
777 05-12-2015 08:00:00 6.18333 C 6.61 g/m*3 4.54 C 7.93333 km/h
778 05-12-2015 09:00:00 6.28333 C 6.66 g/m*3 4.59 C 8.2 km/h
779 05-12-2015 10:00:00 6.85833 C 6.72 g/m*3 3.96 C 15.56667 km/h
780 05-12-2015 11:00:00 7.625 C 6.87 g/m*3 4.58 C 18.23333 km/h
781 05-12-2015 12:00:00 8.20833 C 7.02 g/m*3 5.53 C 16.36667 km/h
782 05-12-2015 13:00:00 8.63333 C 7.1 g/m*3 6.28 C 14.63333 km/h
783 05-12-2015 14:00:00 8.70833 C 6.94 g/m*3 6.57 C 13.16667 km/h
784 05-12-2015 15:00:00 8.20833 C 6.79 g/m*3 6.53 C 9.81667 km/h
785 05-12-2015 16:00:00 6.83333 C 6.51 g/m*3 6.83 C 4.15833 km/h
786 05-12-2015 17:00:00 5.225 C 6.21 g/m*3 5.23 C 1.86667 km/h
787 05-12-2015 18:00:00 4.8 C 6.23 g/m*3 4.8 C 2 km/h
788 05-12-2015 19:00:00 4.925 C 6.22 g/m*3 4.93 C 3.06667 km/h
789 05-12-2015 20:00:00 4.175 C 5.98 g/m*3 4.18 C 3.6 km/h
790 05-12-2015 21:00:00 3.975 C 5.97 g/m*3 3.98 C 4.13333 km/h
791 05-12-2015 22:00:00 3.76667 C 5.88 g/m*3 3.77 C 1.6 km/h
792 05-12-2015 23:00:00 4.04167 C 6.07 g/m*3 4.04 C 3.2 km/h
793 06-12-2015 00:00:00 5.75833 C 6.59 g/m*3 3.98 C 8.19167 km/h
794 06-12-2015 01:00:00 5.84167 C 6.51 g/m*3 4.78 C 5.74167 km/h
795 06-12-2015 02:00:00 6.04167 C 6.54 g/m*3 6.04 C 4.00833 km/h
796 06-12-2015 03:00:00 5.38333 C 6.35 g/m*3 5.38 C 4 km/h
797 06-12-2015 04:00:00 4.85 C 6.22 g/m*3 4.85 C 3.73333 km/h
798 06-12-2015 05:00:00 5.09167 C 6.31 g/m*3 4.05 C 5.35833 km/h
799 06-12-2015 06:00:00 7.175 C 6.87 g/m*3 5.06 C 11.03333 km/h
800 06-12-2015 07:00:00 8.01667 C 7.07 g/m*3 6.96 C 6.85833 km/h
Sensor: Nr:Datum:Temp:Abs-Feuchte:Windchill:Wind:
Aussen-T/F 801 06-12-2015 08:00:00 8.69167 C 7.44 g/m*3 7.61 C 7.38333 km/h
802 06-12-2015 09:00:00 9.35 C 7.71 g/m*3 7.99 C 9.275 km/h
803 06-12-2015 10:00:00 9.675 C 7.73 g/m*3 8.07 C 11.01667 km/h
804 06-12-2015 11:00:00 9.90833 C 7.77 g/m*3 8.58 C 9.69167 km/h
805 06-12-2015 12:00:00 10.19167 C 7.91 g/m*3 8.87 C 9.94167 km/h
806 06-12-2015 13:00:00 10.30833 C 7.83 g/m*3 8.42 C 13.96667 km/h
807 06-12-2015 14:00:00 10.26667 C 7.65 g/m*3 8.37 C 13.96667 km/h
808 06-12-2015 15:00:00 10.25833 C 7.63 g/m*3 8.41 C 13.55 km/h
809 06-12-2015 16:00:00 9.94167 C 7.78 g/m*3 9.94 C 3.33333 km/h
810 06-12-2015 17:00:00 9.925 C 7.77 g/m*3 9.93 C 4.55833 km/h
811 06-12-2015 18:00:00 10.24167 C 7.97 g/m*3 8.7 C 11.40833 km/h
812 06-12-2015 19:00:00 10.06667 C 8.11 g/m*3 8.48 C 11.425 km/h
813 06-12-2015 20:00:00 9.43333 C 7.98 g/m*3 9.43 C 4.94167 km/h
814 06-12-2015 21:00:00 8.65833 C 7.8 g/m*3 8.66 C 4 km/h
815 06-12-2015 22:00:00 8.55 C 7.94 g/m*3 8.55 C 2 km/h
816 06-12-2015 23:00:00 9.14167 C 8.16 g/m*3 9.14 C 2.8 km/h
817 07-12-2015 00:00:00 9.15 C 8.06 g/m*3 9.15 C 4.275 km/h
818 07-12-2015 01:00:00 9.04167 C 7.93 g/m*3 9.04 C 2.675 km/h
819 07-12-2015 02:00:00 8.80833 C 7.91 g/m*3 8.81 C 0.66667 km/h
820 07-12-2015 03:00:00 8.65 C 7.93 g/m*3 8.65 C 0.26667 km/h
821 07-12-2015 04:00:00 8.3 C 7.8 g/m*3 8.3 C 0.8 km/h
822 07-12-2015 05:00:00 8.40833 C 7.91 g/m*3 8.41 C 0.26667 km/h
823 07-12-2015 06:00:00 8.5 C 7.92 g/m*3 8.5 C 0.8 km/h
824 07-12-2015 07:00:00 8.04167 C 7.71 g/m*3 8.04 C 0 km/h
825 07-12-2015 08:00:00 7.63333 C 7.58 g/m*3 7.63 C 0 km/h
Sensor: Nr:Datum:Temp:Abs-Feuchte:Windchill:Wind:
Aussen-T/F 826 07-12-2015 09:00:00 7.35 C 7.48 g/m*3 7.35 C 0 km/h
827 07-12-2015 10:00:00 7.5 C 7.63 g/m*3 7.5 C 0 km/h
828 07-12-2015 11:00:00 8.80833 C 8.29 g/m*3 8.81 C 0.8 km/h
829 07-12-2015 12:00:00 9.25 C 8.32 g/m*3 9.25 C 4.26667 km/h
830 07-12-2015 13:00:00 9.925 C 8.6 g/m*3 9.93 C 4.66667 km/h
831 07-12-2015 14:00:00 10.50833 C 8.81 g/m*3 10.51 C 4.8 km/h
832 07-12-2015 15:00:00 10.66667 C 8.81 g/m*3 10.45 C 5.2 km/h
833 07-12-2015 16:00:00 10.86667 C 8.63 g/m*3 10.71 C 5.08333 km/h
834 07-12-2015 17:00:00 9.275 C 8.07 g/m*3 9.28 C 4 km/h
835 07-12-2015 18:00:00 8.18333 C 7.81 g/m*3 8.18 C 2.8 km/h
836 07-12-2015 19:00:00 7.59167 C 7.59 g/m*3 7.59 C 0.26667 km/h
837 07-12-2015 20:00:00 7.49167 C 7.6 g/m*3 7.49 C 2.53333 km/h
838 07-12-2015 21:00:00 6.575 C 7.16 g/m*3 6.58 C 0.66667 km/h
839 07-12-2015 22:00:00 5.375 C 6.63 g/m*3 5.38 C 0.26667 km/h
840 07-12-2015 23:00:00 4.70833 C 6.39 g/m*3 4.71 C 0 km/h
841 08-12-2015 00:00:00 3.89167 C 6.06 g/m*3 3.89 C 0 km/h
842 08-12-2015 01:00:00 3.55 C 5.93 g/m*3 3.55 C 0 km/h
843 08-12-2015 02:00:00 3.26667 C 5.83 g/m*3 3.27 C 0.13333 km/h
844 08-12-2015 03:00:00 2.93333 C 5.73 g/m*3 2.93 C 0 km/h
845 08-12-2015 04:00:00 2.95833 C 5.75 g/m*3 2.96 C 0 km/h
846 08-12-2015 05:00:00 2.54167 C 5.59 g/m*3 2.54 C 0 km/h
847 08-12-2015 06:00:00 2.33333 C 5.51 g/m*3 2.33 C 0.53333 km/h
848 08-12-2015 07:00:00 2.775 C 5.68 g/m*3 2.78 C 0 km/h
849 08-12-2015 08:00:00 2.70833 C 5.65 g/m*3 2.71 C 0.66667 km/h
850 08-12-2015 09:00:00 2.4 C 5.54 g/m*3 2.4 C 0.93333 km/h
Sensor: Nr:Datum:Temp:Abs-Feuchte:Windchill:Wind:
Aussen-T/F 851 08-12-2015 10:00:00 2.725 C 5.67 g/m*3 2.73 C 0 km/h
852 08-12-2015 11:00:00 3.90833 C 6.18 g/m*3 3.91 C 0.26667 km/h
853 08-12-2015 12:00:00 4.94167 C 6.63 g/m*3 4.94 C 0.26667 km/h
854 08-12-2015 13:00:00 5.14167 C 6.72 g/m*3 5.14 C 0.8 km/h
855 08-12-2015 14:00:00 6.76667 C 7.48 g/m*3 6.77 C 1.73333 km/h
856 08-12-2015 15:00:00 7.74167 C 7.97 g/m*3 7.74 C 4 km/h
857 08-12-2015 16:00:00 7.30833 C 7.74 g/m*3 7.31 C 4.8 km/h
858 08-12-2015 17:00:00 6.64167 C 7.38 g/m*3 6.64 C 2.66667 km/h
859 08-12-2015 18:00:00 5.70833 C 6.91 g/m*3 5.71 C 1.2 km/h
860 08-12-2015 19:00:00 5.41667 C 6.79 g/m*3 5.42 C 0.93333 km/h
861 08-12-2015 20:00:00 5.39167 C 6.78 g/m*3 5.39 C 0.4 km/h
862 08-12-2015 21:00:00 5.38333 C 6.77 g/m*3 5.38 C 0.26667 km/h
863 08-12-2015 22:00:00 5.84167 C 7.01 g/m*3 5.84 C 0.26667 km/h
864 08-12-2015 23:00:00 5.96667 C 7.08 g/m*3 5.97 C 0.53333 km/h
865 09-12-2015 00:00:00 6.225 C 7.22 g/m*3 6.23 C 0.13333 km/h
866 09-12-2015 01:00:00 8.15833 C 8.19 g/m*3 8.16 C 4.425 km/h
867 09-12-2015 02:00:00 7.88333 C 8.04 g/m*3 7.88 C 3.46667 km/h
868 09-12-2015 03:00:00 7.88333 C 8.04 g/m*3 7.88 C 4.14167 km/h
869 09-12-2015 04:00:00 7.40833 C 7.76 g/m*3 7.41 C 3.73333 km/h
870 09-12-2015 05:00:00 6.96667 C 7.53 g/m*3 6.97 C 1.46667 km/h
871 09-12-2015 06:00:00 6.85833 C 7.51 g/m*3 6.86 C 2.13333 km/h
872 09-12-2015 07:00:00 7.14167 C 7.66 g/m*3 7.14 C 2.53333 km/h
873 09-12-2015 08:00:00 6.78333 C 7.44 g/m*3 6.78 C 1.6 km/h
874 09-12-2015 09:00:00 6.34167 C 7.2 g/m*3 6.34 C 1.6 km/h
875 09-12-2015 10:00:00 6.55833 C 7.3 g/m*3 6.56 C 2.4 km/h
Sensor: Nr:Datum:Temp:Abs-Feuchte:Windchill:Wind:
Aussen-T/F 876 09-12-2015 11:00:00 7.375 C 7.68 g/m*3 7.38 C 2.53333 km/h
877 09-12-2015 12:00:00 8.05833 C 7.52 g/m*3 7.31 C 5.775 km/h
878 09-12-2015 13:00:00 9.00833 C 7.55 g/m*3 9.01 C 2.93333 km/h
879 09-12-2015 14:00:00 8.96667 C 7.71 g/m*3 8.97 C 2 km/h
880 09-12-2015 15:00:00 8.29167 C 7.4 g/m*3 8.29 C 2.66667 km/h
881 09-12-2015 16:00:00 6.99167 C 6.87 g/m*3 6.99 C 4.53333 km/h
882 09-12-2015 17:00:00 5.59167 C 6.55 g/m*3 5.59 C 4.4 km/h
883 09-12-2015 18:00:00 4.75 C 6.27 g/m*3 4.75 C 2.4 km/h
884 09-12-2015 19:00:00 4.075 C 6.05 g/m*3 4.08 C 2.14167 km/h
885 09-12-2015 20:00:00 3.53333 C 5.87 g/m*3 3.53 C 1.46667 km/h
886 09-12-2015 21:00:00 3.69167 C 5.98 g/m*3 3.69 C 4.14167 km/h
887 09-12-2015 22:00:00 4.23333 C 6.2 g/m*3 2.57 C 6.83333 km/h
888 09-12-2015 23:00:00 5.2 C 6.47 g/m*3 2.63 C 11.3 km/h
889 10-12-2015 00:00:00 5.45 C 6.44 g/m*3 3.75 C 7.65833 km/h
890 10-12-2015 01:00:00 5.69167 C 6.51 g/m*3 5.69 C 3.74167 km/h
891 10-12-2015 02:00:00 5.95 C 6.52 g/m*3 5.95 C 3.73333 km/h
892 10-12-2015 03:00:00 6.11667 C 6.58 g/m*3 6.12 C 2.4 km/h
893 10-12-2015 04:00:00 6.00833 C 6.48 g/m*3 6.01 C 2.675 km/h
894 10-12-2015 05:00:00 4.24167 C 5.87 g/m*3 4.24 C 3.73333 km/h
895 10-12-2015 06:00:00 3.68333 C 5.87 g/m*3 3.68 C 3.2 km/h
896 10-12-2015 07:00:00 4.1 C 6.02 g/m*3 4.1 C 1.2 km/h
897 10-12-2015 08:00:00 3.83333 C 5.75 g/m*3 3.83 C 1.33333 km/h
898 10-12-2015 09:00:00 2.60833 C 5.37 g/m*3 2.61 C 2.14167 km/h
899 10-12-2015 10:00:00 2.73333 C 5.53 g/m*3 2.73 C 0.4 km/h
900 10-12-2015 11:00:00 3.14167 C 5.65 g/m*3 3.14 C 0.93333 km/h
Sensor: Nr:Datum:Temp:Abs-Feuchte:Windchill:Wind:
Aussen-T/F 901 10-12-2015 12:00:00 3.39167 C 5.74 g/m*3 3.39 C 2.4 km/h
902 10-12-2015 13:00:00 3.75833 C 5.88 g/m*3 3.76 C 2.13333 km/h
903 10-12-2015 14:00:00 3.95 C 5.96 g/m*3 3.95 C 2.93333 km/h
904 10-12-2015 15:00:00 3.75833 C 5.88 g/m*3 3.76 C 3.6 km/h
905 10-12-2015 16:00:00 3.19167 C 5.66 g/m*3 3.19 C 4 km/h
906 10-12-2015 17:00:00 2.35 C 5.4 g/m*3 2.35 C 3.73333 km/h
907 10-12-2015 18:00:00 1.675 C 5.16 g/m*3 1.68 C 1.73333 km/h
908 10-12-2015 19:00:00 0.89167 C 4.93 g/m*3 0.89 C 0 km/h
909 10-12-2015 20:00:00 0.63333 C 4.86 g/m*3 0.63 C 0.26667 km/h
910 10-12-2015 21:00:00 0.275 C 4.74 g/m*3 0.28 C 1.33333 km/h
911 10-12-2015 22:00:00 -0.175 C 4.6 g/m*3 -0.18 C 0 km/h
912 10-12-2015 23:00:00 0.23333 C 4.77 g/m*3 0.23 C 2.4 km/h
913 11-12-2015 00:00:00 1.025 C 5.04 g/m*3 1.02 C 2 km/h
914 11-12-2015 01:00:00 1.75 C 5.3 g/m*3 1.75 C 3.48333 km/h
915 11-12-2015 02:00:00 2.225 C 5.37 g/m*3 -0.51 C 9.40833 km/h
916 11-12-2015 03:00:00 2.5 C 5.31 g/m*3 0.6 C 6.7 km/h
917 11-12-2015 04:00:00 2.68333 C 5.32 g/m*3 -0.51 C 11.81667 km/h
918 11-12-2015 05:00:00 2.7 C 5.3 g/m*3 0.53 C 7.66667 km/h
919 11-12-2015 06:00:00 2.90833 C 5.4 g/m*3 2.91 C 2.4 km/h
920 11-12-2015 07:00:00 3.125 C 5.5 g/m*3 3.13 C 3.875 km/h
921 11-12-2015 08:00:00 3.45833 C 5.55 g/m*3 1.63 C 6.975 km/h
922 11-12-2015 09:00:00 3.78333 C 5.59 g/m*3 1.58 C 8.45833 km/h
923 11-12-2015 10:00:00 4.35833 C 5.77 g/m*3 1.88 C 10.075 km/h
924 11-12-2015 11:00:00 4.93333 C 5.94 g/m*3 1.75 C 14.49167 km/h
925 11-12-2015 12:00:00 5.125 C 6.09 g/m*3 1.72 C 16.23333 km/h
Sensor: Nr:Datum:Temp:Abs-Feuchte:Windchill:Wind:
Aussen-T/F 926 11-12-2015 13:00:00 5.48333 C 6.18 g/m*3 2.95 C 11.43333 km/h
927 11-12-2015 14:00:00 5.60833 C 6.43 g/m*3 3.1 C 11.43333 km/h
928 11-12-2015 15:00:00 5.4 C 6.54 g/m*3 3.12 C 10.06667 km/h
929 11-12-2015 16:00:00 5.46667 C 6.66 g/m*3 3.84 C 7.39167 km/h
930 11-12-2015 17:00:00 5.78333 C 6.8 g/m*3 3.91 C 8.6 km/h
931 11-12-2015 18:00:00 6.06667 C 6.96 g/m*3 4.48 C 7.64167 km/h
932 11-12-2015 19:00:00 6.525 C 7.18 g/m*3 4.64 C 9.25833 km/h
933 11-12-2015 20:00:00 7.58333 C 7.6 g/m*3 4.67 C 17.03333 km/h
934 11-12-2015 21:00:00 8.16667 C 7.86 g/m*3 5.76 C 14.23333 km/h
935 11-12-2015 22:00:00 8.59167 C 7.98 g/m*3 6.26 C 14.36667 km/h
936 11-12-2015 23:00:00 8.85833 C 8.11 g/m*3 6.4 C 15.83333 km/h
937 12-12-2015 00:00:00 9.025 C 8.26 g/m*3 7.02 C 12.76667 km/h
938 12-12-2015 01:00:00 9.025 C 8.35 g/m*3 7.77 C 8.45 km/h
939 12-12-2015 02:00:00 7.875 C 7.76 g/m*3 6.05 C 10.20833 km/h
940 12-12-2015 03:00:00 6.86667 C 7.3 g/m*3 6.12 C 5.21667 km/h
941 12-12-2015 04:00:00 6.69167 C 7.29 g/m*3 6.69 C 3.06667 km/h
942 12-12-2015 05:00:00 6.65 C 7.3 g/m*3 6.65 C 3.73333 km/h
943 12-12-2015 06:00:00 6.6 C 7.25 g/m*3 6.6 C 0 km/h
944 12-12-2015 07:00:00 6.6 C 7.32 g/m*3 6.6 C 0 km/h
945 12-12-2015 08:00:00 6.6 C 7.32 g/m*3 6.6 C 0.13333 km/h
946 12-12-2015 09:00:00 6.73333 C 7.39 g/m*3 6.73 C 0.53333 km/h
947 12-12-2015 10:00:00 6.81667 C 7.43 g/m*3 6.82 C 2.26667 km/h
948 12-12-2015 11:00:00 7.10833 C 7.57 g/m*3 7.11 C 0.26667 km/h
949 12-12-2015 12:00:00 7.55833 C 7.79 g/m*3 7.56 C 1.73333 km/h
950 12-12-2015 13:00:00 8.075 C 8.06 g/m*3 8.07 C 0.66667 km/h
Sensor: Nr:Datum:Temp:Abs-Feuchte:Windchill:Wind:
Aussen-T/F 951 12-12-2015 14:00:00 8.2 C 8.12 g/m*3 8.2 C 0 km/h
952 12-12-2015 15:00:00 8.225 C 8.14 g/m*3 8.23 C 0 km/h
953 12-12-2015 16:00:00 8.39167 C 8.22 g/m*3 8.39 C 0.53333 km/h
954 12-12-2015 17:00:00 8.53333 C 8.3 g/m*3 8.53 C 2.26667 km/h
955 12-12-2015 18:00:00 8.86667 C 8.45 g/m*3 7.61 C 8.31667 km/h
956 12-12-2015 19:00:00 9.15833 C 8.47 g/m*3 8.43 C 6.29167 km/h
957 12-12-2015 20:00:00 9.575 C 8.53 g/m*3 7.87 C 11.55 km/h
958 12-12-2015 21:00:00 10.00833 C 8.58 g/m*3 8.05 C 13.96667 km/h
959 12-12-2015 22:00:00 10.15 C 8.56 g/m*3 8.16 C 14.5 km/h
960 12-12-2015 23:00:00 10.08333 C 8.42 g/m*3 7.62 C 18.63333 km/h
961 13-12-2015 00:00:00 9.98333 C 8.3 g/m*3 7.28 C 20.76667 km/h
962 13-12-2015 01:00:00 9.84167 C 8.02 g/m*3 7.14 C 20.38333 km/h
963 13-12-2015 02:00:00 9.56667 C 7.85 g/m*3 6.59 C 22.525 km/h
964 13-12-2015 03:00:00 9.29167 C 7.72 g/m*3 7.55 C 11.40833 km/h
965 13-12-2015 04:00:00 9.1 C 7.57 g/m*3 6.72 C 15.7 km/h
966 13-12-2015 05:00:00 8.9 C 7.53 g/m*3 6.89 C 12.63333 km/h
967 13-12-2015 06:00:00 9.03333 C 7.6 g/m*3 6.65 C 15.56667 km/h
968 13-12-2015 07:00:00 9.10833 C 7.65 g/m*3 6.52 C 17.44167 km/h
969 13-12-2015 08:00:00 8.93333 C 7.63 g/m*3 6.2 C 18.36667 km/h
970 13-12-2015 09:00:00 8.825 C 7.66 g/m*3 6.48 C 14.9 km/h
971 13-12-2015 10:00:00 8.99167 C 7.75 g/m*3 7.08 C 12.1 km/h
972 13-12-2015 11:00:00 9.175 C 7.85 g/m*3 7.34 C 11.825 km/h
973 13-12-2015 12:00:00 9.1 C 7.89 g/m*3 7.85 C 8.45833 km/h
974 13-12-2015 13:00:00 8.85 C 7.97 g/m*3 8.26 C 5.625 km/h
975 13-12-2015 14:00:00 8.55 C 8.06 g/m*3 8.55 C 3.06667 km/h
Sensor: Nr:Datum:Temp:Abs-Feuchte:Windchill:Wind:
Aussen-T/F 976 13-12-2015 15:00:00 8.125 C 7.92 g/m*3 8.13 C 0.53333 km/h
977 13-12-2015 16:00:00 7.79167 C 7.83 g/m*3 7.79 C 0 km/h
978 13-12-2015 17:00:00 7.7 C 7.78 g/m*3 7.7 C 0 km/h
979 13-12-2015 18:00:00 7.7 C 7.78 g/m*3 7.7 C 0 km/h
980 13-12-2015 19:00:00 7.7 C 7.81 g/m*3 7.7 C 0 km/h
981 13-12-2015 20:00:00 7.68333 C 7.82 g/m*3 7.68 C 0 km/h
982 13-12-2015 21:00:00 7.7 C 7.87 g/m*3 7.7 C 0 km/h
983 13-12-2015 22:00:00 7.725 C 7.88 g/m*3 7.73 C 0 km/h
984 13-12-2015 23:00:00 7.78333 C 7.91 g/m*3 7.78 C 0 km/h
985 14-12-2015 00:00:00 7.61667 C 7.82 g/m*3 7.62 C 0 km/h
986 14-12-2015 01:00:00 7.35 C 7.69 g/m*3 7.35 C 0 km/h
987 14-12-2015 02:00:00 7.19167 C 7.61 g/m*3 7.19 C 0 km/h
988 14-12-2015 03:00:00 7.06667 C 7.55 g/m*3 7.07 C 0 km/h
989 14-12-2015 04:00:00 6.9 C 7.47 g/m*3 6.9 C 0 km/h
990 14-12-2015 05:00:00 6.5 C 7.27 g/m*3 6.5 C 0.26667 km/h
991 14-12-2015 06:00:00 5.38333 C 6.76 g/m*3 5.38 C 0.26667 km/h
992 14-12-2015 07:00:00 5.71667 C 6.91 g/m*3 5.72 C 0 km/h
993 14-12-2015 08:00:00 5.71667 C 6.92 g/m*3 5.72 C 0.13333 km/h
994 14-12-2015 09:00:00 5.63333 C 6.89 g/m*3 5.63 C 0.8 km/h
995 14-12-2015 10:00:00 5.70833 C 6.91 g/m*3 5.71 C 1.2 km/h
996 14-12-2015 11:00:00 5.69167 C 6.92 g/m*3 5.69 C 0.13333 km/h
997 14-12-2015 12:00:00 6.15 C 7.18 g/m*3 6.15 C 1.46667 km/h
998 14-12-2015 13:00:00 7.175 C 7.68 g/m*3 7.18 C 1.86667 km/h
999 14-12-2015 14:00:00 8 C 8.1 g/m*3 8 C 1.2 km/h
1000 14-12-2015 15:00:00 7.86667 C 7.9 g/m*3 7.87 C 4.15833 km/h
Sensor: Nr:Datum:Temp:Abs-Feuchte:Windchill:Wind:
Aussen-T/F 1001 14-12-2015 16:00:00 7.41667 C 7.4 g/m*3 7.42 C 3.06667 km/h
1002 14-12-2015 17:00:00 6.19167 C 6.79 g/m*3 6.19 C 2.26667 km/h
1003 14-12-2015 18:00:00 5.11667 C 6.51 g/m*3 5.12 C 3.6 km/h
1004 14-12-2015 19:00:00 5.1 C 6.57 g/m*3 5.1 C 2.26667 km/h
1005 14-12-2015 20:00:00 4.55 C 6.33 g/m*3 4.55 C 2.4 km/h
1006 14-12-2015 21:00:00 3.7 C 5.98 g/m*3 3.7 C 0 km/h
1007 14-12-2015 22:00:00 3.025 C 5.74 g/m*3 3.03 C 0 km/h
1008 14-12-2015 23:00:00 2.93333 C 5.74 g/m*3 2.93 C 0 km/h
1009 15-12-2015 00:00:00 2.70833 C 5.65 g/m*3 2.71 C 0.13333 km/h
1010 15-12-2015 01:00:00 2.775 C 5.68 g/m*3 2.78 C 0 km/h
1011 15-12-2015 02:00:00 2.99167 C 5.76 g/m*3 2.99 C 0.26667 km/h
1012 15-12-2015 03:00:00 3.2 C 5.85 g/m*3 3.2 C 0 km/h
1013 15-12-2015 04:00:00 3.4 C 5.97 g/m*3 3.4 C 0.66667 km/h
1014 15-12-2015 05:00:00 3.25 C 5.86 g/m*3 3.25 C 0.26667 km/h
1015 15-12-2015 06:00:00 3.175 C 5.84 g/m*3 3.18 C 0 km/h
1016 15-12-2015 07:00:00 3.18333 C 5.85 g/m*3 3.18 C 0 km/h
1017 15-12-2015 08:00:00 3.74167 C 6.12 g/m*3 3.74 C 0.13333 km/h
1018 15-12-2015 09:00:00 4.76667 C 6.56 g/m*3 4.77 C 0.13333 km/h
1019 15-12-2015 10:00:00 6.15833 C 7.19 g/m*3 6.16 C 0 km/h
1020 15-12-2015 11:00:00 6.88333 C 7.54 g/m*3 6.88 C 1.33333 km/h
1021 15-12-2015 12:00:00 7.55 C 7.85 g/m*3 6.11 C 8.06667 km/h
1022 15-12-2015 13:00:00 8.54167 C 7.98 g/m*3 7.6 C 6.71667 km/h
1023 15-12-2015 14:00:00 8.325 C 7.82 g/m*3 8.32 C 2.55 km/h
1024 15-12-2015 15:00:00 8.79167 C 7.93 g/m*3 8.79 C 2.53333 km/h
1025 15-12-2015 16:00:00 7.9 C 7.7 g/m*3 7.9 C 2.13333 km/h
Sensor: Nr:Datum:Temp:Abs-Feuchte:Windchill:Wind:
Aussen-T/F 1026 15-12-2015 17:00:00 7.75833 C 7.73 g/m*3 7.76 C 1.06667 km/h
1027 15-12-2015 18:00:00 7.46667 C 7.62 g/m*3 7.47 C 0.53333 km/h
1028 15-12-2015 19:00:00 6.91667 C 7.38 g/m*3 6.92 C 0.26667 km/h
1029 15-12-2015 20:00:00 6.86667 C 7.41 g/m*3 6.87 C 0 km/h
1030 15-12-2015 21:00:00 6.625 C 7.32 g/m*3 6.63 C 0 km/h
1031 15-12-2015 22:00:00 6.69167 C 7.37 g/m*3 6.69 C 0 km/h
1032 15-12-2015 23:00:00 6.69167 C 7.37 g/m*3 6.69 C 0 km/h
1033 16-12-2015 00:00:00 6.6 C 7.32 g/m*3 6.6 C 0 km/h
1034 16-12-2015 01:00:00 6.54167 C 7.29 g/m*3 6.54 C 0 km/h
1035 16-12-2015 02:00:00 6.6 C 7.32 g/m*3 6.6 C 0 km/h
1036 16-12-2015 03:00:00 6.61667 C 7.33 g/m*3 6.62 C 0 km/h
1037 16-12-2015 04:00:00 6.89167 C 7.5 g/m*3 6.89 C 0.4 km/h
1038 16-12-2015 05:00:00 7.38333 C 7.78 g/m*3 7.38 C 0 km/h
1039 16-12-2015 06:00:00 7.75833 C 7.98 g/m*3 7.76 C 0.26667 km/h
1040 16-12-2015 07:00:00 8 C 8.1 g/m*3 8 C 0 km/h
1041 16-12-2015 08:00:00 8.41667 C 8.32 g/m*3 8.42 C 1.06667 km/h
1042 16-12-2015 09:00:00 9.225 C 8.77 g/m*3 9.23 C 1.2 km/h
1043 16-12-2015 10:00:00 9.775 C 9.08 g/m*3 9.78 C 0.4 km/h
1044 16-12-2015 11:00:00 10.225 C 9.34 g/m*3 10.23 C 0.8 km/h
1045 16-12-2015 12:00:00 10.65833 C 9.6 g/m*3 10.66 C 0 km/h
1046 16-12-2015 13:00:00 11.375 C 10.04 g/m*3 11.38 C 1.33333 km/h
1047 16-12-2015 14:00:00 11.3 C 10 g/m*3 11.3 C 4.55 km/h
1048 16-12-2015 15:00:00 11.3 C 10 g/m*3 11.3 C 5.89167 km/h
1049 16-12-2015 16:00:00 11.3 C 10 g/m*3 11.3 C 5.075 km/h
1050 16-12-2015 17:00:00 11.275 C 9.88 g/m*3 11.28 C 5.625 km/h
Sensor: Nr:Datum:Temp:Abs-Feuchte:Windchill:Wind:
Aussen-T/F 1051 16-12-2015 18:00:00 11.30833 C 9.9 g/m*3 11.31 C 3.48333 km/h
1052 16-12-2015 19:00:00 11.35833 C 9.93 g/m*3 11.36 C 4.15 km/h
1053 16-12-2015 20:00:00 11.53333 C 10.05 g/m*3 11.53 C 6.975 km/h
1054 16-12-2015 21:00:00 12 C 10.31 g/m*3 12 C 6.15833 km/h
1055 16-12-2015 22:00:00 12.075 C 10.33 g/m*3 12.08 C 5.48333 km/h
1056 16-12-2015 23:00:00 12.35833 C 10.46 g/m*3 12.36 C 6.56667 km/h
1057 17-12-2015 00:00:00 12.25 C 10.39 g/m*3 12.25 C 4.54167 km/h
1058 17-12-2015 01:00:00 12.425 C 10.42 g/m*3 12.43 C 6.70833 km/h
1059 17-12-2015 02:00:00 12.54167 C 10.32 g/m*3 12.54 C 2.66667 km/h
1060 17-12-2015 03:00:00 12.13333 C 10.2 g/m*3 12.13 C 1.33333 km/h
1061 17-12-2015 04:00:00 12.075 C 10.16 g/m*3 12.08 C 3.74167 km/h
1062 17-12-2015 05:00:00 12.225 C 10.14 g/m*3 12.23 C 3.2 km/h
1063 17-12-2015 06:00:00 11.44167 C 9.71 g/m*3 11.44 C 5.61667 km/h
1064 17-12-2015 07:00:00 12.2 C 10.11 g/m*3 12.2 C 10.1 km/h
1065 17-12-2015 08:00:00 12.575 C 10.28 g/m*3 12.58 C 6.575 km/h
1066 17-12-2015 09:00:00 12.70833 C 10.47 g/m*3 12.71 C 3.61667 km/h
1067 17-12-2015 10:00:00 13.09167 C 10.79 g/m*3 13.09 C 6.98333 km/h
1068 17-12-2015 11:00:00 13.56667 C 11.05 g/m*3 13.57 C 3.60833 km/h
1069 17-12-2015 12:00:00 14.05833 C 11.18 g/m*3 14.06 C 7.65833 km/h
1070 17-12-2015 13:00:00 14.18333 C 11.25 g/m*3 14.18 C 8.725 km/h
1071 17-12-2015 14:00:00 14.325 C 11.19 g/m*3 14.33 C 7.39167 km/h
1072 17-12-2015 15:00:00 13.96667 C 10.89 g/m*3 13.97 C 2.80833 km/h
1073 17-12-2015 16:00:00 12.45 C 10.21 g/m*3 12.45 C 3.6 km/h
1074 17-12-2015 17:00:00 11.75833 C 9.98 g/m*3 11.76 C 2.66667 km/h
1075 17-12-2015 18:00:00 11.43333 C 9.86 g/m*3 11.43 C 1.2 km/h
Sensor: Nr:Datum:Temp:Abs-Feuchte:Windchill:Wind:
Aussen-T/F 1076 17-12-2015 19:00:00 11.29167 C 9.8 g/m*3 11.29 C 0.13333 km/h
1077 17-12-2015 20:00:00 11.2 C 9.83 g/m*3 11.2 C 0 km/h
1078 17-12-2015 21:00:00 10.35 C 9.32 g/m*3 10.35 C 0 km/h
1079 17-12-2015 23:00:00 10.44286 C 9.37 g/m*3 10.44 C 0 km/h
1080 18-12-2015 00:00:00 10.20833 C 9.24 g/m*3 10.21 C 0.26667 km/h
1081 18-12-2015 01:00:00 10.275 C 9.29 g/m*3 10.28 C 0.8 km/h
1082 18-12-2015 02:00:00 10.36667 C 9.36 g/m*3 10.37 C 2.4 km/h
1083 18-12-2015 03:00:00 10.10833 C 9.22 g/m*3 10.11 C 1.06667 km/h
1084 18-12-2015 04:00:00 10.28333 C 9.3 g/m*3 9.97 C 5.35833 km/h
1085 18-12-2015 05:00:00 10.825 C 9.4 g/m*3 10.83 C 4.825 km/h
1086 18-12-2015 06:00:00 10.84167 C 9.37 g/m*3 10.84 C 3.33333 km/h
1087 18-12-2015 07:00:00 10.6 C 9.36 g/m*3 10.6 C 2 km/h
1088 18-12-2015 08:00:00 10.65833 C 9.4 g/m*3 10.66 C 4.81667 km/h
1089 18-12-2015 09:00:00 10.84167 C 9.51 g/m*3 10.5 C 5.75 km/h
1090 18-12-2015 10:00:00 11.28333 C 9.68 g/m*3 11.28 C 4.15 km/h
1091 18-12-2015 11:00:00 11.35833 C 9.67 g/m*3 11.36 C 7.10833 km/h
1092 18-12-2015 12:00:00 12.25 C 9.86 g/m*3 12.25 C 6.44167 km/h
1093 18-12-2015 13:00:00 12.66667 C 9.65 g/m*3 12.67 C 8.05 km/h
1094 18-12-2015 14:00:00 12.95833 C 9.71 g/m*3 12.96 C 4.40833 km/h
1095 18-12-2015 15:00:00 12.90833 C 9.85 g/m*3 12.91 C 4.675 km/h
1096 18-12-2015 16:00:00 12.18333 C 9.74 g/m*3 12.18 C 0.4 km/h
1097 18-12-2015 17:00:00 11.675 C 9.64 g/m*3 11.68 C 0.66667 km/h
1098 18-12-2015 18:00:00 11.34167 C 9.57 g/m*3 11.34 C 0.13333 km/h
1099 18-12-2015 19:00:00 11.19167 C 9.54 g/m*3 11.19 C 0 km/h
1100 18-12-2015 20:00:00 11.05 C 9.53 g/m*3 11.05 C 0.53333 km/h
Sensor: Nr:Datum:Temp:Abs-Feuchte:Windchill:Wind:
Aussen-T/F 1101 18-12-2015 21:00:00 10.94167 C 9.38 g/m*3 10.94 C 1.2 km/h
1102 18-12-2015 22:00:00 10.71667 C 9.24 g/m*3 10.72 C 1.2 km/h
1103 18-12-2015 23:00:00 10.64167 C 9.28 g/m*3 10.64 C 0.4 km/h
1104 19-12-2015 00:00:00 10.95 C 9.39 g/m*3 10.95 C 1.73333 km/h
1105 19-12-2015 01:00:00 10.95833 C 9.33 g/m*3 10.96 C 0.13333 km/h
1106 19-12-2015 02:00:00 10.99167 C 9.48 g/m*3 10.99 C 0.53333 km/h
1107 19-12-2015 03:00:00 11.73333 C 9.73 g/m*3 11.73 C 6.025 km/h
1108 19-12-2015 04:00:00 12.19167 C 9.65 g/m*3 12.19 C 8.46667 km/h
1109 19-12-2015 05:00:00 12.28333 C 9.65 g/m*3 12.28 C 8.075 km/h
1110 19-12-2015 06:00:00 12.15833 C 9.59 g/m*3 12.16 C 7.65 km/h
1111 19-12-2015 07:00:00 11.80833 C 9.57 g/m*3 11.81 C 3.6 km/h
1112 19-12-2015 08:00:00 12.125 C 9.75 g/m*3 12.13 C 2.66667 km/h
1113 19-12-2015 09:00:00 12.3 C 9.81 g/m*3 12.3 C 3.61667 km/h
1114 19-12-2015 10:00:00 12.11667 C 9.7 g/m*3 12.12 C 3.20833 km/h
1115 19-12-2015 11:00:00 13.20833 C 10.07 g/m*3 13.21 C 11.68333 km/h
1116 19-12-2015 12:00:00 13.56667 C 10.14 g/m*3 13.57 C 5.50833 km/h
1117 19-12-2015 13:00:00 13.80833 C 10.25 g/m*3 13.81 C 7.53333 km/h
1118 19-12-2015 14:00:00 13.74167 C 10.26 g/m*3 13.74 C 3.73333 km/h
1119 19-12-2015 15:00:00 12.825 C 10.18 g/m*3 12.83 C 1.33333 km/h
1120 19-12-2015 16:00:00 11.86667 C 9.76 g/m*3 11.87 C 2.93333 km/h
1121 19-12-2015 17:00:00 10.78333 C 9.22 g/m*3 10.78 C 3.6 km/h
1122 19-12-2015 18:00:00 9.86667 C 8.83 g/m*3 9.87 C 3.2 km/h
1123 19-12-2015 19:00:00 9.30833 C 8.57 g/m*3 9.31 C 2.93333 km/h
1124 19-12-2015 20:00:00 8.825 C 8.36 g/m*3 8.82 C 1.46667 km/h
1125 19-12-2015 21:00:00 8.38333 C 8.14 g/m*3 8.38 C 0.93333 km/h
Sensor: Nr:Datum:Temp:Abs-Feuchte:Windchill:Wind:
Aussen-T/F 1126 19-12-2015 22:00:00 7.6 C 7.73 g/m*3 7.6 C 0 km/h
1127 19-12-2015 23:00:00 7 C 7.48 g/m*3 7 C 0.13333 km/h
1128 20-12-2015 00:00:00 6.96667 C 7.5 g/m*3 6.97 C 0.8 km/h
1129 20-12-2015 01:00:00 6.44167 C 7.25 g/m*3 6.44 C 0.4 km/h
1130 20-12-2015 02:00:00 6.65 C 7.37 g/m*3 6.65 C 2 km/h
1131 20-12-2015 03:00:00 7.04167 C 7.55 g/m*3 7.04 C 2.53333 km/h
1132 20-12-2015 04:00:00 6.36667 C 7.21 g/m*3 6.37 C 1.06667 km/h
1133 20-12-2015 05:00:00 6.03333 C 7.06 g/m*3 6.03 C 0.66667 km/h
1134 20-12-2015 06:00:00 5.44167 C 6.79 g/m*3 5.44 C 0.66667 km/h
1135 20-12-2015 07:00:00 5.43333 C 6.8 g/m*3 5.43 C 0.53333 km/h
1136 20-12-2015 08:00:00 5.75833 C 7 g/m*3 5.76 C 0.8 km/h
1137 20-12-2015 09:00:00 6.275 C 7.24 g/m*3 6.28 C 0.53333 km/h
1138 20-12-2015 10:00:00 7.09167 C 7.64 g/m*3 7.09 C 0.13333 km/h
1139 20-12-2015 11:00:00 7.71667 C 7.95 g/m*3 7.72 C 0.93333 km/h
1140 20-12-2015 12:00:00 8.30833 C 8.26 g/m*3 8.31 C 0.13333 km/h
1141 20-12-2015 13:00:00 8.7 C 8.48 g/m*3 8.7 C 0.13333 km/h
1142 20-12-2015 14:00:00 8.95833 C 8.62 g/m*3 8.54 C 5.09167 km/h
1143 20-12-2015 15:00:00 9.40833 C 8.8 g/m*3 9.41 C 2.54167 km/h
1144 20-12-2015 16:00:00 9.28333 C 8.63 g/m*3 9.28 C 1.06667 km/h
1145 20-12-2015 17:00:00 9.34167 C 8.58 g/m*3 9.34 C 1.06667 km/h
1146 20-12-2015 18:00:00 9.575 C 8.68 g/m*3 9.57 C 1.2 km/h
1147 20-12-2015 19:00:00 9.99167 C 8.77 g/m*3 9.99 C 2 km/h
1148 20-12-2015 20:00:00 9.93333 C 8.7 g/m*3 9.93 C 0.66667 km/h
1149 20-12-2015 21:00:00 9.41667 C 8.51 g/m*3 9.42 C 0.53333 km/h
1150 20-12-2015 22:00:00 9.23333 C 8.49 g/m*3 9.23 C 0.53333 km/h
Sensor: Nr:Datum:Temp:Abs-Feuchte:Windchill:Wind:
Aussen-T/F 1151 20-12-2015 23:00:00 8.95833 C 8.37 g/m*3 8.96 C 0.13333 km/h
1152 21-12-2015 00:00:00 8.76667 C 8.3 g/m*3 8.77 C 0 km/h
1153 21-12-2015 01:00:00 8.775 C 8.34 g/m*3 8.78 C 0.4 km/h
1154 21-12-2015 02:00:00 8.7 C 8.3 g/m*3 8.7 C 0.66667 km/h
1155 21-12-2015 03:00:00 9.18333 C 8.62 g/m*3 9.18 C 1.6 km/h
1156 21-12-2015 04:00:00 9.85833 C 8.95 g/m*3 9.49 C 5.35 km/h
1157 21-12-2015 05:00:00 9.3 C 8.51 g/m*3 8.55 C 6.43333 km/h
1158 21-12-2015 06:00:00 8.85 C 8.27 g/m*3 8.85 C 2.13333 km/h
1159 21-12-2015 07:00:00 8.50833 C 8.17 g/m*3 8.51 C 4.01667 km/h
1160 21-12-2015 08:00:00 9.06667 C 8.2 g/m*3 7.21 C 11.83333 km/h
1161 21-12-2015 09:00:00 9.26667 C 8.16 g/m*3 7.39 C 12.225 km/h
1162 21-12-2015 10:00:00 9.91667 C 8.33 g/m*3 8.2 C 12.1 km/h
1163 21-12-2015 11:00:00 10.875 C 8.47 g/m*3 8.93 C 15.56667 km/h
1164 21-12-2015 12:00:00 10.75833 C 8.42 g/m*3 9.06 C 13.3 km/h
1165 21-12-2015 13:00:00 10.26667 C 8.47 g/m*3 8.85 C 10.6 km/h
1166 21-12-2015 14:00:00 10.44167 C 8.25 g/m*3 8.44 C 15.16667 km/h
1167 21-12-2015 15:00:00 10.69167 C 8.06 g/m*3 8.86 C 14.23333 km/h
1168 21-12-2015 16:00:00 10.71667 C 7.97 g/m*3 8.97 C 13.56667 km/h
1169 21-12-2015 17:00:00 10.63333 C 7.97 g/m*3 9.21 C 11.15 km/h
1170 21-12-2015 18:00:00 11.1 C 7.88 g/m*3 11.1 C 19.30833 km/h
1171 21-12-2015 19:00:00 11.33333 C 7.95 g/m*3 11.33 C 16.5 km/h
1172 21-12-2015 20:00:00 11.36667 C 8.06 g/m*3 11.37 C 18.375 km/h
1173 21-12-2015 21:00:00 11.18333 C 8.3 g/m*3 11.18 C 23.99167 km/h
1174 21-12-2015 22:00:00 11.16667 C 8.49 g/m*3 11.17 C 26.69167 km/h
1175 21-12-2015 23:00:00 10.95833 C 8.61 g/m*3 8.39 C 22.25833 km/h
Sensor: Nr:Datum:Temp:Abs-Feuchte:Windchill:Wind:
Aussen-T/F 1176 22-12-2015 00:00:00 10.9 C 8.67 g/m*3 9.02 C 15.03333 km/h
1177 22-12-2015 01:00:00 10.98333 C 8.74 g/m*3 9.49 C 12.09167 km/h
1178 22-12-2015 02:00:00 11.00833 C 8.8 g/m*3 11.01 C 14.36667 km/h
1179 22-12-2015 03:00:00 11.06667 C 8.76 g/m*3 11.07 C 15.56667 km/h
1180 22-12-2015 04:00:00 11.08333 C 8.77 g/m*3 11.08 C 17.96667 km/h
1181 22-12-2015 05:00:00 11.05 C 8.8 g/m*3 11.05 C 14.5 km/h
1182 22-12-2015 06:00:00 10.95 C 8.89 g/m*3 8.9 C 16.63333 km/h
1183 22-12-2015 07:00:00 10.90833 C 8.93 g/m*3 9.06 C 14.76667 km/h
1184 22-12-2015 08:00:00 11.2 C 8.95 g/m*3 11.2 C 15.7 km/h
1185 22-12-2015 09:00:00 11.38333 C 8.94 g/m*3 11.38 C 19.3 km/h
1186 22-12-2015 10:00:00 12 C 8.9 g/m*3 12 C 21.04167 km/h
1187 22-12-2015 11:00:00 12.28333 C 8.96 g/m*3 12.28 C 11.7 km/h
1188 22-12-2015 12:00:00 12.55556 C 8.97 g/m*3 12.56 C 14.32222 km/h
1189 22-12-2015 14:00:00 13.125 C 8.51 g/m*3 13.13 C 14.1 km/h
1190 22-12-2015 15:00:00 12.975 C 8.37 g/m*3 12.98 C 10.35 km/h
1191 22-12-2015 16:00:00 12.65 C 8.42 g/m*3 12.65 C 8.175 km/h
1192 22-12-2015 17:00:00 12.48333 C 8.37 g/m*3 12.48 C 7.525 km/h
1193 22-12-2015 18:00:00 11.95 C 8.37 g/m*3 11.95 C 4.4 km/h
1194 22-12-2015 21:00:00 11.44545 C 7.48 g/m*3 11.45 C 7.02727 km/h
1195 22-12-2015 22:00:00 11.825 C 7.45 g/m*3 11.83 C 9.675 km/h
1196 22-12-2015 23:00:00 11.725 C 7.49 g/m*3 11.73 C 12.9 km/h
1197 23-12-2015 02:00:00 10.9 C 7.56 g/m*3 10.28 C 6.96667 km/h
1198 23-12-2015 03:00:00 10.85833 C 7.52 g/m*3 10 C 8.06667 km/h
1199 23-12-2015 04:00:00 11.16364 C 7.53 g/m*3 11.16 C 10.4 km/h
1200 23-12-2015 08:00:00 10.9 C 8.57 g/m*3 8.75 C 17.56364 km/h
Sensor: Nr:Datum:Temp:Abs-Feuchte:Windchill:Wind:
Aussen-T/F 1201 23-12-2015 09:00:00 10.95833 C 8.79 g/m*3 9.11 C 14.9 km/h
1202 23-12-2015 10:00:00 11 C 8.91 g/m*3 9.4 C 12.9 km/h
1203 24-12-2015 10:00:00 8.5 C 8.32 g/m*3 8.5 C 0.8 km/h
1204 24-12-2015 11:00:00 9.625 C 8.94 g/m*3 9.63 C 0.66667 km/h
1205 24-12-2015 12:00:00 11.53333 C 9.66 g/m*3 11.53 C 3.6 km/h
1206 24-12-2015 13:00:00 12.73333 C 9.47 g/m*3 12.73 C 3.49167 km/h
1207 24-12-2015 14:00:00 12.28333 C 9.42 g/m*3 12.28 C 2.4 km/h
1208 24-12-2015 15:00:00 13.13333 C 9.42 g/m*3 13.13 C 4.95833 km/h
1209 24-12-2015 16:00:00 12.00833 C 9.02 g/m*3 12.01 C 2.4 km/h
1210 24-12-2015 17:00:00 10.65833 C 8.62 g/m*3 10.66 C 2.13333 km/h
1211 24-12-2015 18:00:00 11.475 C 8.72 g/m*3 11.48 C 1.86667 km/h
1212 24-12-2015 19:00:00 11.05833 C 8.54 g/m*3 11.06 C 2.4 km/h
1213 24-12-2015 20:00:00 12.11667 C 8.69 g/m*3 12.12 C 3.48333 km/h
1214 24-12-2015 21:00:00 12.8 C 8.67 g/m*3 12.8 C 8.73333 km/h
1215 24-12-2015 22:00:00 13.13333 C 8.63 g/m*3 13.13 C 8.74167 km/h
1216 24-12-2015 23:00:00 13.15833 C 8.68 g/m*3 13.16 C 15.69167 km/h
1217 25-12-2015 00:00:00 12.83333 C 8.9 g/m*3 12.83 C 16.9 km/h
1218 25-12-2015 01:00:00 12.5 C 8.91 g/m*3 12.5 C 18.25 km/h
1219 25-12-2015 02:00:00 11.63333 C 8.99 g/m*3 11.63 C 5.5 km/h
1220 25-12-2015 03:00:00 10.1 C 8.79 g/m*3 10.1 C 3.2 km/h
1221 25-12-2015 04:00:00 9.40833 C 8.42 g/m*3 9.41 C 4.69167 km/h
1222 25-12-2015 05:00:00 8.85 C 8.05 g/m*3 8.18 C 5.88333 km/h
1223 25-12-2015 06:00:00 8.25833 C 7.84 g/m*3 8.26 C 1.46667 km/h
1224 25-12-2015 07:00:00 8.19167 C 7.94 g/m*3 8.19 C 0.26667 km/h
1225 25-12-2015 08:00:00 8.26667 C 7.99 g/m*3 8.27 C 1.33333 km/h
Sensor: Nr:Datum:Temp:Abs-Feuchte:Windchill:Wind:
Aussen-T/F 1226 25-12-2015 09:00:00 8.71667 C 8.22 g/m*3 8.72 C 0.66667 km/h
1227 25-12-2015 10:00:00 9.81667 C 8.51 g/m*3 9.15 C 6.43333 km/h
1228 25-12-2015 11:00:00 10.60833 C 8.81 g/m*3 10.61 C 3.34167 km/h
1229 25-12-2015 12:00:00 10.83333 C 9.15 g/m*3 10 C 7.93333 km/h
1230 25-12-2015 13:00:00 11.61667 C 9.31 g/m*3 11.62 C 10.34167 km/h
1231 25-12-2015 14:00:00 11.925 C 9.23 g/m*3 11.93 C 13.43333 km/h
1232 25-12-2015 15:00:00 12.51667 C 9.31 g/m*3 12.52 C 15.83333 km/h
1233 25-12-2015 16:00:00 12.625 C 9.2 g/m*3 12.63 C 17.7 km/h
1234 25-12-2015 17:00:00 12.6 C 9.17 g/m*3 12.6 C 16.9 km/h
1235 25-12-2015 18:00:00 12.18333 C 9.14 g/m*3 12.18 C 4.28333 km/h
1236 25-12-2015 19:00:00 12.28333 C 9.29 g/m*3 12.28 C 4.275 km/h
1237 25-12-2015 20:00:00 12.40833 C 9.28 g/m*3 12.41 C 5.08333 km/h
1238 25-12-2015 21:00:00 13 C 9.39 g/m*3 13 C 4.40833 km/h
1239 25-12-2015 22:00:00 12.80833 C 9.36 g/m*3 12.81 C 2.26667 km/h
1240 25-12-2015 23:00:00 12.09167 C 9 g/m*3 12.09 C 4.825 km/h
1241 26-12-2015 00:00:00 12.25833 C 8.83 g/m*3 12.26 C 6.725 km/h
1242 26-12-2015 01:00:00 11.95833 C 8.76 g/m*3 11.96 C 3.34167 km/h
1243 26-12-2015 02:00:00 10.975 C 8.58 g/m*3 10.98 C 2.93333 km/h
1244 26-12-2015 03:00:00 10.75833 C 8.59 g/m*3 10.76 C 3.875 km/h
1245 26-12-2015 04:00:00 10.65833 C 8.56 g/m*3 10.66 C 2.93333 km/h
1246 26-12-2015 05:00:00 10.35833 C 8.45 g/m*3 10.36 C 1.73333 km/h
1247 26-12-2015 06:00:00 9.84167 C 8.31 g/m*3 9.84 C 1.6 km/h
1248 26-12-2015 07:00:00 9.71667 C 8.28 g/m*3 9.72 C 2.4 km/h
1249 26-12-2015 08:00:00 9.05 C 8.03 g/m*3 9.05 C 3.33333 km/h
1250 26-12-2015 09:00:00 9.59167 C 8.18 g/m*3 8.82 C 6.70833 km/h
Sensor: Nr:Datum:Temp:Abs-Feuchte:Windchill:Wind:
Aussen-T/F 1251 26-12-2015 10:00:00 10.55 C 8.42 g/m*3 9.99 C 6.44167 km/h
1252 26-12-2015 11:00:00 11.11667 C 8.6 g/m*3 11.12 C 5.49167 km/h
1253 26-12-2015 12:00:00 11.14167 C 8.6 g/m*3 11.14 C 1.86667 km/h
1254 26-12-2015 13:00:00 10.99167 C 8.73 g/m*3 10.99 C 2.66667 km/h
1255 26-12-2015 14:00:00 12.24167 C 9.05 g/m*3 12.24 C 8.71667 km/h
1256 26-12-2015 15:00:00 12.64167 C 8.95 g/m*3 12.64 C 9.00833 km/h
1257 26-12-2015 16:00:00 11.275 C 8.75 g/m*3 11.28 C 6.70833 km/h
1258 26-12-2015 17:00:00 10.64167 C 8.5 g/m*3 10.64 C 4.55833 km/h
1259 26-12-2015 18:00:00 10.175 C 8.44 g/m*3 9.63 C 6.175 km/h
1260 26-12-2015 19:00:00 9.54167 C 8.2 g/m*3 9.54 C 2.26667 km/h
1261 26-12-2015 20:00:00 8.8 C 7.99 g/m*3 8.8 C 2.13333 km/h
1262 26-12-2015 21:00:00 8.48333 C 7.9 g/m*3 8.48 C 3.06667 km/h
1263 26-12-2015 22:00:00 8.23333 C 7.88 g/m*3 8.23 C 4.28333 km/h
1264 26-12-2015 23:00:00 7.94167 C 7.71 g/m*3 7.94 C 4.81667 km/h
1265 27-12-2015 00:00:00 7.60833 C 7.6 g/m*3 7.61 C 3.75 km/h
1266 27-12-2015 01:00:00 6.74167 C 7.22 g/m*3 6.74 C 1.6 km/h
1267 27-12-2015 02:00:00 6.54167 C 7.17 g/m*3 6.54 C 3.2 km/h
1268 27-12-2015 03:00:00 6.275 C 7.03 g/m*3 6.28 C 3.6 km/h
1269 27-12-2015 04:00:00 5.80833 C 6.86 g/m*3 5.81 C 2.26667 km/h
1270 27-12-2015 05:00:00 5.75 C 6.85 g/m*3 5.75 C 1.06667 km/h
1271 27-12-2015 06:00:00 5.38333 C 6.68 g/m*3 5.38 C 1.6 km/h
1272 27-12-2015 07:00:00 5.99167 C 6.99 g/m*3 5.99 C 2.66667 km/h
1273 27-12-2015 08:00:00 6.48333 C 7.19 g/m*3 5.03 C 7.39167 km/h
1274 27-12-2015 09:00:00 7.63333 C 7.61 g/m*3 5.95 C 9.275 km/h
1275 27-12-2015 10:00:00 8.30833 C 7.76 g/m*3 8.31 C 4.94167 km/h
Sensor: Nr:Datum:Temp:Abs-Feuchte:Windchill:Wind:
Aussen-T/F 1276 27-12-2015 11:00:00 9.18333 C 8.06 g/m*3 8.35 C 6.70833 km/h
1277 27-12-2015 12:00:00 10.53333 C 8.37 g/m*3 9.17 C 10.625 km/h
1278 27-12-2015 13:00:00 10.875 C 8.47 g/m*3 10.47 C 6.04167 km/h
1279 27-12-2015 14:00:00 10.65833 C 8.53 g/m*3 10.66 C 3.20833 km/h
1280 27-12-2015 15:00:00 10.16667 C 8.38 g/m*3 10.17 C 3.46667 km/h
1281 27-12-2015 16:00:00 9.275 C 8.09 g/m*3 9.28 C 2.93333 km/h
1282 27-12-2015 17:00:00 8.55 C 7.83 g/m*3 8.55 C 3.6 km/h
1283 27-12-2015 18:00:00 8.04167 C 7.72 g/m*3 8.04 C 3.33333 km/h
1284 27-12-2015 19:00:00 8.14167 C 7.73 g/m*3 8.14 C 3.33333 km/h
1285 27-12-2015 20:00:00 7.10833 C 7.23 g/m*3 7.11 C 1.86667 km/h
1286 27-12-2015 21:00:00 6.09167 C 6.86 g/m*3 6.09 C 0.8 km/h
1287 27-12-2015 22:00:00 5.21667 C 6.55 g/m*3 5.22 C 0.93333 km/h
1288 27-12-2015 23:00:00 4.53333 C 6.27 g/m*3 4.53 C 0.26667 km/h
1289 28-12-2015 00:00:00 3.96667 C 6.09 g/m*3 3.97 C 0.53333 km/h
1290 28-12-2015 01:00:00 3.65833 C 5.97 g/m*3 3.66 C 0 km/h
1291 28-12-2015 02:00:00 3.15 C 5.79 g/m*3 3.15 C 0.53333 km/h
1292 28-12-2015 03:00:00 2.99167 C 5.75 g/m*3 2.99 C 0.13333 km/h
1293 28-12-2015 04:00:00 2.80833 C 5.68 g/m*3 2.81 C 0.13333 km/h
1294 28-12-2015 05:00:00 2.59167 C 5.61 g/m*3 2.59 C 0.26667 km/h
1295 28-12-2015 06:00:00 2.59167 C 5.61 g/m*3 2.59 C 0.26667 km/h
1296 28-12-2015 07:00:00 2.26667 C 5.49 g/m*3 2.27 C 1.46667 km/h
1297 28-12-2015 08:00:00 1.90833 C 5.36 g/m*3 1.91 C 0.26667 km/h
1298 28-12-2015 09:00:00 1.80833 C 5.32 g/m*3 1.81 C 0 km/h
1299 28-12-2015 10:00:00 2.325 C 5.51 g/m*3 2.33 C 0 km/h
1300 28-12-2015 11:00:00 3.025 C 5.81 g/m*3 3.03 C 0.26667 km/h
Sensor: Nr:Datum:Temp:Abs-Feuchte:Windchill:Wind:
Aussen-T/F 1301 28-12-2015 12:00:00 3.525 C 6.04 g/m*3 3.53 C 0.26667 km/h
1302 28-12-2015 13:00:00 3.75833 C 6.1 g/m*3 3.76 C 0.26667 km/h
1303 28-12-2015 14:00:00 4.55 C 6.46 g/m*3 4.55 C 1.2 km/h
1304 28-12-2015 15:00:00 4.66667 C 6.5 g/m*3 4.67 C 0 km/h
1305 28-12-2015 16:00:00 4.325 C 6.33 g/m*3 4.33 C 2.66667 km/h
1306 28-12-2015 17:00:00 3.03333 C 5.78 g/m*3 3.03 C 0.66667 km/h
1307 28-12-2015 18:00:00 1.90833 C 5.36 g/m*3 1.91 C 0 km/h
1308 28-12-2015 19:00:00 1.475 C 5.2 g/m*3 1.48 C 0 km/h
1309 28-12-2015 20:00:00 1.19167 C 5.1 g/m*3 1.19 C 0 km/h
1310 28-12-2015 21:00:00 0.975 C 5.03 g/m*3 0.98 C 0.4 km/h
1311 28-12-2015 22:00:00 1.29167 C 5.16 g/m*3 1.29 C 1.6 km/h
1312 28-12-2015 23:00:00 0.86667 C 5 g/m*3 0.87 C 0.53333 km/h
1313 29-12-2015 00:00:00 0.73333 C 4.96 g/m*3 0.73 C 0.8 km/h
1314 29-12-2015 01:00:00 0.63333 C 4.93 g/m*3 0.63 C 0.26667 km/h
1315 29-12-2015 02:00:00 0.44167 C 4.86 g/m*3 0.44 C 1.06667 km/h
1316 29-12-2015 03:00:00 0.575 C 4.93 g/m*3 0.57 C 0.53333 km/h
1317 29-12-2015 04:00:00 0.18333 C 4.79 g/m*3 0.18 C 0.26667 km/h
1318 29-12-2015 05:00:00 -0.14167 C 4.68 g/m*3 -0.14 C 0 km/h
1319 29-12-2015 06:00:00 -0.3 C 4.64 g/m*3 -0.3 C 0.13333 km/h
1320 29-12-2015 07:00:00 -0.05833 C 4.73 g/m*3 -0.06 C 0.4 km/h
1321 29-12-2015 08:00:00 -0.13333 C 4.7 g/m*3 -0.13 C 0.26667 km/h
1322 29-12-2015 09:00:00 -0.34167 C 4.61 g/m*3 -0.34 C 0.13333 km/h
1323 29-12-2015 10:00:00 0 C 4.75 g/m*3 0 C 0 km/h
1324 29-12-2015 11:00:00 0.5 C 4.91 g/m*3 0.5 C 0 km/h
1325 29-12-2015 12:00:00 1.60833 C 5.3 g/m*3 1.61 C 0 km/h
Sensor: Nr:Datum:Temp:Abs-Feuchte:Windchill:Wind:
Aussen-T/F 1326 29-12-2015 13:00:00 4.01667 C 6.24 g/m*3 4.02 C 0 km/h
1327 29-12-2015 14:00:00 6.14167 C 7.18 g/m*3 6.14 C 1.33333 km/h
1328 29-12-2015 15:00:00 7.275 C 7.74 g/m*3 7.28 C 0.53333 km/h
1329 29-12-2015 16:00:00 6.825 C 7.51 g/m*3 6.83 C 0 km/h
1330 29-12-2015 17:00:00 6.25 C 7.23 g/m*3 6.25 C 0 km/h
1331 29-12-2015 18:00:00 6.35 C 7.28 g/m*3 6.35 C 0 km/h
1332 29-12-2015 19:00:00 7.03333 C 7.61 g/m*3 7.03 C 2.66667 km/h
1333 29-12-2015 20:00:00 7.49167 C 7.83 g/m*3 7.49 C 1.33333 km/h
1334 29-12-2015 21:00:00 7.325 C 7.68 g/m*3 7.33 C 0.66667 km/h
1335 29-12-2015 22:00:00 6.55 C 7.26 g/m*3 6.55 C 0.8 km/h
1336 29-12-2015 23:00:00 5.56667 C 6.78 g/m*3 5.57 C 0 km/h
1337 30-12-2015 00:00:00 4.44167 C 6.29 g/m*3 4.44 C 0 km/h
1338 30-12-2015 01:00:00 3.49167 C 5.91 g/m*3 3.49 C 0 km/h
1339 30-12-2015 02:00:00 3.16667 C 5.82 g/m*3 3.17 C 0 km/h
1340 30-12-2015 03:00:00 2.50833 C 5.57 g/m*3 2.51 C 0 km/h
1341 30-12-2015 04:00:00 1.96667 C 5.38 g/m*3 1.97 C 0.13333 km/h
1342 30-12-2015 05:00:00 3.01667 C 5.81 g/m*3 3.02 C 2 km/h
1343 30-12-2015 06:00:00 4.29167 C 6.35 g/m*3 2.94 C 5.9 km/h
1344 30-12-2015 07:00:00 4.74167 C 6.51 g/m*3 4.74 C 4.15833 km/h
1345 30-12-2015 08:00:00 4.35 C 6.31 g/m*3 4.35 C 1.875 km/h
1346 30-12-2015 09:00:00 3.775 C 6.08 g/m*3 3.78 C 0 km/h
1347 30-12-2015 10:00:00 4.24167 C 6.31 g/m*3 4.24 C 0.13333 km/h
1348 30-12-2015 11:00:00 4.88333 C 6.6 g/m*3 4.88 C 0.53333 km/h
1349 30-12-2015 12:00:00 6.175 C 7.2 g/m*3 6.18 C 0.93333 km/h
1350 30-12-2015 13:00:00 6.81667 C 7.47 g/m*3 6.82 C 3.46667 km/h
Sensor: Nr:Datum:Temp:Abs-Feuchte:Windchill:Wind:
Aussen-T/F 1351 30-12-2015 14:00:00 7.30833 C 7.29 g/m*3 6.41 C 5.9 km/h
1352 30-12-2015 15:00:00 7.33333 C 6.98 g/m*3 7.33 C 4.275 km/h
1353 30-12-2015 16:00:00 6.775 C 6.75 g/m*3 5.93 C 5.475 km/h
1354 30-12-2015 17:00:00 6.25833 C 6.59 g/m*3 6.26 C 4.275 km/h
1355 30-12-2015 18:00:00 5.75 C 6.43 g/m*3 5.75 C 3.73333 km/h
1356 30-12-2015 19:00:00 5.65 C 6.38 g/m*3 4.33 C 6.44167 km/h
1357 30-12-2015 20:00:00 5.6 C 6.28 g/m*3 4.49 C 5.75833 km/h
1358 30-12-2015 21:00:00 5.45833 C 6.1 g/m*3 4.33 C 5.75 km/h
1359 30-12-2015 22:00:00 4.81667 C 5.91 g/m*3 3.79 C 5.225 km/h
1360 30-12-2015 23:00:00 4.375 C 5.85 g/m*3 3.34 C 5.08333 km/h
1361 31-12-2015 00:00:00 4.63333 C 5.9 g/m*3 1.67 C 12.76667 km/h
1362 31-12-2015 01:00:00 4.54167 C 5.86 g/m*3 2.01 C 10.475 km/h
1363 31-12-2015 02:00:00 4.38333 C 5.83 g/m*3 2.92 C 6.29167 km/h
1364 31-12-2015 03:00:00 4.49167 C 5.93 g/m*3 4.49 C 0.4 km/h
1365 31-12-2015 04:00:00 4.33333 C 5.93 g/m*3 4.33 C 0 km/h
1366 31-12-2015 05:00:00 4.55 C 6.06 g/m*3 4.55 C 0.8 km/h
1367 31-12-2015 06:00:00 4.68333 C 6.1 g/m*3 4.68 C 0 km/h
1368 31-12-2015 07:00:00 5.20833 C 6.3 g/m*3 5.21 C 2.53333 km/h
1369 31-12-2015 08:00:00 5.58333 C 6.61 g/m*3 5.58 C 0.66667 km/h
1370 31-12-2015 09:00:00 5.675 C 6.78 g/m*3 5.68 C 0.53333 km/h
1371 31-12-2015 10:00:00 6.04167 C 6.99 g/m*3 6.04 C 0.8 km/h
1372 31-12-2015 11:00:00 6.59167 C 7.3 g/m*3 6.59 C 1.2 km/h
1373 31-12-2015 12:00:00 7.65 C 7.83 g/m*3 6.61 C 6.575 km/h
1374 31-12-2015 13:00:00 8.325 C 7.86 g/m*3 7.06 C 7.925 km/h
1375 31-12-2015 14:00:00 8.60833 C 7.62 g/m*3 7.21 C 8.74167 km/h
Sensor: Nr:Datum:Temp:Abs-Feuchte:Windchill:Wind:
Aussen-T/F 1376 31-12-2015 15:00:00 7.88333 C 7.35 g/m*3 7.88 C 4.675 km/h
1377 31-12-2015 16:00:00 6.625 C 6.99 g/m*3 5.67 C 5.74167 km/h
1378 31-12-2015 17:00:00 5.53333 C 6.58 g/m*3 5.53 C 4.26667 km/h
1379 31-12-2015 18:00:00 4.95 C 6.42 g/m*3 4.95 C 2.8 km/h
1380 31-12-2015 19:00:00 4.09167 C 6.05 g/m*3 4.09 C 0.53333 km/h
1381 31-12-2015 20:00:00 2.85833 C 5.6 g/m*3 2.86 C 0 km/h
1382 31-12-2015 21:00:00 2.3 C 5.44 g/m*3 2.3 C 0 km/h
1383 31-12-2015 22:00:00 1.625 C 5.2 g/m*3 1.63 C 0 km/h
1384 31-12-2015 23:00:00 1.075 C 5.01 g/m*3 1.08 C 0.13333 km/h
1385 01-01-2016 00:00:00 0.49167 C 4.82 g/m*3 0.49 C 0.66667 km/h
1386 01-01-2016 01:00:00 0.81667 C 4.97 g/m*3 0.82 C 0 km/h
1387 01-01-2016 02:00:00 0.70833 C 4.93 g/m*3 0.71 C 0.13333 km/h
1388 01-01-2016 03:00:00 0.275 C 4.79 g/m*3 0.28 C 0.4 km/h
1389 01-01-2016 04:00:00 0.96667 C 5.02 g/m*3 0.97 C 0 km/h
1390 01-01-2016 05:00:00 1.68333 C 5.28 g/m*3 1.68 C 1.2 km/h
1391 01-01-2016 06:00:00 2.25833 C 5.51 g/m*3 2.26 C 2 km/h
1392 01-01-2016 07:00:00 2.625 C 5.66 g/m*3 2.63 C 1.2 km/h
1393 01-01-2016 08:00:00 3.06667 C 5.85 g/m*3 3.07 C 0 km/h
1394 01-01-2016 09:00:00 3.64167 C 6.08 g/m*3 3.64 C 0.26667 km/h
1395 01-01-2016 10:00:00 4.25 C 6.34 g/m*3 4.25 C 0.13333 km/h
1396 01-01-2016 11:00:00 5.05833 C 6.68 g/m*3 5.06 C 1.33333 km/h
1397 01-01-2016 12:00:00 5.65 C 6.95 g/m*3 5.65 C 1.06667 km/h
1398 01-01-2016 13:00:00 6.1 C 7.11 g/m*3 6.1 C 0.93333 km/h
1399 01-01-2016 14:00:00 6.36667 C 7.17 g/m*3 6.37 C 0.8 km/h
1400 01-01-2016 15:00:00 6.85833 C 7.37 g/m*3 6.86 C 0.4 km/h
Sensor: Nr:Datum:Temp:Abs-Feuchte:Windchill:Wind:
Aussen-T/F 1401 01-01-2016 16:00:00 6.71667 C 7.26 g/m*3 6.72 C 1.06667 km/h
1402 01-01-2016 17:00:00 6.45 C 7.1 g/m*3 6.45 C 0.13333 km/h
1403 01-01-2016 18:00:00 6.15 C 6.96 g/m*3 6.15 C 0.13333 km/h
1404 01-01-2016 19:00:00 6.09167 C 6.82 g/m*3 6.09 C 3.2 km/h
1405 01-01-2016 20:00:00 6.16667 C 6.63 g/m*3 5.15 C 5.75 km/h
1406 01-01-2016 21:00:00 5.925 C 6.44 g/m*3 5.93 C 3.875 km/h
1407 01-01-2016 22:00:00 6.05833 C 6.43 g/m*3 4.88 C 6.175 km/h
1408 01-01-2016 23:00:00 5.75833 C 6.47 g/m*3 5.76 C 0.4 km/h
1409 02-01-2016 00:00:00 5.6 C 6.43 g/m*3 5.6 C 1.86667 km/h
1410 02-01-2016 01:00:00 5.63333 C 6.35 g/m*3 5.63 C 3.06667 km/h
1411 02-01-2016 02:00:00 5.49167 C 6.16 g/m*3 5.49 C 4.675 km/h
1412 02-01-2016 03:00:00 5.14167 C 6.06 g/m*3 5.14 C 3.2 km/h
1413 02-01-2016 04:00:00 4.95833 C 5.97 g/m*3 4.96 C 3.875 km/h
1414 02-01-2016 05:00:00 4.9 C 6.04 g/m*3 4.9 C 0.8 km/h
1415 02-01-2016 06:00:00 4.69167 C 6.12 g/m*3 4.69 C 0.26667 km/h
1416 02-01-2016 07:00:00 4.36667 C 6.06 g/m*3 4.37 C 0.13333 km/h
1417 02-01-2016 08:00:00 4.3 C 6.1 g/m*3 4.3 C 1.2 km/h
1418 02-01-2016 09:00:00 4.3 C 6.15 g/m*3 4.3 C 3.2 km/h
1419 02-01-2016 10:00:00 4.25833 C 6.15 g/m*3 4.26 C 2.13333 km/h
1420 02-01-2016 11:00:00 4.2 C 6.12 g/m*3 4.2 C 2.8 km/h
1421 02-01-2016 12:00:00 4.16667 C 6.15 g/m*3 4.17 C 0.53333 km/h
1422 02-01-2016 13:00:00 4.25833 C 6.21 g/m*3 4.26 C 1.06667 km/h
1423 02-01-2016 14:00:00 4.425 C 6.28 g/m*3 4.43 C 1.06667 km/h
1424 02-01-2016 15:00:00 4.475 C 6.29 g/m*3 4.47 C 3.35 km/h
1425 02-01-2016 16:00:00 4.275 C 6.15 g/m*3 4.28 C 3.88333 km/h
Sensor: Nr:Datum:Temp:Abs-Feuchte:Windchill:Wind:
Aussen-T/F 1426 02-01-2016 17:00:00 4.3 C 6.17 g/m*3 4.3 C 1.46667 km/h
1427 02-01-2016 18:00:00 4.25 C 6.21 g/m*3 4.25 C 1.2 km/h
1428 02-01-2016 19:00:00 4.175 C 6.18 g/m*3 4.18 C 0.53333 km/h
1429 02-01-2016 20:00:00 4.075 C 6.13 g/m*3 4.08 C 0.93333 km/h
1430 02-01-2016 21:00:00 3.90833 C 6.07 g/m*3 3.91 C 0.93333 km/h
1431 02-01-2016 22:00:00 3.96667 C 6.09 g/m*3 3.97 C 1.2 km/h
1432 02-01-2016 23:00:00 3.99167 C 6.1 g/m*3 3.99 C 1.06667 km/h
1433 03-01-2016 00:00:00 4.29167 C 6.22 g/m*3 2.76 C 6.44167 km/h
1434 03-01-2016 01:00:00 4.6 C 6.29 g/m*3 4.6 C 2.13333 km/h
1435 03-01-2016 02:00:00 4.55 C 6.29 g/m*3 4.55 C 2.4 km/h
1436 03-01-2016 03:00:00 4.79167 C 6.36 g/m*3 4.79 C 4.94167 km/h
1437 03-01-2016 04:00:00 4.91667 C 6.4 g/m*3 4.92 C 3.075 km/h
1438 03-01-2016 05:00:00 5.225 C 6.53 g/m*3 5.23 C 4.80833 km/h
1439 03-01-2016 06:00:00 5.55 C 6.61 g/m*3 4.58 C 5.34167 km/h
1440 03-01-2016 07:00:00 5.59167 C 6.64 g/m*3 4.31 C 6.3 km/h
1441 03-01-2016 08:00:00 5.64167 C 6.66 g/m*3 4.5 C 5.89167 km/h
1442 03-01-2016 09:00:00 5.93333 C 6.79 g/m*3 5.93 C 3.86667 km/h
1443 03-01-2016 10:00:00 6.175 C 6.83 g/m*3 6.18 C 4.28333 km/h
1444 03-01-2016 11:00:00 6.675 C 6.98 g/m*3 6.68 C 3.2 km/h
1445 03-01-2016 12:00:00 6.775 C 6.95 g/m*3 6.78 C 1.86667 km/h
1446 03-01-2016 13:00:00 7.1 C 7.04 g/m*3 7.1 C 3.2 km/h
1447 03-01-2016 14:00:00 7.175 C 6.99 g/m*3 7.18 C 3.60833 km/h
1448 03-01-2016 15:00:00 6.74167 C 6.57 g/m*3 6.74 C 2.66667 km/h
1449 03-01-2016 16:00:00 6.11667 C 6.49 g/m*3 6.12 C 0.53333 km/h
1450 03-01-2016 17:00:00 5.675 C 6.49 g/m*3 5.68 C 2.8 km/h
Sensor: Nr:Datum:Temp:Abs-Feuchte:Windchill:Wind:
Aussen-T/F 1451 03-01-2016 18:00:00 5.59167 C 6.4 g/m*3 5.59 C 2.53333 km/h
1452 03-01-2016 19:00:00 5.05833 C 6.28 g/m*3 5.06 C 1.86667 km/h
1453 03-01-2016 20:00:00 4.81667 C 6.19 g/m*3 4.82 C 1.46667 km/h
1454 03-01-2016 21:00:00 5.475 C 6.45 g/m*3 4.3 C 5.9 km/h
1455 03-01-2016 22:00:00 5.84167 C 6.48 g/m*3 4.44 C 6.83333 km/h
1456 03-01-2016 23:00:00 5.25 C 6.33 g/m*3 4.28 C 5.23333 km/h
1457 04-01-2016 00:00:00 4.99167 C 6.27 g/m*3 3.53 C 6.575 km/h
1458 04-01-2016 01:00:00 4.825 C 6.21 g/m*3 4.83 C 4.80833 km/h
1459 04-01-2016 02:00:00 4.33333 C 6.06 g/m*3 2.95 C 6.025 km/h
1460 04-01-2016 03:00:00 3.73333 C 5.87 g/m*3 2.21 C 6.16667 km/h
1461 04-01-2016 04:00:00 3.6 C 5.88 g/m*3 3.6 C 2.675 km/h
1462 04-01-2016 05:00:00 3.3 C 5.76 g/m*3 3.3 C 0.66667 km/h
1463 04-01-2016 06:00:00 3.08333 C 5.72 g/m*3 3.08 C 0 km/h
1464 04-01-2016 07:00:00 3.16667 C 5.77 g/m*3 3.17 C 0 km/h
1465 04-01-2016 08:00:00 3.35 C 5.85 g/m*3 3.35 C 0 km/h
1466 04-01-2016 09:00:00 3.75 C 6.06 g/m*3 3.75 C 0 km/h
1467 04-01-2016 10:00:00 4.49167 C 6.37 g/m*3 4.49 C 0.13333 km/h
1468 04-01-2016 11:00:00 4.99167 C 6.59 g/m*3 4.99 C 0.53333 km/h
1469 04-01-2016 12:00:00 6.19167 C 7.13 g/m*3 6.19 C 4.40833 km/h
1470 04-01-2016 13:00:00 7.14167 C 7.46 g/m*3 6.02 C 6.55 km/h
1471 04-01-2016 14:00:00 7.45833 C 7.41 g/m*3 5.92 C 8.45 km/h
1472 04-01-2016 15:00:00 7.375 C 7.34 g/m*3 6.37 C 6.28333 km/h
1473 04-01-2016 16:00:00 7.2 C 7.33 g/m*3 7.2 C 3.73333 km/h
1474 04-01-2016 17:00:00 6.79167 C 7.11 g/m*3 6.79 C 3.875 km/h
1475 04-01-2016 18:00:00 6.725 C 6.98 g/m*3 5.5 C 6.71667 km/h
Sensor: Nr:Datum:Temp:Abs-Feuchte:Windchill:Wind:
Aussen-T/F 1476 04-01-2016 19:00:00 6.25833 C 6.8 g/m*3 6.26 C 3.20833 km/h
1477 04-01-2016 20:00:00 6.075 C 6.87 g/m*3 6.08 C 0.4 km/h
1478 04-01-2016 21:00:00 6.15 C 6.96 g/m*3 6.15 C 0.53333 km/h
1479 04-01-2016 22:00:00 6.3 C 7.03 g/m*3 6.3 C 0.4 km/h
1480 04-01-2016 23:00:00 6.35833 C 7.06 g/m*3 6.36 C 0.8 km/h
1481 05-01-2016 00:00:00 6.325 C 7.04 g/m*3 6.33 C 2 km/h
1482 05-01-2016 01:00:00 6.25 C 7.01 g/m*3 6.25 C 1.33333 km/h
1483 05-01-2016 02:00:00 6.2 C 6.98 g/m*3 6.2 C 0.93333 km/h
1484 05-01-2016 03:00:00 6.29167 C 6.91 g/m*3 6.29 C 0.8 km/h
1485 05-01-2016 04:00:00 6.16667 C 6.77 g/m*3 6.17 C 2.26667 km/h
1486 05-01-2016 05:00:00 6.1 C 6.69 g/m*3 6.1 C 2.26667 km/h
1487 05-01-2016 06:00:00 5.88333 C 6.63 g/m*3 5.88 C 0.93333 km/h
1488 05-01-2016 07:00:00 5.64167 C 6.53 g/m*3 5.64 C 2.13333 km/h
1489 05-01-2016 08:00:00 5.59167 C 6.54 g/m*3 5.59 C 0.53333 km/h
1490 05-01-2016 09:00:00 5.875 C 6.72 g/m*3 5.88 C 0.4 km/h
1491 05-01-2016 10:00:00 6.475 C 6.86 g/m*3 6.48 C 1.33333 km/h
1492 05-01-2016 11:00:00 7.06667 C 6.94 g/m*3 7.07 C 1.86667 km/h
1493 05-01-2016 12:00:00 7.71667 C 7.02 g/m*3 7.72 C 3.46667 km/h
1494 05-01-2016 13:00:00 8.10833 C 7.04 g/m*3 8.11 C 3.60833 km/h
1495 05-01-2016 14:00:00 8.70833 C 7.12 g/m*3 8.71 C 4.275 km/h
1496 05-01-2016 15:00:00 8.325 C 7.09 g/m*3 8.32 C 0.8 km/h
1497 05-01-2016 16:00:00 7.50833 C 6.99 g/m*3 7.51 C 0 km/h
1498 05-01-2016 17:00:00 6.44167 C 6.9 g/m*3 6.44 C 0.8 km/h
1499 05-01-2016 18:00:00 6.225 C 6.89 g/m*3 6.23 C 1.20833 km/h
1500 05-01-2016 19:00:00 6.29167 C 6.96 g/m*3 6.29 C 1.86667 km/h
Sensor: Nr:Datum:Temp:Abs-Feuchte:Windchill:Wind:
Aussen-T/F 1501 05-01-2016 20:00:00 5.68333 C 6.74 g/m*3 5.68 C 1.86667 km/h
1502 05-01-2016 21:00:00 5.425 C 6.64 g/m*3 5.43 C 0.13333 km/h
1503 05-01-2016 22:00:00 5.4 C 6.66 g/m*3 5.4 C 0.13333 km/h
1504 05-01-2016 23:00:00 5.26667 C 6.64 g/m*3 5.27 C 0 km/h
1505 06-01-2016 00:00:00 5.3 C 6.65 g/m*3 5.3 C 0 km/h
1506 06-01-2016 01:00:00 5.24167 C 6.63 g/m*3 5.24 C 0 km/h
1507 06-01-2016 02:00:00 5.29167 C 6.68 g/m*3 5.29 C 0 km/h
1508 06-01-2016 03:00:00 5.56667 C 6.84 g/m*3 5.57 C 0 km/h
1509 06-01-2016 04:00:00 5.46667 C 6.8 g/m*3 5.47 C 0 km/h
1510 06-01-2016 05:00:00 5.45833 C 6.79 g/m*3 5.46 C 0 km/h
1511 06-01-2016 06:00:00 5.40833 C 6.77 g/m*3 5.41 C 0 km/h
1512 06-01-2016 07:00:00 5.4 C 6.77 g/m*3 5.4 C 0 km/h
1513 06-01-2016 08:00:00 5.4 C 6.77 g/m*3 5.4 C 1.6 km/h
1514 06-01-2016 09:00:00 5.50833 C 6.79 g/m*3 5.51 C 3.2 km/h
1515 06-01-2016 10:00:00 6.1 C 6.91 g/m*3 6.1 C 0.66667 km/h
1516 06-01-2016 11:00:00 7.05 C 7.02 g/m*3 7.05 C 1.06667 km/h
1517 06-01-2016 12:00:00 7.49167 C 7.07 g/m*3 7.49 C 1.46667 km/h
1518 06-01-2016 13:00:00 7.51667 C 7.04 g/m*3 7.52 C 1.33333 km/h
1519 06-01-2016 14:00:00 7.34167 C 7.02 g/m*3 7.34 C 1.2 km/h
1520 06-01-2016 15:00:00 7.03333 C 7.14 g/m*3 7.03 C 0.26667 km/h
1521 06-01-2016 16:00:00 6.71667 C 7.04 g/m*3 6.72 C 0 km/h
1522 06-01-2016 17:00:00 6.56667 C 6.97 g/m*3 6.57 C 0.4 km/h
1523 06-01-2016 18:00:00 6.36667 C 6.94 g/m*3 6.37 C 0 km/h
1524 06-01-2016 19:00:00 6.19167 C 6.92 g/m*3 6.19 C 0 km/h
1525 06-01-2016 20:00:00 5.91667 C 6.87 g/m*3 5.92 C 0 km/h
Sensor: Nr:Datum:Temp:Abs-Feuchte:Windchill:Wind:
Aussen-T/F 1526 06-01-2016 21:00:00 5.63333 C 6.8 g/m*3 5.63 C 0 km/h
1527 06-01-2016 22:00:00 4.88333 C 6.47 g/m*3 4.88 C 1.2 km/h
1528 06-01-2016 23:00:00 4.16667 C 6.17 g/m*3 4.17 C 2.13333 km/h
1529 07-01-2016 00:00:00 3.225 C 5.79 g/m*3 3.23 C 0 km/h
1530 07-01-2016 01:00:00 3.55833 C 5.98 g/m*3 3.56 C 0.26667 km/h
1531 07-01-2016 02:00:00 3.71667 C 6.05 g/m*3 3.72 C 0.26667 km/h
1532 07-01-2016 03:00:00 3.76667 C 6.07 g/m*3 3.77 C 0.93333 km/h
1533 07-01-2016 04:00:00 3.90833 C 6.13 g/m*3 3.91 C 0.26667 km/h
1534 07-01-2016 05:00:00 4 C 6.17 g/m*3 4 C 0.93333 km/h
1535 07-01-2016 06:00:00 4.025 C 6.18 g/m*3 4.03 C 0.8 km/h
1536 07-01-2016 07:00:00 3.81667 C 6.09 g/m*3 3.82 C 0.4 km/h
1537 07-01-2016 08:00:00 4.39167 C 6.35 g/m*3 4.39 C 3.34167 km/h
1538 07-01-2016 09:00:00 5.35 C 6.71 g/m*3 3.71 C 7.38333 km/h
1539 07-01-2016 10:00:00 6.06667 C 6.74 g/m*3 4.62 C 7.10833 km/h
1540 07-01-2016 11:00:00 6.53333 C 6.74 g/m*3 5.43 C 6.16667 km/h
1541 07-01-2016 12:00:00 6.425 C 6.63 g/m*3 5.44 C 5.75 km/h
1542 07-01-2016 13:00:00 6.39167 C 6.69 g/m*3 5.07 C 6.85 km/h
1543 07-01-2016 14:00:00 5.56667 C 6.59 g/m*3 4.37 C 6.01667 km/h
1544 07-01-2016 15:00:00 4.93333 C 6.36 g/m*3 3.18 C 7.525 km/h
1545 07-01-2016 16:00:00 4.80833 C 6.33 g/m*3 4.81 C 4.41667 km/h
1546 07-01-2016 17:00:00 4.7 C 6.36 g/m*3 4.7 C 0.93333 km/h
1547 07-01-2016 18:00:00 4.925 C 6.51 g/m*3 4.93 C 0.93333 km/h
1548 07-01-2016 19:00:00 5.80833 C 6.91 g/m*3 2.91 C 13.95 km/h
1549 07-01-2016 20:00:00 7.10833 C 7.14 g/m*3 3.74 C 19.85833 km/h
1550 07-01-2016 21:00:00 6.51667 C 6.84 g/m*3 3.61 C 15.03333 km/h
Sensor: Nr:Datum:Temp:Abs-Feuchte:Windchill:Wind:
Aussen-T/F 1551 07-01-2016 22:00:00 5.79167 C 6.41 g/m*3 3.04 C 13.03333 km/h
1552 07-01-2016 23:00:00 5.63333 C 6.15 g/m*3 3.01 C 12.09167 km/h
1553 08-01-2016 00:00:00 5.825 C 6.05 g/m*3 2.44 C 17.3 km/h
1554 08-01-2016 01:00:00 5.75 C 6.08 g/m*3 2.51 C 16.1 km/h
1555 08-01-2016 02:00:00 5.81667 C 6.01 g/m*3 2.18 C 19.3 km/h
1556 08-01-2016 03:00:00 5.66667 C 5.98 g/m*3 2.35 C 16.5 km/h
1557 08-01-2016 04:00:00 5.375 C 5.9 g/m*3 2.35 C 14.1 km/h
1558 08-01-2016 05:00:00 4.6 C 5.73 g/m*3 2.58 C 8.31667 km/h
1559 08-01-2016 06:00:00 4.09167 C 5.61 g/m*3 2.54 C 6.425 km/h
1560 08-01-2016 07:00:00 3.33333 C 5.52 g/m*3 3.33 C 4.80833 km/h
1561 08-01-2016 08:00:00 3.23333 C 5.56 g/m*3 3.23 C 4.95 km/h
1562 08-01-2016 09:00:00 2.85833 C 5.47 g/m*3 1.25 C 6.04167 km/h
1563 08-01-2016 10:00:00 3.425 C 5.64 g/m*3 1.35 C 7.78333 km/h
1564 08-01-2016 11:00:00 3.825 C 5.71 g/m*3 1.66 C 8.33333 km/h
1565 08-01-2016 12:00:00 4.26667 C 5.79 g/m*3 1.83 C 9.80833 km/h
1566 08-01-2016 13:00:00 4.33333 C 5.82 g/m*3 2.3 C 8.2 km/h
1567 08-01-2016 14:00:00 4.26667 C 5.85 g/m*3 4.27 C 4.28333 km/h
1568 08-01-2016 15:00:00 3.76667 C 5.8 g/m*3 3.77 C 4.66667 km/h
1569 08-01-2016 16:00:00 3.375 C 5.72 g/m*3 2.21 C 5.06667 km/h
1570 08-01-2016 17:00:00 2.63333 C 5.44 g/m*3 2.63 C 3.86667 km/h
1571 08-01-2016 18:00:00 1.73333 C 5.15 g/m*3 1.73 C 1.06667 km/h
1572 08-01-2016 19:00:00 1.20833 C 5 g/m*3 1.21 C 0.26667 km/h
1573 08-01-2016 20:00:00 0.56667 C 4.81 g/m*3 0.57 C 0.13333 km/h
1574 08-01-2016 21:00:00 -0.075 C 4.62 g/m*3 -0.08 C 0 km/h
1575 08-01-2016 22:00:00 -0.45833 C 4.51 g/m*3 -0.46 C 0.13333 km/h
Sensor: Nr:Datum:Temp:Abs-Feuchte:Windchill:Wind:
Aussen-T/F 1576 08-01-2016 23:00:00 -0.54167 C 4.48 g/m*3 -0.54 C 0 km/h
1577 09-01-2016 00:00:00 -0.7 C 4.45 g/m*3 -0.7 C 0.8 km/h
1578 09-01-2016 01:00:00 -0.83333 C 4.42 g/m*3 -0.83 C 0.4 km/h
1579 09-01-2016 02:00:00 -0.85 C 4.43 g/m*3 -0.85 C 0.93333 km/h
1580 09-01-2016 03:00:00 -0.83333 C 4.44 g/m*3 -0.83 C 0.93333 km/h
1581 09-01-2016 04:00:00 -0.875 C 4.42 g/m*3 -0.88 C 1.06667 km/h
1582 09-01-2016 05:00:00 -1.00833 C 4.38 g/m*3 -1.01 C 2.13333 km/h
1583 09-01-2016 06:00:00 -1.29167 C 4.3 g/m*3 -1.29 C 1.06667 km/h
1584 09-01-2016 07:00:00 -1.60833 C 4.2 g/m*3 -1.61 C 0.53333 km/h
1585 09-01-2016 08:00:00 -1.60833 C 4.2 g/m*3 -1.61 C 0.53333 km/h
1586 09-01-2016 09:00:00 -1.33333 C 4.28 g/m*3 -1.33 C 1.6 km/h
1587 09-01-2016 10:00:00 -0.98333 C 4.39 g/m*3 -0.98 C 0.53333 km/h
1588 09-01-2016 11:00:00 -0.46667 C 4.56 g/m*3 -0.47 C 0.4 km/h
1589 09-01-2016 12:00:00 0.525 C 4.91 g/m*3 0.53 C 0 km/h
1590 09-01-2016 13:00:00 1.53333 C 5.28 g/m*3 1.53 C 0.26667 km/h
1591 09-01-2016 14:00:00 2.00833 C 5.45 g/m*3 2.01 C 0.4 km/h
1592 09-01-2016 15:00:00 3.925 C 6.2 g/m*3 3.93 C 3.08333 km/h
1593 09-01-2016 16:00:00 4.18333 C 6.31 g/m*3 4.18 C 1.33333 km/h
1594 09-01-2016 17:00:00 4.3 C 6.36 g/m*3 4.3 C 2.66667 km/h
1595 09-01-2016 18:00:00 4.50833 C 6.42 g/m*3 4.51 C 1.73333 km/h
1596 09-01-2016 19:00:00 4.575 C 6.41 g/m*3 4.58 C 0.8 km/h
1597 09-01-2016 20:00:00 4.14167 C 6.22 g/m*3 4.14 C 1.06667 km/h
1598 09-01-2016 21:00:00 3.425 C 5.93 g/m*3 3.43 C 1.6 km/h
1599 09-01-2016 22:00:00 3.21667 C 5.85 g/m*3 3.22 C 2.4 km/h
1600 09-01-2016 23:00:00 3 C 5.77 g/m*3 3 C 3.2 km/h
Sensor: Nr:Datum:Temp:Abs-Feuchte:Windchill:Wind:
Aussen-T/F 1601 10-01-2016 00:00:00 3.19167 C 5.84 g/m*3 3.19 C 0.4 km/h
1602 10-01-2016 01:00:00 3.30833 C 5.89 g/m*3 3.31 C 0.93333 km/h
1603 10-01-2016 02:00:00 3.93333 C 6.19 g/m*3 3.93 C 2.26667 km/h
1604 10-01-2016 03:00:00 5.05833 C 6.68 g/m*3 5.06 C 1.6 km/h
1605 10-01-2016 04:00:00 6.04167 C 7.13 g/m*3 6.04 C 3.06667 km/h
1606 10-01-2016 05:00:00 6.30833 C 7.23 g/m*3 6.31 C 3.875 km/h
1607 10-01-2016 06:00:00 6.38333 C 7.22 g/m*3 6.38 C 3.06667 km/h
1608 10-01-2016 07:00:00 6.46667 C 7.26 g/m*3 6.47 C 3.60833 km/h
1609 10-01-2016 08:00:00 6.79167 C 7.34 g/m*3 6.79 C 4.95833 km/h
1610 10-01-2016 09:00:00 6.925 C 6.9 g/m*3 4.92 C 10.20833 km/h
1611 10-01-2016 10:00:00 6.88333 C 6.69 g/m*3 5.21 C 8.6 km/h
1612 10-01-2016 11:00:00 8.04167 C 6.7 g/m*3 5.91 C 12.21667 km/h
1613 10-01-2016 12:00:00 8.05833 C 6.42 g/m*3 6.22 C 10.48333 km/h
1614 10-01-2016 13:00:00 8.50833 C 6.47 g/m*3 6.83 C 10.09167 km/h
1615 10-01-2016 14:00:00 7.88333 C 6.67 g/m*3 7.88 C 2.95 km/h
1616 10-01-2016 15:00:00 7.51667 C 6.89 g/m*3 7.52 C 1.2 km/h
1617 10-01-2016 16:00:00 7.275 C 6.87 g/m*3 7.28 C 2.66667 km/h
1618 10-01-2016 17:00:00 6.99167 C 7.07 g/m*3 6.99 C 0.66667 km/h
1619 10-01-2016 18:00:00 6.41667 C 7.08 g/m*3 6.42 C 1.33333 km/h
1620 10-01-2016 19:00:00 6.13333 C 7.02 g/m*3 6.13 C 0.8 km/h
1621 10-01-2016 20:00:00 5.65833 C 6.81 g/m*3 5.66 C 0.8 km/h
1622 10-01-2016 21:00:00 5.6 C 6.79 g/m*3 5.6 C 3.9 km/h
1623 10-01-2016 22:00:00 5.6 C 6.76 g/m*3 5.6 C 3.34167 km/h
1624 10-01-2016 23:00:00 5.675 C 6.75 g/m*3 5.68 C 2.54167 km/h
1625 11-01-2016 00:00:00 5.15833 C 6.55 g/m*3 5.16 C 2 km/h
Sensor: Nr:Datum:Temp:Abs-Feuchte:Windchill:Wind:
Aussen-T/F 1626 11-01-2016 01:00:00 4.525 C 6.32 g/m*3 4.53 C 2.53333 km/h
1627 11-01-2016 02:00:00 3.71667 C 5.99 g/m*3 3.72 C 3.6 km/h
1628 11-01-2016 03:00:00 3.56667 C 5.96 g/m*3 3.57 C 1.06667 km/h
1629 11-01-2016 04:00:00 2.96667 C 5.71 g/m*3 2.97 C 0 km/h
1630 11-01-2016 05:00:00 2.75 C 5.66 g/m*3 2.75 C 0 km/h
1631 11-01-2016 06:00:00 2.84167 C 5.71 g/m*3 2.84 C 0 km/h
1632 11-01-2016 07:00:00 3.55833 C 6.01 g/m*3 3.56 C 0.53333 km/h
1633 11-01-2016 08:00:00 4.31667 C 6.31 g/m*3 4.32 C 0.53333 km/h
1634 11-01-2016 09:00:00 4.78333 C 6.53 g/m*3 4.78 C 1.33333 km/h
1635 11-01-2016 10:00:00 5.325 C 6.76 g/m*3 5.33 C 0.8 km/h
1636 11-01-2016 11:00:00 5.725 C 6.94 g/m*3 5.73 C 1.2 km/h
1637 11-01-2016 12:00:00 5.74167 C 6.93 g/m*3 5.74 C 4.55833 km/h
1638 11-01-2016 13:00:00 6.2 C 7.04 g/m*3 6.2 C 4.00833 km/h
1639 11-01-2016 14:00:00 6.7 C 7.08 g/m*3 6.7 C 3.73333 km/h
1640 11-01-2016 15:00:00 6.9 C 7.08 g/m*3 6.9 C 2.66667 km/h
1641 11-01-2016 16:00:00 6.275 C 6.94 g/m*3 6.28 C 1.6 km/h
1642 11-01-2016 17:00:00 5.76667 C 6.81 g/m*3 5.77 C 3.075 km/h
1643 11-01-2016 18:00:00 6.19167 C 6.99 g/m*3 4.52 C 8.05 km/h
1644 11-01-2016 19:00:00 6.49167 C 6.89 g/m*3 4.19 C 11.29167 km/h
1645 11-01-2016 20:00:00 6.55 C 6.8 g/m*3 4.55 C 9.8 km/h
1646 11-01-2016 21:00:00 6.73333 C 6.87 g/m*3 3.7 C 16.36667 km/h
1647 11-01-2016 22:00:00 6.775 C 6.8 g/m*3 3.93 C 15.03333 km/h
1648 11-01-2016 23:00:00 6.61667 C 6.65 g/m*3 4.25 C 11.825 km/h
1649 12-01-2016 00:00:00 6.125 C 6.65 g/m*3 6.13 C 4.01667 km/h
1650 12-01-2016 01:00:00 5.85833 C 6.53 g/m*3 4.34 C 7.25 km/h
Sensor: Nr:Datum:Temp:Abs-Feuchte:Windchill:Wind:
Aussen-T/F 1651 12-01-2016 02:00:00 5.9 C 6.63 g/m*3 5.9 C 4.94167 km/h
1652 12-01-2016 03:00:00 5.68333 C 6.59 g/m*3 4.1 C 7.38333 km/h
1653 12-01-2016 04:00:00 5.51667 C 6.43 g/m*3 3.29 C 9.93333 km/h
1654 12-01-2016 05:00:00 5.66667 C 6.39 g/m*3 3.25 C 11.01667 km/h
1655 12-01-2016 06:00:00 5.225 C 6.22 g/m*3 3.92 C 6.175 km/h
1656 12-01-2016 07:00:00 4.4 C 6 g/m*3 4.4 C 4.15833 km/h
1657 12-01-2016 08:00:00 4.33333 C 6.08 g/m*3 4.33 C 4.55833 km/h
1658 12-01-2016 09:00:00 5.23333 C 6.49 g/m*3 5.23 C 4.14167 km/h
1659 12-01-2016 10:00:00 5.95 C 6.62 g/m*3 4.17 C 8.31667 km/h
1660 12-01-2016 11:00:00 6.74167 C 6.31 g/m*3 3.97 C 14.5 km/h
1661 12-01-2016 12:00:00 7.125 C 6.41 g/m*3 5.89 C 6.975 km/h
1662 12-01-2016 13:00:00 7.43333 C 6.5 g/m*3 5.12 C 12.49167 km/h
1663 12-01-2016 14:00:00 7.41667 C 6.47 g/m*3 5.31 C 11.29167 km/h
1664 12-01-2016 15:00:00 7.35833 C 6.44 g/m*3 5.19 C 11.56667 km/h
1665 12-01-2016 16:00:00 5.58333 C 6.27 g/m*3 3.26 C 10.475 km/h
1666 12-01-2016 17:00:00 4.81667 C 6.16 g/m*3 2.7 C 8.85833 km/h
1667 12-01-2016 18:00:00 4.625 C 5.91 g/m*3 2.08 C 10.625 km/h
1668 12-01-2016 19:00:00 4.09167 C 5.75 g/m*3 2.48 C 6.58333 km/h
1669 12-01-2016 20:00:00 4.18333 C 5.79 g/m*3 2.51 C 6.84167 km/h
1670 12-01-2016 21:00:00 4.83333 C 5.91 g/m*3 2.17 C 11.41667 km/h
1671 12-01-2016 22:00:00 4.90833 C 5.94 g/m*3 2.23 C 11.55 km/h
1672 12-01-2016 23:00:00 4.96667 C 6 g/m*3 1.54 C 16.1 km/h
1673 13-01-2016 00:00:00 5.05 C 5.99 g/m*3 1.53 C 16.9 km/h
1674 13-01-2016 01:00:00 5.15833 C 5.97 g/m*3 1.58 C 17.56667 km/h
1675 13-01-2016 02:00:00 5.24167 C 6.03 g/m*3 1.79 C 16.76667 km/h
Sensor: Nr:Datum:Temp:Abs-Feuchte:Windchill:Wind:
Aussen-T/F 1676 13-01-2016 03:00:00 5.05 C 6.09 g/m*3 1.01 C 21.03333 km/h
1677 13-01-2016 04:00:00 5.025 C 6.15 g/m*3 1.1 C 19.98333 km/h
1678 13-01-2016 05:00:00 5.04167 C 6.21 g/m*3 1.34 C 18.24167 km/h
1679 13-01-2016 06:00:00 4.8 C 6.23 g/m*3 1.85 C 12.9 km/h
1680 13-01-2016 07:00:00 4.91667 C 6.26 g/m*3 2.02 C 12.76667 km/h
1681 13-01-2016 08:00:00 4.95 C 6.35 g/m*3 2.73 C 9.4 km/h
1682 13-01-2016 09:00:00 5.13333 C 6.44 g/m*3 3.53 C 7.10833 km/h
1683 13-01-2016 10:00:00 5.45833 C 6.55 g/m*3 2.92 C 11.41667 km/h
1684 13-01-2016 11:00:00 5.7 C 6.54 g/m*3 2.84 C 13.55833 km/h
1685 13-01-2016 12:00:00 5.54167 C 6.48 g/m*3 2.66 C 13.43333 km/h
1686 13-01-2016 13:00:00 5.45 C 6.57 g/m*3 3.15 C 10.21667 km/h
1687 13-01-2016 14:00:00 6.05 C 6.61 g/m*3 3.31 C 13.3 km/h
1688 13-01-2016 15:00:00 6.33333 C 6.46 g/m*3 3.47 C 14.5 km/h
1689 13-01-2016 16:00:00 5.90833 C 6.14 g/m*3 4.29 C 7.65 km/h
1690 13-01-2016 17:00:00 5.19167 C 5.9 g/m*3 2.26 C 13.3 km/h
1691 13-01-2016 18:00:00 4.375 C 5.67 g/m*3 2.86 C 6.45 km/h
1692 13-01-2016 19:00:00 3.725 C 5.66 g/m*3 3.73 C 3.475 km/h
1693 13-01-2016 20:00:00 3.78333 C 5.63 g/m*3 3.78 C 4.55 km/h
1694 13-01-2016 21:00:00 3.39167 C 5.48 g/m*3 1.42 C 7.38333 km/h
1695 13-01-2016 22:00:00 3.50833 C 5.43 g/m*3 1.01 C 9.43333 km/h
1696 13-01-2016 23:00:00 3.61667 C 5.43 g/m*3 1.81 C 6.96667 km/h
1697 14-01-2016 00:00:00 3.39167 C 5.34 g/m*3 1.46 C 7.26667 km/h
1698 14-01-2016 01:00:00 3.25833 C 5.32 g/m*3 1.91 C 5.49167 km/h
1699 14-01-2016 02:00:00 3.3 C 5.28 g/m*3 2.07 C 5.21667 km/h
1700 14-01-2016 03:00:00 2.13333 C 5.06 g/m*3 2.13 C 3.2 km/h
Sensor: Nr:Datum:Temp:Abs-Feuchte:Windchill:Wind:
Aussen-T/F 1701 14-01-2016 04:00:00 1.925 C 5.13 g/m*3 1.93 C 1.86667 km/h
1702 14-01-2016 05:00:00 2.35833 C 5.31 g/m*3 2.36 C 0.26667 km/h
1703 14-01-2016 06:00:00 2.93333 C 5.35 g/m*3 2.93 C 2 km/h
1704 14-01-2016 07:00:00 2.375 C 5.18 g/m*3 2.38 C 2.40833 km/h
1705 14-01-2016 08:00:00 2.25 C 5.2 g/m*3 2.25 C 3.34167 km/h
1706 14-01-2016 09:00:00 3.2 C 5.37 g/m*3 3.2 C 3.6 km/h
1707 14-01-2016 10:00:00 3.75833 C 5.54 g/m*3 3.76 C 2.54167 km/h
1708 14-01-2016 11:00:00 4.45833 C 5.65 g/m*3 4.46 C 3.88333 km/h
1709 14-01-2016 12:00:00 5.04167 C 5.71 g/m*3 5.04 C 4.14167 km/h
1710 14-01-2016 13:00:00 5.56667 C 5.68 g/m*3 5.57 C 4.15 km/h
1711 14-01-2016 14:00:00 5.58333 C 5.53 g/m*3 3.4 C 9.79167 km/h
1712 14-01-2016 15:00:00 3.39167 C 5.54 g/m*3 1.96 C 5.76667 km/h
1713 14-01-2016 16:00:00 2.78333 C 5.51 g/m*3 1.11 C 6.16667 km/h
1714 14-01-2016 17:00:00 2.75 C 5.46 g/m*3 -0.32 C 11.29167 km/h
1715 14-01-2016 18:00:00 2.64167 C 5.35 g/m*3 0.81 C 6.575 km/h
1716 14-01-2016 19:00:00 2.70833 C 5.31 g/m*3 0.13 C 9.15 km/h
1717 14-01-2016 20:00:00 3.2 C 5.44 g/m*3 1.65 C 6.01667 km/h
1718 14-01-2016 21:00:00 3.325 C 5.56 g/m*3 0.55 C 10.46667 km/h
1719 14-01-2016 22:00:00 3.69167 C 5.54 g/m*3 1.47 C 8.46667 km/h
1720 14-01-2016 23:00:00 3.58333 C 5.54 g/m*3 0.69 C 11.28333 km/h
1721 15-01-2016 00:00:00 3.80833 C 5.45 g/m*3 0.48 C 13.825 km/h
1722 15-01-2016 01:00:00 3.75 C 5.31 g/m*3 0.29 C 14.5 km/h
1723 15-01-2016 02:00:00 3.8 C 5.18 g/m*3 -0.08 C 17.3 km/h
1724 15-01-2016 03:00:00 3.39167 C 5.21 g/m*3 -0.76 C 18.5 km/h
1725 15-01-2016 04:00:00 2.39167 C 5.17 g/m*3 -1.63 C 15.96667 km/h
Sensor: Nr:Datum:Temp:Abs-Feuchte:Windchill:Wind:
Aussen-T/F 1726 15-01-2016 05:00:00 2.04167 C 5.16 g/m*3 -1.76 C 14.23333 km/h
1727 15-01-2016 06:00:00 2.325 C 5.14 g/m*3 -1.67 C 15.7 km/h
1728 15-01-2016 07:00:00 2.71667 C 5.15 g/m*3 -1.23 C 15.96667 km/h
1729 15-01-2016 08:00:00 2.93333 C 5.17 g/m*3 -0.83 C 15.16667 km/h
1730 15-01-2016 09:00:00 3.4 C 5.24 g/m*3 0.25 C 12.36667 km/h
1731 15-01-2016 10:00:00 3.68333 C 5.31 g/m*3 0.59 C 12.36667 km/h
1732 15-01-2016 11:00:00 3.59167 C 5.35 g/m*3 0.67 C 11.40833 km/h
1733 15-01-2016 12:00:00 2.85833 C 5.41 g/m*3 0.45 C 8.60833 km/h
1734 15-01-2016 13:00:00 2.66667 C 5.43 g/m*3 0.75 C 6.85 km/h
1735 15-01-2016 14:00:00 2.725 C 5.47 g/m*3 0.6 C 7.525 km/h
1736 15-01-2016 15:00:00 2.59167 C 5.43 g/m*3 0.94 C 6.03333 km/h
1737 15-01-2016 16:00:00 2.625 C 5.45 g/m*3 2.63 C 4.275 km/h
1738 15-01-2016 17:00:00 2.6 C 5.44 g/m*3 2.6 C 3.74167 km/h
1739 15-01-2016 18:00:00 2.59167 C 5.46 g/m*3 2.59 C 2.40833 km/h
1740 15-01-2016 19:00:00 2.6 C 5.5 g/m*3 2.6 C 0.53333 km/h
1741 15-01-2016 20:00:00 2.6 C 5.5 g/m*3 2.6 C 0.66667 km/h
1742 15-01-2016 21:00:00 2.675 C 5.53 g/m*3 2.68 C 3.475 km/h
1743 15-01-2016 22:00:00 2.675 C 5.5 g/m*3 2.68 C 4.55833 km/h
1744 15-01-2016 23:00:00 2.33333 C 5.4 g/m*3 2.33 C 0.8 km/h
1745 16-01-2016 00:00:00 2.13333 C 5.31 g/m*3 2.13 C 2.53333 km/h
1746 16-01-2016 01:00:00 1.40833 C 5.03 g/m*3 1.41 C 2 km/h
1747 16-01-2016 02:00:00 1.20833 C 5.01 g/m*3 1.21 C 1.86667 km/h
1748 16-01-2016 03:00:00 1.46667 C 5.09 g/m*3 1.47 C 0.8 km/h
1749 16-01-2016 04:00:00 1.65833 C 5.2 g/m*3 1.66 C 0.53333 km/h
1750 16-01-2016 05:00:00 1.75833 C 5.21 g/m*3 1.76 C 3.08333 km/h
Sensor: Nr:Datum:Temp:Abs-Feuchte:Windchill:Wind:
Aussen-T/F 1751 16-01-2016 06:00:00 1.64167 C 5.15 g/m*3 1.64 C 0.4 km/h
1752 16-01-2016 07:00:00 1.63333 C 5.14 g/m*3 1.63 C 0 km/h
1753 16-01-2016 08:00:00 1.56667 C 5.11 g/m*3 1.57 C 2.40833 km/h
1754 16-01-2016 09:00:00 1.675 C 5.1 g/m*3 0.05 C 5.625 km/h
1755 16-01-2016 10:00:00 2.11667 C 5.26 g/m*3 -0.5 C 8.86667 km/h
1756 16-01-2016 11:00:00 3.075 C 5.45 g/m*3 0.04 C 11.43333 km/h
1757 16-01-2016 12:00:00 3.48333 C 5.62 g/m*3 1.66 C 6.975 km/h
1758 16-01-2016 13:00:00 4.29167 C 5.11 g/m*3 0.89 C 14.9 km/h
1759 16-01-2016 14:00:00 4.09167 C 5.14 g/m*3 0.13 C 18.38333 km/h
1760 16-01-2016 15:00:00 2.4 C 5.24 g/m*3 -1.05 C 12.76667 km/h
1761 16-01-2016 16:00:00 2.175 C 5.16 g/m*3 -1.69 C 14.76667 km/h
1762 16-01-2016 17:00:00 2.25 C 4.94 g/m*3 -1.62 C 14.9 km/h
1763 16-01-2016 18:00:00 2.01667 C 4.95 g/m*3 -0.5 C 8.45833 km/h
1764 16-01-2016 19:00:00 2.025 C 4.89 g/m*3 -0.98 C 10.35833 km/h
1765 16-01-2016 20:00:00 1.60833 C 4.77 g/m*3 -0.03 C 5.63333 km/h
1766 16-01-2016 21:00:00 1.35833 C 4.74 g/m*3 1.36 C 2.8 km/h
1767 16-01-2016 22:00:00 1.53333 C 4.71 g/m*3 1.53 C 4.54167 km/h
1768 16-01-2016 23:00:00 1.525 C 4.63 g/m*3 -0.12 C 5.61667 km/h
1769 17-01-2016 00:00:00 1.275 C 4.64 g/m*3 1.27 C 2.26667 km/h
1770 17-01-2016 01:00:00 1.2 C 4.67 g/m*3 1.2 C 2.93333 km/h
1771 17-01-2016 02:00:00 1.01667 C 4.73 g/m*3 -0.59 C 5.35 km/h
1772 17-01-2016 03:00:00 1.05 C 4.82 g/m*3 -0.78 C 5.89167 km/h
1773 17-01-2016 04:00:00 1.16667 C 4.78 g/m*3 -1.58 C 8.71667 km/h
1774 17-01-2016 05:00:00 0.85 C 4.71 g/m*3 -1.71 C 7.91667 km/h
1775 17-01-2016 06:00:00 0.88333 C 4.51 g/m*3 -2.6 C 11.4 km/h
Sensor: Nr:Datum:Temp:Abs-Feuchte:Windchill:Wind:
Aussen-T/F 1776 17-01-2016 07:00:00 0.725 C 4.44 g/m*3 -2.22 C 9.14167 km/h
1777 17-01-2016 08:00:00 0.6 C 4.45 g/m*3 -1.6 C 6.69167 km/h
1778 17-01-2016 09:00:00 0.58333 C 4.4 g/m*3 -2.31 C 8.875 km/h
1779 17-01-2016 10:00:00 0.65 C 4.38 g/m*3 -2.56 C 10.075 km/h
1780 17-01-2016 11:00:00 0.69167 C 4.33 g/m*3 -2.65 C 10.63333 km/h
1781 17-01-2016 12:00:00 0.925 C 4.16 g/m*3 -2.23 C 10.08333 km/h
1782 17-01-2016 13:00:00 1.18333 C 4.11 g/m*3 -1.64 C 9.00833 km/h
1783 17-01-2016 14:00:00 1.13333 C 3.89 g/m*3 -1.46 C 8.18333 km/h
1784 17-01-2016 15:00:00 0.93333 C 3.95 g/m*3 -0.85 C 5.75 km/h
1785 17-01-2016 16:00:00 0.65 C 3.85 g/m*3 -1.5 C 6.575 km/h
1786 17-01-2016 17:00:00 0.31667 C 3.65 g/m*3 -1.83 C 6.44167 km/h
1787 17-01-2016 18:00:00 -0.10833 C 3.66 g/m*3 -0.11 C 3.73333 km/h
1788 17-01-2016 19:00:00 -1.25 C 3.5 g/m*3 -1.25 C 3.33333 km/h
1789 17-01-2016 20:00:00 -1.68333 C 3.54 g/m*3 -1.68 C 1.73333 km/h
1790 17-01-2016 21:00:00 -1.63333 C 3.66 g/m*3 -1.63 C 0.4 km/h
1791 17-01-2016 22:00:00 -1.85 C 3.65 g/m*3 -1.85 C 0.8 km/h
1792 17-01-2016 23:00:00 -2.96667 C 3.31 g/m*3 -2.97 C 0.26667 km/h
1793 18-01-2016 00:00:00 -3.91667 C 3.17 g/m*3 -3.92 C 0.93333 km/h
1794 18-01-2016 01:00:00 -4.41667 C 3.11 g/m*3 -4.42 C 0.13333 km/h
1795 18-01-2016 02:00:00 -5.19167 C 2.99 g/m*3 -5.19 C 0 km/h
1796 18-01-2016 03:00:00 -5.625 C 2.93 g/m*3 -5.63 C 0 km/h
1797 18-01-2016 04:00:00 -6.08333 C 2.89 g/m*3 -6.08 C 0 km/h
1798 18-01-2016 05:00:00 -6.40833 C 2.84 g/m*3 -6.41 C 0 km/h
1799 18-01-2016 06:00:00 -6.7 C 2.8 g/m*3 -6.7 C 0 km/h
1800 18-01-2016 07:00:00 -6.94167 C 2.75 g/m*3 -6.94 C 0 km/h
Sensor: Nr:Datum:Temp:Abs-Feuchte:Windchill:Wind:
Aussen-T/F 1801 18-01-2016 08:00:00 -7.26667 C 2.68 g/m*3 -7.27 C 0 km/h
1802 18-01-2016 09:00:00 -6.98333 C 2.77 g/m*3 -6.98 C 0 km/h
1803 18-01-2016 10:00:00 -6.56667 C 2.86 g/m*3 -6.57 C 0.13333 km/h
1804 18-01-2016 11:00:00 -5.29167 C 3.15 g/m*3 -5.29 C 1.86667 km/h
1805 18-01-2016 12:00:00 -3.575 C 3.57 g/m*3 -3.58 C 0.13333 km/h
1806 18-01-2016 13:00:00 -2.99167 C 3.66 g/m*3 -2.99 C 1.06667 km/h
1807 18-01-2016 14:00:00 -2.09167 C 3.77 g/m*3 -2.09 C 1.06667 km/h
1808 18-01-2016 15:00:00 -2.1 C 3.73 g/m*3 -2.1 C 0.4 km/h
1809 18-01-2016 16:00:00 -2.69167 C 3.56 g/m*3 -2.69 C 1.33333 km/h
1810 18-01-2016 17:00:00 -3.63333 C 3.33 g/m*3 -3.63 C 3.33333 km/h
1811 18-01-2016 18:00:00 -4.11667 C 3.2 g/m*3 -4.12 C 4.4 km/h
1812 18-01-2016 19:00:00 -4.29167 C 3.18 g/m*3 -4.29 C 3.33333 km/h
1813 18-01-2016 20:00:00 -4.275 C 3.21 g/m*3 -4.28 C 0.13333 km/h
1814 18-01-2016 21:00:00 -4.56667 C 3.16 g/m*3 -4.57 C 0.53333 km/h
1815 18-01-2016 22:00:00 -4.925 C 3.01 g/m*3 -4.93 C 0.93333 km/h
1816 18-01-2016 23:00:00 -5.94167 C 2.85 g/m*3 -5.94 C 2 km/h
1817 19-01-2016 00:00:00 -6.50833 C 2.76 g/m*3 -6.51 C 1.46667 km/h
1818 19-01-2016 01:00:00 -6.85833 C 2.72 g/m*3 -6.86 C 1.2 km/h
1819 19-01-2016 02:00:00 -6.825 C 2.74 g/m*3 -6.83 C 1.2 km/h
1820 19-01-2016 03:00:00 -6.375 C 2.86 g/m*3 -6.38 C 0.26667 km/h
1821 19-01-2016 04:00:00 -5.70833 C 2.97 g/m*3 -5.71 C 0.4 km/h
1822 19-01-2016 05:00:00 -5.61667 C 2.98 g/m*3 -5.62 C 0.53333 km/h
1823 19-01-2016 06:00:00 -5.33333 C 3.04 g/m*3 -5.33 C 0 km/h
1824 19-01-2016 07:00:00 -5.075 C 3.09 g/m*3 -5.08 C 0 km/h
1825 19-01-2016 08:00:00 -4.775 C 3.12 g/m*3 -4.78 C 1.2 km/h
Sensor: Nr:Datum:Temp:Abs-Feuchte:Windchill:Wind:
Aussen-T/F 1826 19-01-2016 09:00:00 -4.39167 C 3.17 g/m*3 -4.39 C 3.33333 km/h
1827 19-01-2016 10:00:00 -4.01667 C 3.2 g/m*3 -4.02 C 3.2 km/h
1828 19-01-2016 11:00:00 -3.75 C 3.23 g/m*3 -3.75 C 3.875 km/h
1829 19-01-2016 12:00:00 -3.41667 C 3.28 g/m*3 -3.42 C 4.4 km/h
1830 19-01-2016 13:00:00 -3.25833 C 3.28 g/m*3 -3.26 C 2.93333 km/h
1831 19-01-2016 14:00:00 -2.95833 C 3.3 g/m*3 -2.96 C 4.26667 km/h
1832 19-01-2016 15:00:00 -2.86667 C 3.31 g/m*3 -2.87 C 3.6 km/h
1833 19-01-2016 16:00:00 -3.60833 C 3.22 g/m*3 -3.61 C 0.26667 km/h
1834 19-01-2016 17:00:00 -4.975 C 3.02 g/m*3 -4.97 C 0 km/h
1835 19-01-2016 18:00:00 -5.61667 C 2.96 g/m*3 -5.62 C 0 km/h
1836 19-01-2016 19:00:00 -6.275 C 2.85 g/m*3 -6.28 C 0 km/h
1837 19-01-2016 20:00:00 -6.66667 C 2.8 g/m*3 -6.67 C 0 km/h
1838 19-01-2016 21:00:00 -7.06667 C 2.72 g/m*3 -7.07 C 0 km/h
1839 19-01-2016 22:00:00 -7.30833 C 2.69 g/m*3 -7.31 C 0 km/h
1840 19-01-2016 23:00:00 -7.44167 C 2.66 g/m*3 -7.44 C 0 km/h
1841 20-01-2016 00:00:00 -7.525 C 2.66 g/m*3 -7.53 C 0 km/h
1842 20-01-2016 01:00:00 -6.58333 C 2.86 g/m*3 -6.58 C 0.53333 km/h
1843 20-01-2016 02:00:00 -5.775 C 3.03 g/m*3 -5.78 C 0.66667 km/h
1844 20-01-2016 03:00:00 -5 C 3.2 g/m*3 -5 C 0 km/h
1845 20-01-2016 04:00:00 -4.54167 C 3.31 g/m*3 -4.54 C 0 km/h
1846 20-01-2016 05:00:00 -4.2 C 3.39 g/m*3 -4.2 C 0 km/h
1847 20-01-2016 06:00:00 -3.90833 C 3.46 g/m*3 -3.91 C 0.8 km/h
1848 20-01-2016 07:00:00 -3.66667 C 3.52 g/m*3 -3.67 C 0 km/h
1849 20-01-2016 08:00:00 -3.43333 C 3.58 g/m*3 -3.43 C 0 km/h
1850 20-01-2016 09:00:00 -2.81667 C 3.72 g/m*3 -2.82 C 2.8 km/h
Sensor: Nr:Datum:Temp:Abs-Feuchte:Windchill:Wind:
Aussen-T/F 1851 20-01-2016 10:00:00 -1.74167 C 3.94 g/m*3 -1.74 C 3.46667 km/h
1852 20-01-2016 11:00:00 -0.66667 C 4.14 g/m*3 -0.67 C 3.86667 km/h
1853 20-01-2016 12:00:00 0.24167 C 4.32 g/m*3 0.24 C 3.73333 km/h
1854 20-01-2016 13:00:00 0.86667 C 4.48 g/m*3 0.87 C 2.53333 km/h
1855 20-01-2016 14:00:00 1.41667 C 4.59 g/m*3 1.42 C 4.13333 km/h
1856 20-01-2016 15:00:00 1.65833 C 4.66 g/m*3 1.66 C 4.53333 km/h
1857 20-01-2016 16:00:00 1.44167 C 4.69 g/m*3 1.44 C 3.475 km/h
1858 20-01-2016 17:00:00 1.03333 C 4.65 g/m*3 1.03 C 2.13333 km/h
1859 20-01-2016 18:00:00 0.84167 C 4.65 g/m*3 0.84 C 1.86667 km/h
1860 20-01-2016 19:00:00 0.84167 C 4.68 g/m*3 0.84 C 3.9 km/h
1861 20-01-2016 20:00:00 0.9 C 4.65 g/m*3 -1.05 C 6.16667 km/h
1862 20-01-2016 21:00:00 0.85 C 4.67 g/m*3 0.85 C 1.46667 km/h
1863 20-01-2016 22:00:00 0.525 C 4.69 g/m*3 0.53 C 0.8 km/h
1864 20-01-2016 23:00:00 0.40833 C 4.68 g/m*3 0.41 C 0.4 km/h
1865 21-01-2016 00:00:00 0.4 C 4.68 g/m*3 0.4 C 1.73333 km/h
1866 21-01-2016 01:00:00 0.4 C 4.69 g/m*3 0.4 C 1.86667 km/h
1867 21-01-2016 02:00:00 0.4 C 4.73 g/m*3 0.4 C 0 km/h
1868 21-01-2016 03:00:00 0.4 C 4.73 g/m*3 0.4 C 0 km/h
1869 21-01-2016 04:00:00 0.4 C 4.73 g/m*3 0.4 C 0.26667 km/h
1870 21-01-2016 05:00:00 0.38333 C 4.73 g/m*3 0.38 C 0 km/h
1871 21-01-2016 06:00:00 -0.2 C 4.55 g/m*3 -0.2 C 0.13333 km/h
1872 21-01-2016 07:00:00 0.04167 C 4.66 g/m*3 0.04 C 0.13333 km/h
1873 21-01-2016 08:00:00 -0.51667 C 4.48 g/m*3 -0.52 C 0 km/h
1874 21-01-2016 09:00:00 0 C 4.65 g/m*3 0 C 0 km/h
1875 21-01-2016 10:00:00 0.775 C 4.91 g/m*3 0.78 C 0 km/h
Sensor: Nr:Datum:Temp:Abs-Feuchte:Windchill:Wind:
Aussen-T/F 1876 21-01-2016 11:00:00 1.425 C 5.09 g/m*3 1.43 C 0.53333 km/h
1877 21-01-2016 12:00:00 1.975 C 5.17 g/m*3 1.98 C 0.8 km/h
1878 21-01-2016 13:00:00 2.5 C 5.25 g/m*3 2.5 C 0 km/h
1879 21-01-2016 14:00:00 2.84167 C 5.32 g/m*3 2.84 C 0 km/h
1880 21-01-2016 15:00:00 2.63333 C 5.28 g/m*3 2.63 C 0.13333 km/h
1881 21-01-2016 16:00:00 2.00833 C 4.97 g/m*3 2.01 C 1.33333 km/h
1882 21-01-2016 17:00:00 1.60833 C 4.69 g/m*3 1.61 C 1.73333 km/h
1883 21-01-2016 18:00:00 1.03333 C 4.6 g/m*3 1.03 C 1.6 km/h
1884 21-01-2016 19:00:00 0.35833 C 4.47 g/m*3 0.36 C 0.66667 km/h
1885 21-01-2016 20:00:00 -0.55833 C 4.29 g/m*3 -0.56 C 0.93333 km/h
1886 21-01-2016 21:00:00 -0.18333 C 4.42 g/m*3 -0.18 C 4.26667 km/h
1887 21-01-2016 22:00:00 -0.525 C 4.27 g/m*3 -0.53 C 2.26667 km/h
1888 21-01-2016 23:00:00 -1.55833 C 4.03 g/m*3 -1.56 C 0.4 km/h
1889 22-01-2016 00:00:00 -2.375 C 3.84 g/m*3 -2.38 C 0.26667 km/h
1890 22-01-2016 01:00:00 -2.95 C 3.72 g/m*3 -2.95 C 0.53333 km/h
1891 22-01-2016 02:00:00 -3.18333 C 3.66 g/m*3 -3.18 C 0 km/h
1892 22-01-2016 03:00:00 -3.89167 C 3.48 g/m*3 -3.89 C 0 km/h
1893 22-01-2016 04:00:00 -3.85833 C 3.51 g/m*3 -3.86 C 0 km/h
1894 22-01-2016 05:00:00 -3.775 C 3.53 g/m*3 -3.78 C 0 km/h
1895 22-01-2016 06:00:00 -3.7 C 3.55 g/m*3 -3.7 C 0 km/h
1896 22-01-2016 07:00:00 -3.48333 C 3.59 g/m*3 -3.48 C 0.93333 km/h
1897 22-01-2016 08:00:00 -3.425 C 3.58 g/m*3 -3.43 C 0.26667 km/h
1898 22-01-2016 09:00:00 -3.4 C 3.57 g/m*3 -3.4 C 1.73333 km/h
1899 22-01-2016 10:00:00 -2.86667 C 3.68 g/m*3 -2.87 C 2 km/h
1900 22-01-2016 11:00:00 -2.19167 C 3.78 g/m*3 -2.19 C 4.01667 km/h
Sensor: Nr:Datum:Temp:Abs-Feuchte:Windchill:Wind:
Aussen-T/F 1901 22-01-2016 12:00:00 -1.64167 C 3.88 g/m*3 -1.64 C 4.00833 km/h
1902 22-01-2016 13:00:00 -1.13333 C 3.94 g/m*3 -1.13 C 2 km/h
1903 22-01-2016 14:00:00 -0.725 C 3.97 g/m*3 -0.73 C 4.55 km/h
1904 22-01-2016 15:00:00 -0.59167 C 3.96 g/m*3 -2.61 C 5.775 km/h
1905 22-01-2016 16:00:00 -1.05833 C 3.89 g/m*3 -1.06 C 4.81667 km/h
1906 22-01-2016 17:00:00 -1.71667 C 3.81 g/m*3 -1.72 C 2.13333 km/h
1907 22-01-2016 18:00:00 -1.54167 C 3.88 g/m*3 -1.54 C 3.475 km/h
1908 22-01-2016 19:00:00 -1.725 C 3.92 g/m*3 -1.73 C 0.66667 km/h
1909 22-01-2016 20:00:00 -1.4 C 4.04 g/m*3 -1.4 C 0.26667 km/h
1910 22-01-2016 21:00:00 -0.625 C 4.3 g/m*3 -0.63 C 0 km/h
1911 22-01-2016 22:00:00 0.16667 C 4.63 g/m*3 0.17 C 0.26667 km/h
1912 22-01-2016 23:00:00 0.51667 C 4.77 g/m*3 0.52 C 0.66667 km/h
1913 23-01-2016 00:00:00 0.75 C 4.88 g/m*3 0.75 C 0.26667 km/h
1914 23-01-2016 01:00:00 0.81667 C 4.92 g/m*3 0.82 C 1.2 km/h
1915 23-01-2016 02:00:00 1.61667 C 5.21 g/m*3 -1.01 C 8.6 km/h
1916 23-01-2016 03:00:00 2.31667 C 5.45 g/m*3 -0.56 C 10.06667 km/h
1917 23-01-2016 04:00:00 2.675 C 5.58 g/m*3 -0.14 C 10.075 km/h
1918 23-01-2016 05:00:00 2.83333 C 5.64 g/m*3 0.25 C 9.28333 km/h
1919 23-01-2016 06:00:00 3.15833 C 5.77 g/m*3 0.66 C 9.15 km/h
1920 23-01-2016 07:00:00 3.45 C 5.88 g/m*3 0.79 C 10.08333 km/h
1921 23-01-2016 08:00:00 3.375 C 5.85 g/m*3 1.57 C 6.83333 km/h
1922 23-01-2016 09:00:00 3.825 C 6.03 g/m*3 1.3 C 9.81667 km/h
1923 23-01-2016 10:00:00 4.55833 C 6.3 g/m*3 2.43 C 8.74167 km/h
1924 23-01-2016 11:00:00 5.04167 C 6.47 g/m*3 3.76 C 6.025 km/h
1925 23-01-2016 12:00:00 5.71667 C 6.7 g/m*3 5.72 C 4.94167 km/h
Sensor: Nr:Datum:Temp:Abs-Feuchte:Windchill:Wind:
Aussen-T/F 1926 23-01-2016 13:00:00 6.50833 C 6.96 g/m*3 5.06 C 7.39167 km/h
1927 23-01-2016 14:00:00 7.05833 C 7.01 g/m*3 5.35 C 8.875 km/h
1928 23-01-2016 15:00:00 6.91667 C 6.96 g/m*3 6.92 C 4.675 km/h
1929 23-01-2016 16:00:00 6.13333 C 6.72 g/m*3 6.13 C 3.875 km/h
1930 23-01-2016 17:00:00 5.30833 C 6.48 g/m*3 5.31 C 2.8 km/h
1931 23-01-2016 18:00:00 4.925 C 6.4 g/m*3 4.93 C 2.8 km/h
1932 23-01-2016 19:00:00 4.8 C 6.37 g/m*3 4.8 C 2.93333 km/h
1933 23-01-2016 20:00:00 4.78333 C 6.36 g/m*3 4.78 C 2 km/h
1934 23-01-2016 21:00:00 4.58333 C 6.28 g/m*3 4.58 C 0.26667 km/h
1935 23-01-2016 22:00:00 4.35833 C 6.2 g/m*3 4.36 C 0.8 km/h
1936 23-01-2016 23:00:00 4.23333 C 6.2 g/m*3 4.23 C 0.8 km/h
1937 24-01-2016 00:00:00 4.20833 C 6.19 g/m*3 4.21 C 0.8 km/h
1938 24-01-2016 01:00:00 4.44167 C 6.22 g/m*3 4.44 C 2.66667 km/h
1939 24-01-2016 02:00:00 4.21667 C 6.05 g/m*3 4.22 C 3.33333 km/h
1940 24-01-2016 03:00:00 3.68333 C 5.83 g/m*3 3.68 C 3.2 km/h
1941 24-01-2016 04:00:00 3.175 C 5.68 g/m*3 3.18 C 3.2 km/h
1942 24-01-2016 05:00:00 3.15833 C 5.71 g/m*3 3.16 C 2.26667 km/h
1943 24-01-2016 06:00:00 2.775 C 5.57 g/m*3 2.78 C 0.13333 km/h
1944 24-01-2016 07:00:00 2.66667 C 5.58 g/m*3 2.67 C 0.13333 km/h
1945 24-01-2016 08:00:00 2.61667 C 5.56 g/m*3 2.62 C 0 km/h
1946 24-01-2016 09:00:00 3.18333 C 5.81 g/m*3 3.18 C 0.26667 km/h
1947 24-01-2016 10:00:00 4 C 6.12 g/m*3 4 C 0 km/h
1948 24-01-2016 11:00:00 5.39167 C 6.55 g/m*3 5.39 C 1.73333 km/h
1949 24-01-2016 12:00:00 6.93333 C 6.92 g/m*3 6.93 C 1.06667 km/h
1950 24-01-2016 13:00:00 7.225 C 7.23 g/m*3 7.23 C 1.2 km/h
Sensor: Nr:Datum:Temp:Abs-Feuchte:Windchill:Wind:
Aussen-T/F 1951 24-01-2016 14:00:00 7.525 C 7.22 g/m*3 7.53 C 3.86667 km/h
1952 24-01-2016 15:00:00 7.6 C 7.25 g/m*3 7.6 C 2 km/h
1953 24-01-2016 16:00:00 7.45833 C 7.18 g/m*3 7.46 C 4.425 km/h
1954 24-01-2016 17:00:00 7.03333 C 7.21 g/m*3 7.03 C 0.13333 km/h
1955 24-01-2016 18:00:00 6.63333 C 7.19 g/m*3 6.63 C 1.46667 km/h
1956 24-01-2016 19:00:00 6.6 C 7.17 g/m*3 6.6 C 2.80833 km/h
1957 24-01-2016 20:00:00 6.83333 C 7.27 g/m*3 5.12 C 8.725 km/h
1958 24-01-2016 21:00:00 7.06667 C 7.32 g/m*3 5.11 C 10.08333 km/h
1959 24-01-2016 22:00:00 7.26667 C 7.34 g/m*3 4.6 C 14.63333 km/h
1960 24-01-2016 23:00:00 7.28333 C 7.35 g/m*3 4.92 C 12.63333 km/h
1961 25-01-2016 00:00:00 7.24167 C 7.38 g/m*3 5.54 C 9.025 km/h
1962 25-01-2016 01:00:00 7.15 C 7.43 g/m*3 5.43 C 9.025 km/h
1963 25-01-2016 02:00:00 6.96667 C 7.35 g/m*3 5.7 C 7 km/h
1964 25-01-2016 03:00:00 7.05 C 7.46 g/m*3 5.04 C 10.35833 km/h
1965 25-01-2016 04:00:00 7.33333 C 7.52 g/m*3 5.09 C 11.96667 km/h
1966 25-01-2016 05:00:00 7.39167 C 7.55 g/m*3 5.86 C 8.34167 km/h
1967 25-01-2016 06:00:00 7.275 C 7.49 g/m*3 6.46 C 5.61667 km/h
1968 25-01-2016 07:00:00 7.2 C 7.46 g/m*3 7.2 C 1.73333 km/h
1969 25-01-2016 08:00:00 7.2 C 7.54 g/m*3 7.2 C 1.2 km/h
1970 25-01-2016 09:00:00 7.25 C 7.56 g/m*3 7.25 C 0.4 km/h
1971 25-01-2016 10:00:00 7.56667 C 7.72 g/m*3 7.57 C 0 km/h
1972 25-01-2016 11:00:00 8.525 C 8.12 g/m*3 8.53 C 0.4 km/h
1973 25-01-2016 12:00:00 9.525 C 8.52 g/m*3 9.53 C 1.73333 km/h
1974 25-01-2016 13:00:00 9.89167 C 8.63 g/m*3 9.89 C 3.33333 km/h
1975 25-01-2016 14:00:00 10.15 C 8.51 g/m*3 10.15 C 4.26667 km/h
Sensor: Nr:Datum:Temp:Abs-Feuchte:Windchill:Wind:
Aussen-T/F 1976 25-01-2016 15:00:00 9.825 C 8.34 g/m*3 9.54 C 5.06667 km/h
1977 25-01-2016 16:00:00 9.1 C 7.99 g/m*3 8.36 C 6.26667 km/h
1978 25-01-2016 17:00:00 7.91667 C 7.47 g/m*3 7 C 6.26667 km/h
1979 25-01-2016 18:00:00 7.03333 C 7.15 g/m*3 6.14 C 5.73333 km/h
1980 25-01-2016 19:00:00 6.05 C 6.7 g/m*3 6.05 C 2.13333 km/h
1981 25-01-2016 20:00:00 5.30833 C 6.44 g/m*3 5.31 C 1.86667 km/h
1982 25-01-2016 21:00:00 4.94167 C 6.33 g/m*3 4.94 C 2.53333 km/h
1983 25-01-2016 22:00:00 5.4 C 6.42 g/m*3 5.4 C 2.94167 km/h
1984 25-01-2016 23:00:00 6.96667 C 6.73 g/m*3 5.74 C 6.84167 km/h
1985 26-01-2016 00:00:00 7.575 C 6.98 g/m*3 7.58 C 3.08333 km/h
1986 26-01-2016 01:00:00 8.45 C 7.08 g/m*3 7.57 C 6.41667 km/h
1987 26-01-2016 02:00:00 8.13333 C 6.94 g/m*3 8.13 C 4.55 km/h
1988 26-01-2016 03:00:00 7.78333 C 6.9 g/m*3 5.82 C 10.89167 km/h
1989 26-01-2016 04:00:00 8 C 6.96 g/m*3 6.58 C 8.325 km/h
1990 26-01-2016 05:00:00 7.875 C 7.08 g/m*3 6.76 C 6.975 km/h
1991 26-01-2016 06:00:00 7.65 C 7.21 g/m*3 6.88 C 5.625 km/h
1992 26-01-2016 07:00:00 7.775 C 7.38 g/m*3 7.78 C 4.675 km/h
1993 26-01-2016 08:00:00 8.2 C 7.56 g/m*3 8.2 C 0.93333 km/h
1994 26-01-2016 09:00:00 8.45833 C 7.76 g/m*3 8.46 C 0.8 km/h
1995 26-01-2016 10:00:00 9.15 C 7.86 g/m*3 9.15 C 0.53333 km/h
1996 26-01-2016 11:00:00 9.95833 C 8.19 g/m*3 8.69 C 9.40833 km/h
1997 26-01-2016 12:00:00 10.91667 C 8.51 g/m*3 9.18 C 13.83333 km/h
1998 26-01-2016 13:00:00 11.15833 C 8.67 g/m*3 11.16 C 11.025 km/h
1999 26-01-2016 14:00:00 11.575 C 8.82 g/m*3 11.58 C 7.63333 km/h
2000 26-01-2016 15:00:00 11.50833 C 8.78 g/m*3 11.51 C 16.36667 km/h
Sensor: Nr:Datum:Temp:Abs-Feuchte:Windchill:Wind:
Aussen-T/F 2001 26-01-2016 16:00:00 11.10833 C 8.52 g/m*3 11.11 C 14.9 km/h
2002 26-01-2016 17:00:00 10.31667 C 8 g/m*3 8.4 C 14.225 km/h
2003 26-01-2016 18:00:00 9.91667 C 7.73 g/m*3 7.79 C 15.16667 km/h
2004 26-01-2016 19:00:00 9.475 C 7.56 g/m*3 8.02 C 9.93333 km/h
2005 26-01-2016 20:00:00 9.175 C 7.59 g/m*3 7.66 C 9.94167 km/h
2006 26-01-2016 21:00:00 9.95833 C 7.68 g/m*3 7.75 C 15.96667 km/h
2007 26-01-2016 22:00:00 10.14167 C 7.7 g/m*3 8.38 C 12.75 km/h
2008 26-01-2016 23:00:00 10.31667 C 7.86 g/m*3 8.55 C 13.03333 km/h
2009 27-01-2016 00:00:00 10.30833 C 7.91 g/m*3 8.51 C 13.29167 km/h
2010 27-01-2016 01:00:00 10.225 C 7.86 g/m*3 8.55 C 12.225 km/h
2011 27-01-2016 02:00:00 10.33333 C 7.84 g/m*3 8.36 C 14.75 km/h
2012 27-01-2016 03:00:00 10.35 C 7.9 g/m*3 9.02 C 10.2 km/h
2013 27-01-2016 04:00:00 10.2 C 7.88 g/m*3 8.95 C 9.53333 km/h
2014 27-01-2016 05:00:00 10.2 C 7.83 g/m*3 7.96 C 16.76667 km/h
2015 27-01-2016 06:00:00 10.14167 C 7.69 g/m*3 8.18 C 14.23333 km/h
2016 27-01-2016 07:00:00 9.96667 C 7.49 g/m*3 8.24 C 12.225 km/h
2017 27-01-2016 08:00:00 10 C 7.31 g/m*3 8.17 C 13.025 km/h
2018 27-01-2016 09:00:00 10.65833 C 7.21 g/m*3 8.72 C 15.03333 km/h
2019 27-01-2016 10:00:00 10.825 C 6.96 g/m*3 8.4 C 20.23333 km/h
2020 27-01-2016 11:00:00 10.96667 C 7.05 g/m*3 9.01 C 15.83333 km/h
2021 27-01-2016 12:00:00 11.36667 C 7.14 g/m*3 11.37 C 15.56667 km/h
2022 27-01-2016 13:00:00 11.825 C 7.35 g/m*3 11.83 C 15.03333 km/h
2023 27-01-2016 14:00:00 12.30833 C 7.41 g/m*3 12.31 C 18.63333 km/h
2024 27-01-2016 15:00:00 12.65833 C 7.03 g/m*3 12.66 C 24.11667 km/h
2025 27-01-2016 16:00:00 12.7 C 6.73 g/m*3 12.7 C 19.175 km/h
Sensor: Nr:Datum:Temp:Abs-Feuchte:Windchill:Wind:
Aussen-T/F 2026 27-01-2016 17:00:00 12.825 C 6.62 g/m*3 12.83 C 20.64167 km/h
2027 27-01-2016 18:00:00 12.91667 C 6.64 g/m*3 12.92 C 24.53333 km/h
2028 27-01-2016 19:00:00 12.91667 C 6.44 g/m*3 12.92 C 23.99167 km/h
2029 27-01-2016 20:00:00 12.83333 C 6.4 g/m*3 12.83 C 21.03333 km/h
2030 27-01-2016 21:00:00 12.73333 C 6.63 g/m*3 12.73 C 18.23333 km/h
2031 27-01-2016 22:00:00 12.79167 C 6.81 g/m*3 12.79 C 17.83333 km/h
2032 27-01-2016 23:00:00 12.7 C 6.86 g/m*3 12.7 C 14.35833 km/h
2033 28-01-2016 00:00:00 12.575 C 6.97 g/m*3 12.58 C 13.56667 km/h
2034 28-01-2016 01:00:00 12.34167 C 7.35 g/m*3 12.34 C 15.425 km/h
2035 28-01-2016 02:00:00 11.4 C 7.99 g/m*3 11.4 C 10.33333 km/h
2036 28-01-2016 03:00:00 10.58333 C 8.5 g/m*3 10.35 C 5.21667 km/h
2037 28-01-2016 04:00:00 10.21667 C 8.84 g/m*3 9.9 C 5.35833 km/h
2038 28-01-2016 05:00:00 9.925 C 8.77 g/m*3 8.83 C 8.44167 km/h
2039 28-01-2016 06:00:00 8.41667 C 7.85 g/m*3 7.36 C 7.1 km/h
2040 28-01-2016 07:00:00 7.71667 C 7.51 g/m*3 7.72 C 4.94167 km/h
2041 28-01-2016 08:00:00 7.425 C 7.14 g/m*3 7.43 C 4.95833 km/h
2042 28-01-2016 09:00:00 7.13333 C 7.07 g/m*3 7.13 C 4.41667 km/h
2043 28-01-2016 10:00:00 7.74167 C 7.07 g/m*3 7.11 C 5.24167 km/h
2044 28-01-2016 11:00:00 8.11667 C 6.82 g/m*3 7.01 C 7.10833 km/h
2045 28-01-2016 12:00:00 8.475 C 6.57 g/m*3 7.2 C 8.05833 km/h
2046 28-01-2016 13:00:00 8.31667 C 6.41 g/m*3 7.53 C 6.025 km/h
2047 28-01-2016 14:00:00 8.28333 C 6.43 g/m*3 8.28 C 2.26667 km/h
2048 28-01-2016 15:00:00 7.225 C 6.69 g/m*3 7.23 C 3.06667 km/h
2049 28-01-2016 16:00:00 6.41667 C 6.55 g/m*3 6.42 C 4.93333 km/h
2050 28-01-2016 17:00:00 5.51667 C 6.22 g/m*3 4.64 C 5.06667 km/h
Sensor: Nr:Datum:Temp:Abs-Feuchte:Windchill:Wind:
Aussen-T/F 2051 28-01-2016 18:00:00 4.525 C 5.96 g/m*3 4.53 C 1.06667 km/h
2052 28-01-2016 19:00:00 3.84167 C 5.8 g/m*3 3.84 C 0 km/h
2053 28-01-2016 20:00:00 3.43333 C 5.68 g/m*3 3.43 C 0 km/h
2054 28-01-2016 21:00:00 3.06667 C 5.55 g/m*3 3.07 C 0 km/h
2055 28-01-2016 22:00:00 2.3 C 5.32 g/m*3 2.3 C 0.13333 km/h
2056 28-01-2016 23:00:00 1.70833 C 5.15 g/m*3 1.71 C 0.26667 km/h
2057 29-01-2016 00:00:00 1.55 C 5.12 g/m*3 1.55 C 0.93333 km/h
2058 29-01-2016 01:00:00 1.19167 C 5 g/m*3 1.19 C 0.93333 km/h
2059 29-01-2016 02:00:00 0.53333 C 4.78 g/m*3 0.53 C 0 km/h
2060 29-01-2016 03:00:00 1.225 C 5.06 g/m*3 1.23 C 4.15 km/h
2061 29-01-2016 04:00:00 1.86667 C 5.24 g/m*3 0.48 C 5.1 km/h
2062 29-01-2016 05:00:00 2.15 C 5.31 g/m*3 0.59 C 5.63333 km/h
2063 29-01-2016 06:00:00 3.11667 C 5.5 g/m*3 0.52 C 9.51667 km/h
2064 29-01-2016 07:00:00 3.175 C 5.47 g/m*3 1.62 C 6.025 km/h
2065 29-01-2016 08:00:00 3.61667 C 5.57 g/m*3 1.65 C 7.50833 km/h
2066 29-01-2016 09:00:00 4.51667 C 5.78 g/m*3 2.12 C 9.80833 km/h
2067 29-01-2016 10:00:00 5.35 C 5.97 g/m*3 2.95 C 10.61667 km/h
2068 29-01-2016 11:00:00 5.78333 C 6.05 g/m*3 3.42 C 10.88333 km/h
2069 29-01-2016 12:00:00 6.55 C 6.21 g/m*3 3.72 C 14.61667 km/h
2070 29-01-2016 13:00:00 7.94167 C 6.49 g/m*3 4.94 C 18.5 km/h
2071 29-01-2016 14:00:00 8.325 C 6.59 g/m*3 6.05 C 13.56667 km/h
2072 29-01-2016 15:00:00 8.65833 C 6.73 g/m*3 6.64 C 12.34167 km/h
2073 29-01-2016 16:00:00 8.99167 C 6.81 g/m*3 7.39 C 10.20833 km/h
2074 29-01-2016 17:00:00 9.1 C 6.89 g/m*3 6.68 C 15.975 km/h
2075 29-01-2016 18:00:00 9.00833 C 6.94 g/m*3 6.64 C 15.43333 km/h
Sensor: Nr:Datum:Temp:Abs-Feuchte:Windchill:Wind:
Aussen-T/F 2076 29-01-2016 19:00:00 8.81667 C 6.98 g/m*3 6.65 C 13.56667 km/h
2077 29-01-2016 20:00:00 8.70833 C 7.06 g/m*3 6.71 C 12.23333 km/h
2078 29-01-2016 21:00:00 8.48333 C 7.13 g/m*3 6.81 C 10.075 km/h
2079 29-01-2016 22:00:00 8.4 C 7.13 g/m*3 6.18 C 13.3 km/h
2080 29-01-2016 23:00:00 8.44167 C 7.14 g/m*3 6.44 C 11.94167 km/h
2081 30-01-2016 00:00:00 8.46667 C 7.22 g/m*3 6.81 C 9.95833 km/h
2082 30-01-2016 01:00:00 8.4 C 7.25 g/m*3 6.16 C 13.43333 km/h
2083 30-01-2016 02:00:00 8.45833 C 7.32 g/m*3 5.18 C 22.53333 km/h
2084 30-01-2016 03:00:00 8.68333 C 7.38 g/m*3 5.19 C 25.725 km/h
2085 30-01-2016 04:00:00 8.925 C 7.33 g/m*3 5.59 C 24.66667 km/h
2086 30-01-2016 05:00:00 9.15833 C 7.27 g/m*3 5.99 C 23.45833 km/h
2087 30-01-2016 06:00:00 9.19167 C 7.23 g/m*3 6.1 C 22.65833 km/h
2088 30-01-2016 07:00:00 9.09167 C 7.2 g/m*3 5.82 C 24.41667 km/h
2089 30-01-2016 08:00:00 8.875 C 7.23 g/m*3 5.88 C 20.76667 km/h
2090 30-01-2016 09:00:00 8.55833 C 7.27 g/m*3 5.9 C 16.9 km/h
2091 30-01-2016 10:00:00 8.18 C 7.28 g/m*3 5.97 C 12.9 km/h
2092 30-01-2016 11:00:00 8.17778 C 7.17 g/m*3 5.69 C 14.84444 km/h
2093 30-01-2016 12:00:00 8.16667 C 7.22 g/m*3 5.22 C 18.51667 km/h
2094 30-01-2016 13:00:00 8.10833 C 7.32 g/m*3 4.95 C 20.38333 km/h
2095 30-01-2016 14:00:00 7.95833 C 7.26 g/m*3 4.72 C 20.775 km/h
2096 30-01-2016 15:00:00 7.63333 C 7.29 g/m*3 4.65 C 17.7 km/h
2097 30-01-2016 16:00:00 7.325 C 7.31 g/m*3 4.35 C 17.03333 km/h
2098 30-01-2016 17:00:00 6.79167 C 7.05 g/m*3 4.65 C 10.76667 km/h
2099 30-01-2016 18:00:00 6.40833 C 6.73 g/m*3 4.12 C 11.15 km/h
2100 30-01-2016 19:00:00 6.04167 C 6.47 g/m*3 3.55 C 11.825 km/h
Sensor: Nr:Datum:Temp:Abs-Feuchte:Windchill:Wind:
Aussen-T/F 2101 30-01-2016 20:00:00 5.7 C 6.28 g/m*3 3.19 C 11.55833 km/h
2102 30-01-2016 21:00:00 4.56667 C 5.87 g/m*3 1.77 C 11.80833 km/h
2103 30-01-2016 22:00:00 3.36667 C 5.56 g/m*3 1.47 C 7.125 km/h
2104 30-01-2016 23:00:00 2.69167 C 5.3 g/m*3 2.69 C 4 km/h
2105 31-01-2016 00:00:00 2.41667 C 5.34 g/m*3 2.42 C 3.48333 km/h
2106 31-01-2016 01:00:00 2.9 C 5.48 g/m*3 1.51 C 5.475 km/h
2107 31-01-2016 02:00:00 3.225 C 5.5 g/m*3 1.62 C 6.16667 km/h
2108 31-01-2016 03:00:00 3.54167 C 5.64 g/m*3 1.9 C 6.43333 km/h
2109 31-01-2016 04:00:00 4.16667 C 5.83 g/m*3 2.71 C 6.16667 km/h
2110 31-01-2016 05:00:00 4.225 C 5.87 g/m*3 2.91 C 5.76667 km/h
2111 31-01-2016 06:00:00 4.3 C 5.86 g/m*3 3.05 C 5.61667 km/h
2112 31-01-2016 07:00:00 3.825 C 5.75 g/m*3 3.83 C 4.14167 km/h
2113 31-01-2016 08:00:00 3.88333 C 5.8 g/m*3 3.88 C 4.00833 km/h
2114 31-01-2016 09:00:00 4.95 C 6.07 g/m*3 2.92 C 8.60833 km/h
2115 31-01-2016 10:00:00 5.7 C 6.17 g/m*3 2.86 C 13.43333 km/h
2116 31-01-2016 11:00:00 6.175 C 6.32 g/m*3 3.37 C 13.83333 km/h
2117 31-01-2016 12:00:00 6.975 C 6.6 g/m*3 4.44 C 13.3 km/h
2118 31-01-2016 13:00:00 7.55833 C 6.77 g/m*3 5.52 C 11.025 km/h
2119 31-01-2016 14:00:00 7.6 C 6.77 g/m*3 5.57 C 11.025 km/h
2120 31-01-2016 15:00:00 7.63333 C 6.88 g/m*3 5.57 C 11.29167 km/h
2121 31-01-2016 16:00:00 7.75 C 7 g/m*3 5.69 C 11.41667 km/h
2122 31-01-2016 17:00:00 7.85 C 7.16 g/m*3 5.83 C 11.3 km/h
2123 31-01-2016 18:00:00 8.25 C 7.42 g/m*3 5.96 C 13.56667 km/h
2124 31-01-2016 19:00:00 8.70833 C 7.77 g/m*3 6.46 C 13.96667 km/h
2125 31-01-2016 20:00:00 9.10833 C 8.05 g/m*3 7.24 C 11.95833 km/h
Sensor: Nr:Datum:Temp:Abs-Feuchte:Windchill:Wind:
Aussen-T/F 2126 31-01-2016 21:00:00 9.85 C 8.49 g/m*3 7.89 C 13.7 km/h
2127 31-01-2016 22:00:00 10.26667 C 8.85 g/m*3 9.13 C 9 km/h
2128 31-01-2016 23:00:00 10.80833 C 9.26 g/m*3 9.5 C 10.60833 km/h
2129 01-02-2016 00:00:00 11.30833 C 9.51 g/m*3 11.31 C 10.625 km/h
2130 01-02-2016 01:00:00 11.45833 C 9.68 g/m*3 11.46 C 10.1 km/h
2131 01-02-2016 02:00:00 11.76667 C 9.8 g/m*3 11.77 C 7.65 km/h
2132 01-02-2016 03:00:00 12.33333 C 9.78 g/m*3 12.33 C 9.54167 km/h
2133 01-02-2016 04:00:00 12.76667 C 9.6 g/m*3 12.77 C 13.16667 km/h
2134 01-02-2016 05:00:00 12.53333 C 9.5 g/m*3 12.53 C 14.1 km/h
2135 01-02-2016 06:00:00 12.175 C 9.46 g/m*3 12.18 C 10.49167 km/h
2136 01-02-2016 07:00:00 12.11667 C 9.36 g/m*3 12.12 C 11.16667 km/h
2137 01-02-2016 08:00:00 12.08333 C 9.36 g/m*3 12.08 C 9.95 km/h
2138 01-02-2016 09:00:00 11.95833 C 9.42 g/m*3 11.96 C 11.15833 km/h
2139 01-02-2016 10:00:00 12.45 C 9.52 g/m*3 12.45 C 13.96667 km/h
2140 01-02-2016 11:00:00 12.475 C 9.44 g/m*3 12.48 C 15.56667 km/h
2141 01-02-2016 12:00:00 12.41667 C 9.18 g/m*3 12.42 C 19.43333 km/h
2142 01-02-2016 13:00:00 12.18333 C 8.82 g/m*3 12.18 C 19.3 km/h
2143 01-02-2016 14:00:00 11.75833 C 8.32 g/m*3 11.76 C 22.26667 km/h
2144 01-02-2016 15:00:00 11.75833 C 8.17 g/m*3 11.76 C 22.4 km/h
2145 01-02-2016 16:00:00 11.76667 C 8.11 g/m*3 11.77 C 19.575 km/h
2146 01-02-2016 17:00:00 11.68333 C 8.08 g/m*3 11.68 C 16.5 km/h
2147 01-02-2016 18:00:00 11.69167 C 8.08 g/m*3 11.69 C 13.43333 km/h
2148 01-02-2016 19:00:00 11.69167 C 8.23 g/m*3 11.69 C 17.03333 km/h
2149 01-02-2016 20:00:00 11.61667 C 8.17 g/m*3 11.62 C 24.79167 km/h
2150 01-02-2016 21:00:00 11.79167 C 8.26 g/m*3 11.79 C 16.76667 km/h
Sensor: Nr:Datum:Temp:Abs-Feuchte:Windchill:Wind:
Aussen-T/F 2151 01-02-2016 22:00:00 11.45833 C 8.44 g/m*3 11.46 C 12.1 km/h
2152 01-02-2016 23:00:00 10.91667 C 8.65 g/m*3 9.69 C 10.21667 km/h
2153 02-02-2016 00:00:00 10.825 C 8.71 g/m*3 8.81 C 16.1 km/h
2154 02-02-2016 01:00:00 11.04167 C 8.76 g/m*3 11.04 C 14.36667 km/h
2155 02-02-2016 02:00:00 11.3 C 8.79 g/m*3 11.3 C 16.9 km/h
2156 02-02-2016 03:00:00 11.33333 C 8.79 g/m*3 11.33 C 14.9 km/h
2157 02-02-2016 04:00:00 11.38333 C 8.79 g/m*3 11.38 C 17.3 km/h
2158 02-02-2016 05:00:00 11.425 C 8.77 g/m*3 11.43 C 15.56667 km/h
2159 02-02-2016 06:00:00 11.43333 C 8.8 g/m*3 11.43 C 16.36667 km/h
2160 02-02-2016 07:00:00 11.34167 C 8.77 g/m*3 11.34 C 16.23333 km/h
2161 02-02-2016 08:00:00 11.55 C 8.77 g/m*3 11.55 C 17.44167 km/h
2162 02-02-2016 09:00:00 11.73333 C 8.8 g/m*3 11.73 C 18.76667 km/h
2163 02-02-2016 10:00:00 11.71667 C 8.91 g/m*3 11.72 C 18.10833 km/h
2164 02-02-2016 11:00:00 11.99167 C 9.05 g/m*3 11.99 C 19.30833 km/h
2165 02-02-2016 12:00:00 12.35833 C 9.11 g/m*3 12.36 C 19.3 km/h
2166 02-02-2016 13:00:00 12.31667 C 9.07 g/m*3 12.32 C 22.25 km/h
2167 02-02-2016 14:00:00 12.30833 C 9 g/m*3 12.31 C 23.59167 km/h
2168 02-02-2016 15:00:00 12.39167 C 8.99 g/m*3 12.39 C 18.775 km/h
2169 02-02-2016 16:00:00 11.95833 C 8.96 g/m*3 11.96 C 15.56667 km/h
2170 02-02-2016 17:00:00 8.95 C 7.94 g/m*3 8.11 C 6.56667 km/h
2171 02-02-2016 18:00:00 7.925 C 7.72 g/m*3 7.93 C 4.81667 km/h
2172 02-02-2016 19:00:00 7.64167 C 7.51 g/m*3 6.26 C 7.90833 km/h
2173 02-02-2016 20:00:00 7.44167 C 7.06 g/m*3 5.56 C 10.09167 km/h
2174 02-02-2016 21:00:00 6.8 C 6.8 g/m*3 5.55 C 6.85 km/h
2175 02-02-2016 22:00:00 6.45 C 6.77 g/m*3 5.03 C 7.23333 km/h
Sensor: Nr:Datum:Temp:Abs-Feuchte:Windchill:Wind:
Aussen-T/F 2176 02-02-2016 23:00:00 5.99167 C 6.47 g/m*3 4.46 C 7.375 km/h
2177 03-02-2016 00:00:00 6.06667 C 6.42 g/m*3 4.48 C 7.65 km/h
2178 03-02-2016 01:00:00 5.78333 C 6.39 g/m*3 4.37 C 6.84167 km/h
2179 03-02-2016 02:00:00 5.81667 C 6.3 g/m*3 3.95 C 8.6 km/h
2180 03-02-2016 03:00:00 5.78333 C 6.24 g/m*3 4.49 C 6.44167 km/h
2181 03-02-2016 04:00:00 5.43333 C 6.18 g/m*3 3.66 C 7.91667 km/h
2182 03-02-2016 05:00:00 5.69167 C 6.04 g/m*3 4.26 C 6.84167 km/h
2183 03-02-2016 06:00:00 4.90833 C 5.98 g/m*3 4.91 C 2.66667 km/h
2184 03-02-2016 07:00:00 4.99167 C 6.04 g/m*3 4.99 C 4.54167 km/h
2185 03-02-2016 08:00:00 5.19167 C 6.07 g/m*3 3.89 C 6.16667 km/h
2186 03-02-2016 09:00:00 5.76667 C 6.3 g/m*3 4.24 C 7.24167 km/h
2187 03-02-2016 10:00:00 5.8 C 6.26 g/m*3 3.92 C 8.61667 km/h
2188 03-02-2016 11:00:00 5.75 C 6.14 g/m*3 3.4 C 10.74167 km/h
2189 03-02-2016 12:00:00 3.76667 C 5.78 g/m*3 3.77 C 3.20833 km/h
2190 03-02-2016 13:00:00 4.3 C 6.1 g/m*3 4.3 C 2.66667 km/h
2191 03-02-2016 14:00:00 4.85 C 6.11 g/m*3 3.41 C 6.44167 km/h
2192 03-02-2016 15:00:00 5.675 C 5.48 g/m*3 3.15 C 11.56667 km/h
2193 03-02-2016 16:00:00 5.75833 C 5.15 g/m*3 3.6 C 9.80833 km/h
2194 03-02-2016 17:00:00 5.175 C 5.04 g/m*3 2.31 C 12.9 km/h
2195 03-02-2016 18:00:00 4.65833 C 5.18 g/m*3 3.52 C 5.475 km/h
2196 03-02-2016 19:00:00 4.69167 C 5.15 g/m*3 3.18 C 6.56667 km/h
2197 03-02-2016 20:00:00 4.61667 C 5.38 g/m*3 3.18 C 6.30833 km/h
2198 03-02-2016 21:00:00 4.45 C 5.5 g/m*3 4.45 C 4.80833 km/h
2199 03-02-2016 22:00:00 4.2 C 5.51 g/m*3 2.94 C 5.60833 km/h
2200 03-02-2016 23:00:00 4.30833 C 5.47 g/m*3 2.45 C 7.525 km/h
Sensor: Nr:Datum:Temp:Abs-Feuchte:Windchill:Wind:
Aussen-T/F 2201 04-02-2016 00:00:00 4.41667 C 5.43 g/m*3 2.33 C 8.46667 km/h
2202 04-02-2016 01:00:00 4.375 C 5.43 g/m*3 2.82 C 6.56667 km/h
2203 04-02-2016 02:00:00 4.04167 C 5.42 g/m*3 1.99 C 8.06667 km/h
2204 04-02-2016 03:00:00 3.79167 C 5.47 g/m*3 1.97 C 7.10833 km/h
2205 04-02-2016 04:00:00 3.49167 C 5.6 g/m*3 1.54 C 7.39167 km/h
2206 04-02-2016 05:00:00 3.11667 C 5.54 g/m*3 3.12 C 4.13333 km/h
2207 04-02-2016 06:00:00 2.5 C 5.35 g/m*3 2.5 C 3.33333 km/h
2208 04-02-2016 07:00:00 2.39167 C 5.33 g/m*3 0.06 C 8.05 km/h
2209 04-02-2016 08:00:00 3.44167 C 5.45 g/m*3 0.94 C 9.4 km/h
2210 04-02-2016 09:00:00 4.01667 C 5.55 g/m*3 0.92 C 12.75 km/h
2211 04-02-2016 10:00:00 4.49167 C 5.71 g/m*3 1.36 C 13.56667 km/h
2212 04-02-2016 11:00:00 4.69167 C 5.96 g/m*3 2.13 C 10.75 km/h
2213 04-02-2016 12:00:00 4.35 C 5.98 g/m*3 1.61 C 11.28333 km/h
2214 04-02-2016 13:00:00 4.30833 C 6.01 g/m*3 1.3 C 12.625 km/h
2215 04-02-2016 14:00:00 4.4 C 6.07 g/m*3 0.63 C 17.56667 km/h
2216 04-02-2016 15:00:00 4.75833 C 6.16 g/m*3 1.47 C 14.9 km/h
2217 04-02-2016 16:00:00 5.45833 C 6.44 g/m*3 2.84 C 11.83333 km/h
2218 04-02-2016 17:00:00 5.71667 C 6.67 g/m*3 4.41 C 6.44167 km/h
2219 04-02-2016 18:00:00 6.13333 C 6.97 g/m*3 4.74 C 6.975 km/h
2220 04-02-2016 19:00:00 6.61667 C 7.1 g/m*3 4.68 C 9.55 km/h
2221 04-02-2016 20:00:00 6.65833 C 6.98 g/m*3 4.65 C 9.95833 km/h
2222 04-02-2016 21:00:00 6.36667 C 6.91 g/m*3 6.37 C 4.00833 km/h
2223 04-02-2016 22:00:00 5.91667 C 6.79 g/m*3 5.92 C 3.075 km/h
2224 04-02-2016 23:00:00 5.45833 C 6.48 g/m*3 5.46 C 3.33333 km/h
2225 05-02-2016 00:00:00 4.825 C 6.24 g/m*3 4.83 C 0.4 km/h
Sensor: Nr:Datum:Temp:Abs-Feuchte:Windchill:Wind:
Aussen-T/F 2226 05-02-2016 01:00:00 4.45833 C 6.16 g/m*3 4.46 C 0.26667 km/h
2227 05-02-2016 02:00:00 4.16667 C 6.04 g/m*3 4.17 C 2.26667 km/h
2228 05-02-2016 03:00:00 3.94167 C 6.02 g/m*3 3.94 C 0 km/h
2229 05-02-2016 04:00:00 3.84167 C 5.98 g/m*3 3.84 C 0 km/h
2230 05-02-2016 05:00:00 3.675 C 5.91 g/m*3 3.68 C 0 km/h
2231 05-02-2016 06:00:00 3.825 C 6.02 g/m*3 3.83 C 0.4 km/h
2232 05-02-2016 07:00:00 4.45 C 6.29 g/m*3 4.45 C 1.46667 km/h
2233 05-02-2016 08:00:00 5.24167 C 6.65 g/m*3 5.24 C 3.33333 km/h
2234 05-02-2016 09:00:00 5.68333 C 6.84 g/m*3 5.68 C 1.6 km/h
2235 05-02-2016 10:00:00 6.86667 C 7.43 g/m*3 5.66 C 6.70833 km/h
2236 05-02-2016 11:00:00 8.1 C 7.88 g/m*3 6.22 C 10.76667 km/h
2237 05-02-2016 12:00:00 9.125 C 8.21 g/m*3 7.16 C 12.63333 km/h
2238 05-02-2016 13:00:00 9.925 C 8.38 g/m*3 7.95 C 13.96667 km/h
2239 05-02-2016 14:00:00 10.64167 C 8.52 g/m*3 8.69 C 15.16667 km/h
2240 05-02-2016 15:00:00 10.85 C 8.47 g/m*3 9.04 C 14.36667 km/h
2241 05-02-2016 16:00:00 10.8 C 8.4 g/m*3 9.43 C 11.01667 km/h
2242 05-02-2016 17:00:00 10.56667 C 8.29 g/m*3 9.63 C 8.20833 km/h
2243 05-02-2016 18:00:00 10.24167 C 8.2 g/m*3 9.81 C 5.76667 km/h
2244 05-02-2016 19:00:00 10.00833 C 8.09 g/m*3 10.01 C 4.13333 km/h
2245 05-02-2016 20:00:00 9.85 C 8 g/m*3 9.85 C 2.26667 km/h
2246 05-02-2016 21:00:00 9.525 C 8.03 g/m*3 9.53 C 0.53333 km/h
2247 05-02-2016 22:00:00 9.2 C 8.01 g/m*3 9.2 C 1.06667 km/h
2248 05-02-2016 23:00:00 9.25 C 7.97 g/m*3 9.25 C 0.66667 km/h
2249 06-02-2016 00:00:00 9.10833 C 7.92 g/m*3 9.11 C 0.13333 km/h
2250 06-02-2016 01:00:00 9.09167 C 7.8 g/m*3 9.09 C 0.93333 km/h
Sensor: Nr:Datum:Temp:Abs-Feuchte:Windchill:Wind:
Aussen-T/F 2251 06-02-2016 02:00:00 8.85833 C 7.7 g/m*3 8.86 C 0.53333 km/h
2252 06-02-2016 03:00:00 7.83333 C 7.31 g/m*3 7.83 C 0.93333 km/h
2253 06-02-2016 04:00:00 6.3 C 6.83 g/m*3 6.3 C 2.4 km/h
2254 06-02-2016 05:00:00 5.61667 C 6.64 g/m*3 5.62 C 0.13333 km/h
2255 06-02-2016 06:00:00 5.325 C 6.56 g/m*3 5.33 C 1.33333 km/h
2256 06-02-2016 07:00:00 5.35 C 6.61 g/m*3 5.35 C 2.26667 km/h
2257 06-02-2016 08:00:00 5.55 C 6.72 g/m*3 5.55 C 2.4 km/h
2258 06-02-2016 09:00:00 6.96667 C 7.32 g/m*3 6.97 C 1.6 km/h
2259 06-02-2016 10:00:00 7.30833 C 7.35 g/m*3 7.31 C 2 km/h
2260 06-02-2016 11:00:00 9.31667 C 8 g/m*3 9.32 C 2.26667 km/h
2261 06-02-2016 12:00:00 11.51667 C 7.97 g/m*3 11.52 C 8.08333 km/h
2262 06-02-2016 13:00:00 11.61667 C 7.66 g/m*3 11.62 C 9.38333 km/h
2263 06-02-2016 14:00:00 11.48333 C 7.91 g/m*3 11.48 C 2.13333 km/h
2264 06-02-2016 15:00:00 12.30833 C 7.87 g/m*3 12.31 C 5.23333 km/h
2265 06-02-2016 16:00:00 11.50833 C 7.74 g/m*3 11.51 C 1.33333 km/h
2266 06-02-2016 17:00:00 9.41667 C 7.35 g/m*3 9.42 C 2.8 km/h
2267 06-02-2016 18:00:00 7.98333 C 6.96 g/m*3 7.36 C 5.33333 km/h
2268 06-02-2016 19:00:00 7.95 C 7.02 g/m*3 7.95 C 3.2 km/h
2269 06-02-2016 20:00:00 8.26667 C 7.16 g/m*3 8.27 C 4.53333 km/h
2270 06-02-2016 21:00:00 7.425 C 7 g/m*3 7.43 C 4.8 km/h
2271 06-02-2016 22:00:00 7.10833 C 6.93 g/m*3 7.11 C 3.86667 km/h
2272 06-02-2016 23:00:00 7.625 C 7 g/m*3 7.63 C 4.94167 km/h
2273 07-02-2016 00:00:00 8.58333 C 7.07 g/m*3 8.58 C 4.40833 km/h
2274 07-02-2016 01:00:00 8.71667 C 7.03 g/m*3 8.72 C 4.275 km/h
2275 07-02-2016 02:00:00 8.61667 C 7.01 g/m*3 8.62 C 4.14167 km/h
Sensor: Nr:Datum:Temp:Abs-Feuchte:Windchill:Wind:
Aussen-T/F 2276 07-02-2016 03:00:00 8.25833 C 6.92 g/m*3 8.26 C 4.53333 km/h
2277 07-02-2016 04:00:00 8.15833 C 6.92 g/m*3 8.16 C 3.73333 km/h
2278 07-02-2016 05:00:00 8.66667 C 7 g/m*3 8.09 C 5.49167 km/h
2279 07-02-2016 06:00:00 10.29167 C 7.14 g/m*3 10.29 C 4.675 km/h
2280 07-02-2016 07:00:00 10.74167 C 7.25 g/m*3 10.74 C 2.94167 km/h
2281 07-02-2016 08:00:00 10.74167 C 7.35 g/m*3 10.74 C 4.275 km/h
2282 07-02-2016 09:00:00 11.05833 C 7.73 g/m*3 11.06 C 12.475 km/h
2283 07-02-2016 10:00:00 10.7 C 8.05 g/m*3 9.54 C 9.54167 km/h
2284 07-02-2016 11:00:00 10.31667 C 7.62 g/m*3 8.06 C 17.16667 km/h
2285 07-02-2016 12:00:00 10.39167 C 7.61 g/m*3 9.09 C 10.06667 km/h
2286 07-02-2016 13:00:00 10.59167 C 7.6 g/m*3 8.89 C 13.03333 km/h
2287 07-02-2016 14:00:00 10.275 C 7.11 g/m*3 8.5 C 13.025 km/h
2288 07-02-2016 15:00:00 9.9 C 6.69 g/m*3 8.1 C 12.63333 km/h
2289 07-02-2016 16:00:00 9.475 C 6.36 g/m*3 7.44 C 13.7 km/h
2290 07-02-2016 17:00:00 8.95833 C 6.21 g/m*3 7.23 C 10.88333 km/h
2291 07-02-2016 18:00:00 8.51667 C 6.23 g/m*3 6.34 C 13.15833 km/h
2292 07-02-2016 19:00:00 7.9 C 6.09 g/m*3 5.43 C 14.23333 km/h
2293 07-02-2016 20:00:00 7.6 C 6.09 g/m*3 5.29 C 12.75 km/h
2294 07-02-2016 21:00:00 7.63333 C 6.06 g/m*3 5.41 C 12.21667 km/h
2295 07-02-2016 22:00:00 7.74167 C 6.06 g/m*3 4.95 C 16.375 km/h
2296 07-02-2016 23:00:00 7.625 C 6.05 g/m*3 4.5 C 18.90833 km/h
2297 08-02-2016 00:00:00 7.7 C 6.12 g/m*3 4.77 C 17.43333 km/h
2298 08-02-2016 01:00:00 7.38333 C 6.1 g/m*3 5.39 C 10.60833 km/h
2299 08-02-2016 02:00:00 7.44167 C 6.1 g/m*3 6.19 C 7.25 km/h
2300 08-02-2016 03:00:00 7.525 C 6.06 g/m*3 5.77 C 9.525 km/h
Sensor: Nr:Datum:Temp:Abs-Feuchte:Windchill:Wind:
Aussen-T/F 2301 08-02-2016 04:00:00 8.05833 C 6.36 g/m*3 6.35 C 9.80833 km/h
2302 08-02-2016 05:00:00 8.55833 C 6.69 g/m*3 7.1 C 8.99167 km/h
2303 08-02-2016 06:00:00 8.85 C 6.86 g/m*3 7.4 C 9.25833 km/h
2304 08-02-2016 07:00:00 9.06667 C 7.26 g/m*3 7.55 C 9.81667 km/h
2305 08-02-2016 08:00:00 9.825 C 7.37 g/m*3 8.01 C 12.61667 km/h
2306 08-02-2016 09:00:00 9.86667 C 7.54 g/m*3 7.22 C 19.85 km/h
2307 08-02-2016 10:00:00 9.375 C 7.88 g/m*3 6.46 C 21.325 km/h
2308 08-02-2016 11:00:00 8.21667 C 7.74 g/m*3 7.05 C 7.39167 km/h
2309 08-02-2016 12:00:00 6.825 C 7.12 g/m*3 5.17 C 8.44167 km/h
2310 08-02-2016 13:00:00 6.775 C 7.21 g/m*3 4.51 C 11.40833 km/h
2311 08-02-2016 14:00:00 7.425 C 7.31 g/m*3 4.99 C 13.29167 km/h
2312 08-02-2016 15:00:00 7.84167 C 7.07 g/m*3 5.25 C 15.03333 km/h
2313 08-02-2016 16:00:00 8.19167 C 6.86 g/m*3 5.35 C 17.7 km/h
2314 08-02-2016 17:00:00 7.88333 C 6.57 g/m*3 4.87 C 18.5 km/h
2315 08-02-2016 18:00:00 7.75 C 6.32 g/m*3 4.41 C 21.19167 km/h
2316 08-02-2016 19:00:00 7.525 C 6.21 g/m*3 3.98 C 22.66667 km/h
2317 08-02-2016 20:00:00 7.73333 C 6.07 g/m*3 3.56 C 30.71667 km/h
2318 08-02-2016 21:00:00 8.05833 C 5.91 g/m*3 4.02 C 30.31667 km/h
2319 08-02-2016 22:00:00 8.24167 C 5.92 g/m*3 4.6 C 26.01667 km/h
2320 08-02-2016 23:00:00 8.05833 C 5.91 g/m*3 4.49 C 24.53333 km/h
2321 09-02-2016 00:00:00 7.65 C 6.05 g/m*3 4.14 C 22.66667 km/h
2322 09-02-2016 01:00:00 7.625 C 6.13 g/m*3 4.4 C 19.83333 km/h
2323 09-02-2016 02:00:00 7.41667 C 6.17 g/m*3 4.55 C 16.36667 km/h
2324 09-02-2016 03:00:00 6.65833 C 6.23 g/m*3 4.28 C 11.925 km/h
2325 09-02-2016 04:00:00 6.49167 C 6.41 g/m*3 4.31 C 10.63333 km/h
Sensor: Nr:Datum:Temp:Abs-Feuchte:Windchill:Wind:
Aussen-T/F 2326 09-02-2016 05:00:00 6.65833 C 6.51 g/m*3 4.6 C 10.2 km/h
2327 09-02-2016 06:00:00 6.225 C 6.53 g/m*3 4.77 C 7.24167 km/h
2328 09-02-2016 07:00:00 6.68333 C 6.32 g/m*3 5 C 8.45833 km/h
2329 09-02-2016 08:00:00 7.26667 C 6.3 g/m*3 5.69 C 8.46667 km/h
2330 09-02-2016 09:00:00 7.39167 C 6.41 g/m*3 7.39 C 3.20833 km/h
2331 09-02-2016 10:00:00 7.48333 C 6.92 g/m*3 7.48 C 2.93333 km/h
2332 09-02-2016 11:00:00 6.975 C 7.2 g/m*3 6.98 C 2.4 km/h
2333 09-02-2016 12:00:00 7.29167 C 7.42 g/m*3 5.54 C 9.275 km/h
2334 09-02-2016 13:00:00 8.96667 C 8.3 g/m*3 7.54 C 9.25833 km/h
2335 09-02-2016 14:00:00 9.76667 C 8.05 g/m*3 6.87 C 22.25 km/h
2336 09-02-2016 15:00:00 9.13333 C 7.87 g/m*3 7.27 C 11.95 km/h
2337 09-02-2016 16:00:00 8.64167 C 7.9 g/m*3 6.78 C 11.28333 km/h
2338 09-02-2016 17:00:00 8.3 C 7.88 g/m*3 7.59 C 5.76667 km/h
2339 09-02-2016 18:00:00 8.06667 C 7.56 g/m*3 5.04 C 19.05833 km/h
2340 09-02-2016 19:00:00 5.90833 C 6.38 g/m*3 1.96 C 22.25 km/h
2341 09-02-2016 20:00:00 5.24167 C 5.88 g/m*3 1.59 C 18.23333 km/h
2342 09-02-2016 21:00:00 5 C 5.79 g/m*3 2.24 C 12.1 km/h
2343 09-02-2016 22:00:00 5.06667 C 5.85 g/m*3 2.63 C 10.49167 km/h
2344 09-02-2016 23:00:00 4.75 C 5.59 g/m*3 2.31 C 10.21667 km/h
2345 10-02-2016 00:00:00 4.6 C 5.54 g/m*3 2.65 C 8.05833 km/h
2346 10-02-2016 01:00:00 3.79167 C 5.38 g/m*3 1.78 C 7.78333 km/h
2347 10-02-2016 02:00:00 3.66667 C 5.39 g/m*3 2.05 C 6.40833 km/h
2348 10-02-2016 03:00:00 4.08333 C 5.47 g/m*3 2.27 C 7.24167 km/h
2349 10-02-2016 04:00:00 3.95 C 5.5 g/m*3 2.55 C 5.9 km/h
2350 10-02-2016 05:00:00 4.51667 C 5.43 g/m*3 1.56 C 12.61667 km/h
Sensor: Nr:Datum:Temp:Abs-Feuchte:Windchill:Wind:
Aussen-T/F 2351 10-02-2016 06:00:00 4.65 C 5.33 g/m*3 1.44 C 14.23333 km/h
2352 10-02-2016 07:00:00 4.55 C 5.32 g/m*3 1.03 C 16.1 km/h
2353 10-02-2016 08:00:00 4.2 C 5.48 g/m*3 0.36 C 17.7 km/h
2354 10-02-2016 09:00:00 4.58333 C 5.55 g/m*3 1.15 C 15.56667 km/h
2355 10-02-2016 10:00:00 4.7 C 5.55 g/m*3 1.12 C 16.76667 km/h
2356 10-02-2016 11:00:00 4.70833 C 5.63 g/m*3 1.18 C 16.36667 km/h
2357 10-02-2016 12:00:00 4.80833 C 5.74 g/m*3 0.81 C 20.10833 km/h
2358 10-02-2016 13:00:00 5.375 C 5.96 g/m*3 2.05 C 16.1 km/h
2359 10-02-2016 14:00:00 5.80833 C 6.06 g/m*3 2.68 C 15.43333 km/h
2360 10-02-2016 15:00:00 6.08333 C 6.12 g/m*3 3.22 C 14.1 km/h
2361 10-02-2016 16:00:00 6.15833 C 6.11 g/m*3 3.1 C 15.56667 km/h
2362 10-02-2016 17:00:00 5.96667 C 6.07 g/m*3 2.88 C 15.43333 km/h
2363 10-02-2016 18:00:00 5.575 C 5.96 g/m*3 2.94 C 12.08333 km/h
2364 10-02-2016 19:00:00 5.13333 C 5.98 g/m*3 2.92 C 9.55 km/h
2365 10-02-2016 20:00:00 5.15 C 5.99 g/m*3 2.91 C 9.675 km/h
2366 10-02-2016 21:00:00 5.20833 C 6.06 g/m*3 2.86 C 10.225 km/h
2367 10-02-2016 22:00:00 4.80833 C 6.04 g/m*3 2.32 C 10.49167 km/h
2368 10-02-2016 23:00:00 4.7 C 6.07 g/m*3 2.87 C 7.65833 km/h
2369 11-02-2016 00:00:00 4.625 C 6.06 g/m*3 3.24 C 6.15 km/h
2370 11-02-2016 01:00:00 4.09167 C 5.85 g/m*3 2.87 C 5.475 km/h
2371 11-02-2016 02:00:00 3.725 C 5.75 g/m*3 2.4 C 5.61667 km/h
2372 11-02-2016 03:00:00 4.05 C 5.77 g/m*3 1.89 C 8.46667 km/h
2373 11-02-2016 04:00:00 3.91667 C 5.74 g/m*3 2.47 C 6.025 km/h
2374 11-02-2016 05:00:00 4.10833 C 5.75 g/m*3 2.07 C 8.06667 km/h
2375 11-02-2016 06:00:00 3.38333 C 5.57 g/m*3 1.67 C 6.575 km/h
Sensor: Nr:Datum:Temp:Abs-Feuchte:Windchill:Wind:
Aussen-T/F 2376 11-02-2016 07:00:00 3.7 C 5.68 g/m*3 1.82 C 7.25833 km/h
2377 11-02-2016 08:00:00 4.04167 C 5.78 g/m*3 2.92 C 5.2 km/h
2378 11-02-2016 09:00:00 4.31667 C 5.89 g/m*3 4.32 C 4.66667 km/h
2379 11-02-2016 10:00:00 5.125 C 6.12 g/m*3 3.99 C 5.625 km/h
2380 11-02-2016 11:00:00 6.05 C 6.15 g/m*3 4.13 C 9.01667 km/h
2381 11-02-2016 12:00:00 6.15833 C 6.09 g/m*3 3.89 C 10.75833 km/h
2382 11-02-2016 13:00:00 6.9 C 6.06 g/m*3 4.26 C 13.825 km/h
2383 11-02-2016 14:00:00 7.43333 C 6.14 g/m*3 5.3 C 11.425 km/h
2384 11-02-2016 15:00:00 7.78333 C 6.15 g/m*3 5.57 C 12.36667 km/h
2385 11-02-2016 16:00:00 6.225 C 6.03 g/m*3 5.25 C 5.63333 km/h
2386 11-02-2016 17:00:00 5.40833 C 5.75 g/m*3 5.41 C 4.94167 km/h
2387 11-02-2016 18:00:00 4.75833 C 5.73 g/m*3 3.02 C 7.39167 km/h
2388 11-02-2016 19:00:00 4.66667 C 5.88 g/m*3 4.67 C 3.475 km/h
2389 11-02-2016 20:00:00 4.625 C 5.85 g/m*3 4.63 C 2.8 km/h
2390 11-02-2016 21:00:00 4.25 C 5.81 g/m*3 4.25 C 0.66667 km/h
2391 11-02-2016 22:00:00 4.14167 C 5.78 g/m*3 4.14 C 3.06667 km/h
2392 11-02-2016 23:00:00 3.98333 C 5.7 g/m*3 3.98 C 1.86667 km/h
2393 12-02-2016 00:00:00 3.49167 C 5.59 g/m*3 3.49 C 2.4 km/h
2394 12-02-2016 01:00:00 3.16667 C 5.5 g/m*3 3.17 C 4.93333 km/h
2395 12-02-2016 02:00:00 2.99167 C 5.4 g/m*3 2.99 C 2.93333 km/h
2396 12-02-2016 03:00:00 2.5 C 5.27 g/m*3 2.5 C 1.46667 km/h
2397 12-02-2016 04:00:00 1.85833 C 5.06 g/m*3 1.86 C 2.26667 km/h
2398 12-02-2016 05:00:00 2.475 C 5.27 g/m*3 2.48 C 1.33333 km/h
2399 12-02-2016 06:00:00 2.725 C 5.26 g/m*3 2.73 C 2.28333 km/h
2400 12-02-2016 07:00:00 2.93333 C 5.14 g/m*3 2.93 C 3.61667 km/h
Sensor: Nr:Datum:Temp:Abs-Feuchte:Windchill:Wind:
Aussen-T/F 2401 12-02-2016 08:00:00 2.85 C 4.98 g/m*3 2.85 C 2.4 km/h
2402 12-02-2016 09:00:00 3.03333 C 4.99 g/m*3 3.03 C 0.53333 km/h
2403 12-02-2016 10:00:00 3.08333 C 5.12 g/m*3 3.08 C 3.46667 km/h
2404 12-02-2016 11:00:00 4.18333 C 5.26 g/m*3 4.18 C 4.81667 km/h
2405 12-02-2016 12:00:00 4.74167 C 5.32 g/m*3 2.96 C 7.50833 km/h
2406 12-02-2016 13:00:00 4.95833 C 5.23 g/m*3 2.93 C 8.6 km/h
2407 12-02-2016 14:00:00 5.29167 C 5.14 g/m*3 3.8 C 6.83333 km/h
2408 12-02-2016 15:00:00 5.4 C 5.1 g/m*3 4.26 C 5.76667 km/h
2409 12-02-2016 16:00:00 5.06667 C 5.18 g/m*3 5.07 C 3.75 km/h
2410 12-02-2016 17:00:00 3.50833 C 5.12 g/m*3 3.51 C 3.73333 km/h
2411 12-02-2016 18:00:00 2.63333 C 5.02 g/m*3 2.63 C 3.73333 km/h
2412 12-02-2016 19:00:00 1.93333 C 4.92 g/m*3 1.93 C 4.53333 km/h
2413 12-02-2016 20:00:00 1.6 C 4.84 g/m*3 1.6 C 3.86667 km/h
2414 12-02-2016 21:00:00 1.1 C 4.75 g/m*3 1.1 C 4 km/h
2415 12-02-2016 22:00:00 0.70833 C 4.67 g/m*3 0.71 C 2.93333 km/h
2416 12-02-2016 23:00:00 0.525 C 4.59 g/m*3 0.53 C 4.26667 km/h
2417 13-02-2016 00:00:00 0.06667 C 4.49 g/m*3 0.07 C 3.73333 km/h
2418 13-02-2016 01:00:00 -0.24167 C 4.42 g/m*3 -0.24 C 0.8 km/h
2419 13-02-2016 02:00:00 -0.89167 C 4.25 g/m*3 -0.89 C 0 km/h
2420 13-02-2016 03:00:00 -1.3 C 4.16 g/m*3 -1.3 C 0 km/h
2421 13-02-2016 04:00:00 -1.675 C 4.07 g/m*3 -1.68 C 0 km/h
2422 13-02-2016 05:00:00 -1.725 C 4.08 g/m*3 -1.73 C 0 km/h
2423 13-02-2016 06:00:00 -1.825 C 4.05 g/m*3 -1.83 C 0.26667 km/h
2424 13-02-2016 07:00:00 -1.2 C 4.28 g/m*3 -1.2 C 0.13333 km/h
2425 13-02-2016 08:00:00 -0.675 C 4.44 g/m*3 -0.68 C 0 km/h
Sensor: Nr:Datum:Temp:Abs-Feuchte:Windchill:Wind:
Aussen-T/F 2426 13-02-2016 09:00:00 0.05 C 4.67 g/m*3 0.05 C 0.26667 km/h
2427 13-02-2016 10:00:00 1.05833 C 4.99 g/m*3 1.06 C 0.53333 km/h
2428 13-02-2016 11:00:00 2.975 C 5.32 g/m*3 2.98 C 4.00833 km/h
2429 13-02-2016 12:00:00 4.03333 C 5.42 g/m*3 2.21 C 7.24167 km/h
2430 13-02-2016 13:00:00 4.375 C 5.55 g/m*3 3.09 C 5.75 km/h
2431 13-02-2016 14:00:00 4.25 C 5.71 g/m*3 4.25 C 4.675 km/h
2432 13-02-2016 15:00:00 3.85 C 5.73 g/m*3 3.85 C 3.86667 km/h
2433 13-02-2016 16:00:00 3.24167 C 5.67 g/m*3 3.24 C 4.26667 km/h
2434 13-02-2016 17:00:00 3.09167 C 5.68 g/m*3 3.09 C 3.21667 km/h
2435 13-02-2016 18:00:00 2.9 C 5.61 g/m*3 2.9 C 0.53333 km/h
2436 13-02-2016 19:00:00 3.04167 C 5.72 g/m*3 3.04 C 2 km/h
2437 13-02-2016 20:00:00 3.125 C 5.76 g/m*3 3.13 C 0.26667 km/h
2438 13-02-2016 21:00:00 3.59167 C 5.95 g/m*3 3.59 C 0.26667 km/h
2439 13-02-2016 22:00:00 3.775 C 6.07 g/m*3 3.78 C 0.26667 km/h
2440 13-02-2016 23:00:00 3.8 C 6.09 g/m*3 3.8 C 0 km/h
2441 14-02-2016 00:00:00 3.93333 C 6.14 g/m*3 3.93 C 0 km/h
2442 14-02-2016 01:00:00 4.08333 C 6.2 g/m*3 4.08 C 0 km/h
2443 14-02-2016 02:00:00 4.11667 C 6.22 g/m*3 4.12 C 0 km/h
2444 14-02-2016 03:00:00 4.25833 C 6.27 g/m*3 4.26 C 1.06667 km/h
2445 14-02-2016 04:00:00 4.175 C 6.24 g/m*3 4.18 C 1.46667 km/h
2446 14-02-2016 05:00:00 4.49167 C 6.37 g/m*3 4.49 C 0.53333 km/h
2447 14-02-2016 06:00:00 4.70833 C 6.46 g/m*3 4.71 C 0.13333 km/h
2448 14-02-2016 07:00:00 4.75 C 6.48 g/m*3 4.75 C 0 km/h
2449 14-02-2016 08:00:00 4.9 C 6.55 g/m*3 4.9 C 0 km/h
2450 14-02-2016 09:00:00 5.19167 C 6.68 g/m*3 5.19 C 0 km/h
Sensor: Nr:Datum:Temp:Abs-Feuchte:Windchill:Wind:
Aussen-T/F 2451 14-02-2016 10:00:00 5.11667 C 6.64 g/m*3 5.12 C 2.8 km/h
2452 14-02-2016 11:00:00 5.38333 C 6.75 g/m*3 5.38 C 4.14167 km/h
2453 14-02-2016 12:00:00 5.59167 C 6.69 g/m*3 4.68 C 5.2 km/h
2454 14-02-2016 13:00:00 5.71667 C 6.34 g/m*3 4.76 C 5.36667 km/h
2455 14-02-2016 14:00:00 5.51667 C 6.39 g/m*3 5.52 C 2.54167 km/h
2456 14-02-2016 15:00:00 5.48333 C 6.2 g/m*3 5.48 C 3.075 km/h
2457 14-02-2016 16:00:00 5.24167 C 6.27 g/m*3 5.24 C 0.53333 km/h
2458 14-02-2016 17:00:00 4.74167 C 6.22 g/m*3 4.74 C 0.93333 km/h
2459 14-02-2016 18:00:00 4.43333 C 6.15 g/m*3 4.43 C 2.4 km/h
2460 14-02-2016 19:00:00 4.39167 C 6.16 g/m*3 4.39 C 1.6 km/h
2461 14-02-2016 20:00:00 4.08333 C 6.07 g/m*3 4.08 C 1.33333 km/h
2462 14-02-2016 21:00:00 3.9 C 6.06 g/m*3 3.9 C 0.26667 km/h
2463 14-02-2016 22:00:00 3.84167 C 6.03 g/m*3 3.84 C 2.53333 km/h
2464 14-02-2016 23:00:00 3.54167 C 5.79 g/m*3 3.54 C 3.875 km/h
2465 15-02-2016 00:00:00 3.33333 C 5.65 g/m*3 3.33 C 4.55 km/h
2466 15-02-2016 01:00:00 3.00833 C 5.5 g/m*3 1.79 C 5.08333 km/h
2467 15-02-2016 02:00:00 2.73333 C 5.45 g/m*3 2.73 C 1.33333 km/h
2468 15-02-2016 03:00:00 2.56667 C 5.43 g/m*3 2.57 C 1.06667 km/h
2469 15-02-2016 04:00:00 2.4 C 5.33 g/m*3 2.4 C 2.8 km/h
2470 15-02-2016 05:00:00 2.3 C 5.27 g/m*3 2.3 C 4.80833 km/h
2471 15-02-2016 06:00:00 2.23333 C 5.22 g/m*3 2.23 C 4.81667 km/h
2472 15-02-2016 07:00:00 2.175 C 5.22 g/m*3 2.17 C 1.33333 km/h
2473 15-02-2016 08:00:00 1.94167 C 5.19 g/m*3 1.94 C 2.4 km/h
2474 15-02-2016 09:00:00 1.65833 C 5.14 g/m*3 1.66 C 4.675 km/h
2475 15-02-2016 10:00:00 1.94167 C 5.26 g/m*3 0.36 C 5.61667 km/h
Sensor: Nr:Datum:Temp:Abs-Feuchte:Windchill:Wind:
Aussen-T/F 2476 15-02-2016 11:00:00 2.60833 C 5.45 g/m*3 -0.16 C 9.825 km/h
2477 15-02-2016 12:00:00 2.63333 C 5.39 g/m*3 -0.46 C 11.28333 km/h
2478 15-02-2016 13:00:00 2.56667 C 5.36 g/m*3 0.22 C 8.2 km/h
2479 15-02-2016 14:00:00 2.50833 C 5.29 g/m*3 -0.07 C 9.00833 km/h
2480 15-02-2016 15:00:00 2.39167 C 5.23 g/m*3 -0.45 C 9.95833 km/h
2481 15-02-2016 16:00:00 2.20833 C 5.18 g/m*3 -0.92 C 11.03333 km/h
2482 15-02-2016 17:00:00 2.025 C 5.08 g/m*3 -1.1 C 10.88333 km/h
2483 15-02-2016 18:00:00 1.89167 C 5 g/m*3 -1.18 C 10.5 km/h
2484 15-02-2016 19:00:00 1.8 C 4.92 g/m*3 -1.47 C 11.29167 km/h
2485 15-02-2016 20:00:00 1.7 C 4.82 g/m*3 -1.07 C 9.15 km/h
2486 15-02-2016 21:00:00 1.6 C 4.75 g/m*3 -1.18 C 9.13333 km/h
2487 15-02-2016 22:00:00 1.44167 C 4.61 g/m*3 -0.63 C 6.71667 km/h
2488 15-02-2016 23:00:00 1.2 C 4.43 g/m*3 -2.07 C 10.75833 km/h
2489 16-02-2016 00:00:00 0.88333 C 4.32 g/m*3 -1.99 C 9 km/h
2490 16-02-2016 01:00:00 0.55 C 4.11 g/m*3 -2.54 C 9.54167 km/h
2491 16-02-2016 02:00:00 0.29167 C 4.01 g/m*3 -2.81 C 9.425 km/h
2492 16-02-2016 03:00:00 0.25833 C 4.02 g/m*3 -2.66 C 8.73333 km/h
2493 16-02-2016 04:00:00 0.06667 C 3.92 g/m*3 -3.26 C 10.1 km/h
2494 16-02-2016 05:00:00 -0.13333 C 3.86 g/m*3 -2.74 C 7.51667 km/h
2495 16-02-2016 06:00:00 -0.34167 C 3.83 g/m*3 -2.64 C 6.575 km/h
2496 16-02-2016 07:00:00 -0.675 C 3.83 g/m*3 -0.68 C 3.06667 km/h
2497 16-02-2016 08:00:00 -1.05 C 3.81 g/m*3 -1.05 C 1.33333 km/h
2498 16-02-2016 09:00:00 -1.1 C 3.85 g/m*3 -1.1 C 2.40833 km/h
2499 16-02-2016 10:00:00 -0.23333 C 3.89 g/m*3 -2.42 C 6.30833 km/h
2500 16-02-2016 11:00:00 0.58333 C 3.9 g/m*3 0.58 C 2.4 km/h
Sensor: Nr:Datum:Temp:Abs-Feuchte:Windchill:Wind:
Aussen-T/F 2501 16-02-2016 12:00:00 0.80833 C 3.97 g/m*3 0.81 C 1.73333 km/h
2502 16-02-2016 13:00:00 1.91667 C 4.02 g/m*3 1.92 C 4.94167 km/h
2503 16-02-2016 14:00:00 2.725 C 4.09 g/m*3 0.73 C 7.11667 km/h
2504 16-02-2016 15:00:00 3.1 C 4.11 g/m*3 3.1 C 4.80833 km/h
2505 16-02-2016 16:00:00 2.94167 C 4.36 g/m*3 2.94 C 3.075 km/h
2506 16-02-2016 17:00:00 1.21667 C 4.28 g/m*3 1.22 C 3.46667 km/h
2507 16-02-2016 18:00:00 -0.35833 C 4.04 g/m*3 -0.36 C 4.66667 km/h
2508 16-02-2016 19:00:00 -0.875 C 3.94 g/m*3 -0.88 C 4.53333 km/h
2509 16-02-2016 20:00:00 -1.13333 C 3.93 g/m*3 -1.13 C 3.46667 km/h
2510 16-02-2016 21:00:00 -1.44167 C 3.9 g/m*3 -1.44 C 0.8 km/h
2511 16-02-2016 22:00:00 -1.79167 C 3.83 g/m*3 -1.79 C 0.26667 km/h
2512 16-02-2016 23:00:00 -1.45833 C 3.98 g/m*3 -1.46 C 0 km/h
2513 17-02-2016 00:00:00 -1.29167 C 4.03 g/m*3 -1.29 C 0 km/h
2514 17-02-2016 01:00:00 -1.84167 C 3.9 g/m*3 -1.84 C 3.48333 km/h
2515 17-02-2016 02:00:00 -1.75 C 3.91 g/m*3 -1.75 C 0.8 km/h
2516 17-02-2016 03:00:00 -1.55 C 3.99 g/m*3 -1.55 C 0 km/h
2517 17-02-2016 04:00:00 -1.36667 C 4.05 g/m*3 -1.37 C 0 km/h
2518 17-02-2016 05:00:00 -1.55 C 3.99 g/m*3 -1.55 C 0 km/h
2519 17-02-2016 06:00:00 -2.175 C 3.83 g/m*3 -2.17 C 0 km/h
2520 17-02-2016 07:00:00 -2.63333 C 3.74 g/m*3 -2.63 C 0 km/h
2521 17-02-2016 08:00:00 -2.5 C 3.82 g/m*3 -2.5 C 0 km/h
2522 17-02-2016 09:00:00 -2.025 C 3.96 g/m*3 -2.03 C 0 km/h
2523 17-02-2016 10:00:00 -1.225 C 4.15 g/m*3 -1.23 C 1.73333 km/h
2524 17-02-2016 11:00:00 0.85833 C 4.52 g/m*3 0.86 C 3.34167 km/h
2525 17-02-2016 12:00:00 2.54167 C 4.59 g/m*3 0.93 C 5.9 km/h
Sensor: Nr:Datum:Temp:Abs-Feuchte:Windchill:Wind:
Aussen-T/F 2526 17-02-2016 13:00:00 3.35833 C 4.7 g/m*3 3.36 C 3.86667 km/h
2527 17-02-2016 14:00:00 3.71667 C 4.73 g/m*3 3.72 C 3.6 km/h
2528 17-02-2016 15:00:00 3.5 C 4.82 g/m*3 3.5 C 0.66667 km/h
2529 17-02-2016 16:00:00 3.25833 C 5.04 g/m*3 3.26 C 0 km/h
2530 17-02-2016 17:00:00 2.65 C 5.02 g/m*3 2.65 C 0.8 km/h
2531 17-02-2016 18:00:00 2.025 C 4.94 g/m*3 2.03 C 2.13333 km/h
2532 17-02-2016 19:00:00 1.675 C 4.92 g/m*3 1.68 C 0.4 km/h
2533 17-02-2016 20:00:00 1.54167 C 4.91 g/m*3 1.54 C 0 km/h
2534 17-02-2016 21:00:00 1.54167 C 4.94 g/m*3 1.54 C 0 km/h
2535 17-02-2016 22:00:00 1.49167 C 4.88 g/m*3 1.49 C 0 km/h
2536 17-02-2016 23:00:00 1.5 C 4.91 g/m*3 1.5 C 0 km/h
2537 18-02-2016 00:00:00 1.63333 C 4.99 g/m*3 1.63 C 0 km/h
2538 18-02-2016 01:00:00 1.525 C 4.95 g/m*3 1.53 C 0 km/h
2539 18-02-2016 02:00:00 1.4 C 4.96 g/m*3 1.4 C 0 km/h
2540 18-02-2016 03:00:00 1.4 C 4.97 g/m*3 1.4 C 0 km/h
2541 18-02-2016 04:00:00 1.4 C 5.01 g/m*3 1.4 C 0 km/h
2542 18-02-2016 05:00:00 1.35833 C 5 g/m*3 1.36 C 0 km/h
2543 18-02-2016 06:00:00 1.3 C 4.98 g/m*3 1.3 C 0 km/h
2544 18-02-2016 07:00:00 1.3 C 4.93 g/m*3 1.3 C 0 km/h
2545 18-02-2016 08:00:00 1.45 C 4.98 g/m*3 1.45 C 0 km/h
2546 18-02-2016 09:00:00 1.88333 C 5.13 g/m*3 1.88 C 0 km/h
2547 18-02-2016 10:00:00 2.50833 C 5.17 g/m*3 2.51 C 0.26667 km/h
2548 18-02-2016 11:00:00 3.66667 C 5.12 g/m*3 3.67 C 2.14167 km/h
2549 18-02-2016 12:00:00 4.24167 C 4.68 g/m*3 2.5 C 7.10833 km/h
2550 18-02-2016 13:00:00 4.76667 C 4.63 g/m*3 3.54 C 5.75 km/h
Sensor: Nr:Datum:Temp:Abs-Feuchte:Windchill:Wind:
Aussen-T/F 2551 18-02-2016 14:00:00 5.43333 C 4.52 g/m*3 4.09 C 6.41667 km/h
2552 18-02-2016 15:00:00 5.6 C 4.58 g/m*3 4.15 C 6.85833 km/h
2553 18-02-2016 16:00:00 4.95 C 4.79 g/m*3 4.95 C 2.80833 km/h
2554 18-02-2016 17:00:00 3.3 C 4.87 g/m*3 3.3 C 4.13333 km/h
2555 18-02-2016 18:00:00 1.88333 C 4.65 g/m*3 1.88 C 4.93333 km/h
2556 18-02-2016 19:00:00 1.26667 C 4.55 g/m*3 1.27 C 4 km/h
2557 18-02-2016 20:00:00 0.33333 C 4.35 g/m*3 0.33 C 0.66667 km/h
2558 18-02-2016 21:00:00 -0.55 C 4.11 g/m*3 -0.55 C 0 km/h
2559 18-02-2016 22:00:00 -0.79167 C 4.1 g/m*3 -0.79 C 0.13333 km/h
2560 18-02-2016 23:00:00 -0.55 C 4.2 g/m*3 -0.55 C 0 km/h
2561 19-02-2016 00:00:00 -0.425 C 4.23 g/m*3 -0.43 C 0 km/h
2562 19-02-2016 01:00:00 -0.24167 C 4.29 g/m*3 -0.24 C 0 km/h
2563 19-02-2016 02:00:00 -0.04167 C 4.35 g/m*3 -0.04 C 0 km/h
2564 19-02-2016 03:00:00 0 C 4.36 g/m*3 0 C 0 km/h
2565 19-02-2016 04:00:00 0 C 4.36 g/m*3 0 C 1.6 km/h
2566 19-02-2016 05:00:00 0.33333 C 4.49 g/m*3 0.33 C 0 km/h
2567 19-02-2016 06:00:00 0.525 C 4.57 g/m*3 0.53 C 0 km/h
2568 19-02-2016 07:00:00 0.63333 C 4.62 g/m*3 0.63 C 0.13333 km/h
2569 19-02-2016 08:00:00 0.88333 C 4.75 g/m*3 0.88 C 0.4 km/h
2570 19-02-2016 09:00:00 1.45 C 5.02 g/m*3 1.45 C 3.86667 km/h
2571 19-02-2016 10:00:00 1.975 C 5.21 g/m*3 1.98 C 4.66667 km/h
2572 19-02-2016 11:00:00 2.79167 C 5.46 g/m*3 1.55 C 5.06667 km/h
2573 19-02-2016 12:00:00 3.46667 C 5.57 g/m*3 1.68 C 6.84167 km/h
2574 19-02-2016 13:00:00 3.73333 C 5.66 g/m*3 2.41 C 5.60833 km/h
2575 19-02-2016 14:00:00 3.75833 C 5.79 g/m*3 3.76 C 4.675 km/h
Sensor: Nr:Datum:Temp:Abs-Feuchte:Windchill:Wind:
Aussen-T/F 2576 19-02-2016 15:00:00 4.38333 C 6.06 g/m*3 4.38 C 2.66667 km/h
2577 19-02-2016 16:00:00 4.61667 C 5.96 g/m*3 4.62 C 1.73333 km/h
2578 19-02-2016 17:00:00 3.05 C 5.5 g/m*3 3.05 C 1.86667 km/h
2579 19-02-2016 18:00:00 2.025 C 5.24 g/m*3 2.03 C 2.53333 km/h
2580 19-02-2016 19:00:00 1.425 C 5.08 g/m*3 1.43 C 0.66667 km/h
2581 19-02-2016 20:00:00 0.69167 C 4.83 g/m*3 0.69 C 0.4 km/h
2582 19-02-2016 21:00:00 0.19167 C 4.68 g/m*3 0.19 C 0.26667 km/h
2583 19-02-2016 22:00:00 -0.21667 C 4.56 g/m*3 -0.22 C 0 km/h
2584 19-02-2016 23:00:00 -0.56667 C 4.47 g/m*3 -0.57 C 0 km/h
2585 20-02-2016 00:00:00 0.175 C 4.72 g/m*3 0.18 C 0.4 km/h
2586 20-02-2016 01:00:00 1.2 C 5.08 g/m*3 1.2 C 0.93333 km/h
2587 20-02-2016 02:00:00 1.9 C 5.3 g/m*3 1.9 C 2.26667 km/h
2588 20-02-2016 03:00:00 2.93333 C 5.51 g/m*3 2.93 C 3.34167 km/h
2589 20-02-2016 04:00:00 4 C 5.69 g/m*3 4 C 4.14167 km/h
2590 20-02-2016 05:00:00 4.2 C 5.88 g/m*3 4.2 C 4.40833 km/h
2591 20-02-2016 06:00:00 4.23333 C 5.94 g/m*3 2.65 C 6.575 km/h
2592 20-02-2016 07:00:00 4.25 C 5.94 g/m*3 4.25 C 4.675 km/h
2593 20-02-2016 08:00:00 4.5 C 6.04 g/m*3 2.8 C 7.1 km/h
2594 20-02-2016 09:00:00 5.3 C 6.21 g/m*3 1.65 C 18.36667 km/h
2595 20-02-2016 10:00:00 6 C 6.45 g/m*3 2.56 C 18.1 km/h
2596 20-02-2016 11:00:00 6.68333 C 6.76 g/m*3 3.3 C 19.04167 km/h
2597 20-02-2016 12:00:00 7.2 C 6.99 g/m*3 3.94 C 19.16667 km/h
2598 20-02-2016 13:00:00 7.94167 C 7.3 g/m*3 5.18 C 16.5 km/h
2599 20-02-2016 14:00:00 8.425 C 7.56 g/m*3 6.02 C 14.63333 km/h
2600 20-02-2016 15:00:00 8.91667 C 7.89 g/m*3 6.91 C 12.63333 km/h
Sensor: Nr:Datum:Temp:Abs-Feuchte:Windchill:Wind:
Aussen-T/F 2601 20-02-2016 16:00:00 9.14167 C 8.14 g/m*3 7.55 C 10.34167 km/h
2602 20-02-2016 17:00:00 8.69167 C 8.13 g/m*3 8.69 C 2.675 km/h
2603 20-02-2016 18:00:00 8.70833 C 8.24 g/m*3 8.01 C 5.90833 km/h
2604 20-02-2016 19:00:00 9.00833 C 8.39 g/m*3 7.8 C 8.19167 km/h
2605 20-02-2016 20:00:00 9.36667 C 8.57 g/m*3 7.51 C 12.225 km/h
2606 20-02-2016 21:00:00 9.94167 C 8.8 g/m*3 7.7 C 16.23333 km/h
2607 20-02-2016 22:00:00 10.51667 C 8.96 g/m*3 8.35 C 16.76667 km/h
2608 20-02-2016 23:00:00 10.73333 C 9.15 g/m*3 8.65 C 16.5 km/h
2609 21-02-2016 00:00:00 11.075 C 9.32 g/m*3 11.08 C 17.03333 km/h
2610 21-02-2016 01:00:00 11.53333 C 9.55 g/m*3 11.53 C 15.03333 km/h
2611 21-02-2016 02:00:00 11.31667 C 9.64 g/m*3 11.32 C 9.95833 km/h
2612 21-02-2016 03:00:00 11.33333 C 9.69 g/m*3 11.33 C 14.5 km/h
2613 21-02-2016 04:00:00 11.13333 C 9.37 g/m*3 11.13 C 12.63333 km/h
2614 21-02-2016 05:00:00 11.24167 C 9.22 g/m*3 11.24 C 14.5 km/h
2615 21-02-2016 06:00:00 11.225 C 9.12 g/m*3 11.23 C 14.1 km/h
2616 21-02-2016 07:00:00 11.2 C 9.08 g/m*3 11.2 C 12.76667 km/h
2617 21-02-2016 08:00:00 11.25833 C 9.16 g/m*3 11.26 C 13.43333 km/h
2618 21-02-2016 09:00:00 11.675 C 9.38 g/m*3 11.68 C 15.3 km/h
2619 21-02-2016 10:00:00 12.35833 C 9.61 g/m*3 12.36 C 19.03333 km/h
2620 21-02-2016 11:00:00 12.90833 C 9.78 g/m*3 12.91 C 18.36667 km/h
2621 21-02-2016 12:00:00 13.275 C 9.77 g/m*3 13.28 C 23.73333 km/h
2622 21-02-2016 13:00:00 13.425 C 9.73 g/m*3 13.43 C 25.06667 km/h
2623 21-02-2016 14:00:00 13.24167 C 9.61 g/m*3 13.24 C 28.16667 km/h
2624 21-02-2016 15:00:00 13.11667 C 9.48 g/m*3 13.12 C 29.5 km/h
2625 21-02-2016 16:00:00 12.60833 C 9.33 g/m*3 12.61 C 28.96667 km/h
Sensor: Nr:Datum:Temp:Abs-Feuchte:Windchill:Wind:
Aussen-T/F 2626 21-02-2016 17:00:00 12.075 C 9.22 g/m*3 12.08 C 21.3 km/h
2627 21-02-2016 18:00:00 11.76667 C 9.14 g/m*3 11.77 C 24 km/h
2628 21-02-2016 19:00:00 11.53333 C 9.01 g/m*3 11.53 C 24.65 km/h
2629 21-02-2016 20:00:00 11.4 C 8.93 g/m*3 11.4 C 24.80833 km/h
2630 21-02-2016 21:00:00 11.3 C 8.85 g/m*3 11.3 C 25.875 km/h
2631 21-02-2016 22:00:00 11.125 C 8.6 g/m*3 11.13 C 22.51667 km/h
2632 21-02-2016 23:00:00 10.975 C 8.43 g/m*3 8.71 C 18.9 km/h
2633 22-02-2016 00:00:00 10.96667 C 8.19 g/m*3 8.74 C 18.5 km/h
2634 22-02-2016 01:00:00 10.81667 C 8.02 g/m*3 8.74 C 16.63333 km/h
2635 22-02-2016 02:00:00 10.61667 C 7.92 g/m*3 7.92 C 22.66667 km/h
2636 22-02-2016 03:00:00 10.28333 C 7.8 g/m*3 7.42 C 23.59167 km/h
2637 22-02-2016 04:00:00 10.28333 C 7.76 g/m*3 7.09 C 27.9 km/h
2638 22-02-2016 05:00:00 10.29167 C 7.75 g/m*3 7.33 C 24.8 km/h
2639 22-02-2016 06:00:00 10.24167 C 7.73 g/m*3 7.23 C 25.33333 km/h
2640 22-02-2016 07:00:00 10.05 C 7.72 g/m*3 7.11 C 23.725 km/h
2641 22-02-2016 08:00:00 9.85 C 7.69 g/m*3 6.85 C 23.71667 km/h
2642 22-02-2016 09:00:00 10.025 C 7.77 g/m*3 7.04 C 24.125 km/h
2643 22-02-2016 10:00:00 10.20833 C 8.01 g/m*3 7.33 C 23.44167 km/h
2644 22-02-2016 11:00:00 10.54167 C 8.14 g/m*3 7.61 C 25.35 km/h
2645 22-02-2016 12:00:00 11.09167 C 8.23 g/m*3 11.09 C 24.94167 km/h
2646 22-02-2016 13:00:00 11.51667 C 8.45 g/m*3 11.52 C 24.25833 km/h
2647 22-02-2016 14:00:00 11.70833 C 8.67 g/m*3 11.71 C 23.325 km/h
2648 22-02-2016 15:00:00 11.23333 C 8.71 g/m*3 11.23 C 19.7 km/h
2649 22-02-2016 16:00:00 10.80833 C 8.64 g/m*3 8.7 C 16.9 km/h
2650 22-02-2016 17:00:00 10.59167 C 8.53 g/m*3 8.58 C 15.56667 km/h
Sensor: Nr:Datum:Temp:Abs-Feuchte:Windchill:Wind:
Aussen-T/F 2651 22-02-2016 18:00:00 10.36667 C 8.47 g/m*3 8.65 C 12.76667 km/h
2652 22-02-2016 19:00:00 10.09167 C 8.23 g/m*3 7.99 C 15.3 km/h
2653 22-02-2016 20:00:00 5.96667 C 6.72 g/m*3 3.25 C 13.01667 km/h
2654 22-02-2016 21:00:00 4.79167 C 6.33 g/m*3 4.79 C 4.275 km/h
2655 22-02-2016 22:00:00 4.05833 C 6.06 g/m*3 4.06 C 1.73333 km/h
2656 22-02-2016 23:00:00 3.46667 C 5.82 g/m*3 2.15 C 5.48333 km/h
2657 23-02-2016 00:00:00 2.66667 C 5.52 g/m*3 2.67 C 1.06667 km/h
2658 23-02-2016 01:00:00 1.80833 C 5.19 g/m*3 1.81 C 0 km/h
2659 23-02-2016 02:00:00 1.43333 C 5.08 g/m*3 1.43 C 0.4 km/h
2660 23-02-2016 03:00:00 1.21667 C 5.03 g/m*3 1.22 C 0.8 km/h
2661 23-02-2016 04:00:00 1.05833 C 5 g/m*3 1.06 C 0 km/h
2662 23-02-2016 05:00:00 1 C 4.98 g/m*3 1 C 0 km/h
2663 23-02-2016 06:00:00 0.96667 C 4.97 g/m*3 0.97 C 0 km/h
2664 23-02-2016 07:00:00 1 C 4.98 g/m*3 1 C 0 km/h
2665 23-02-2016 08:00:00 1.14167 C 5.03 g/m*3 1.14 C 0 km/h
2666 23-02-2016 09:00:00 1.46667 C 5.18 g/m*3 1.47 C 0 km/h
2667 23-02-2016 10:00:00 1.88333 C 5.35 g/m*3 1.88 C 1.46667 km/h
2668 23-02-2016 11:00:00 2.325 C 5.51 g/m*3 2.33 C 3.86667 km/h
2669 23-02-2016 12:00:00 2.81667 C 5.7 g/m*3 1.57 C 5.075 km/h
2670 23-02-2016 13:00:00 3.44167 C 5.93 g/m*3 2.23 C 5.20833 km/h
2671 23-02-2016 14:00:00 3.8 C 6.02 g/m*3 2.69 C 5.08333 km/h
2672 23-02-2016 15:00:00 4.31667 C 6.21 g/m*3 4.32 C 3.60833 km/h
2673 23-02-2016 16:00:00 4.09167 C 6.09 g/m*3 3.02 C 5.08333 km/h
2674 23-02-2016 17:00:00 3.44167 C 5.77 g/m*3 1.57 C 7.10833 km/h
2675 23-02-2016 18:00:00 2.9 C 5.61 g/m*3 2.9 C 3.875 km/h
Sensor: Nr:Datum:Temp:Abs-Feuchte:Windchill:Wind:
Aussen-T/F 2676 23-02-2016 19:00:00 2.725 C 5.58 g/m*3 2.73 C 3.46667 km/h
2677 23-02-2016 20:00:00 3.03333 C 5.72 g/m*3 3.03 C 2.66667 km/h
2678 23-02-2016 21:00:00 2.25 C 5.4 g/m*3 2.25 C 1.6 km/h
2679 23-02-2016 22:00:00 1.825 C 5.27 g/m*3 1.83 C 0.13333 km/h
2680 23-02-2016 23:00:00 1.73333 C 5.26 g/m*3 1.73 C 2.275 km/h
2681 24-02-2016 00:00:00 2.24167 C 5.46 g/m*3 2.24 C 3.6 km/h
2682 24-02-2016 01:00:00 2.45833 C 5.51 g/m*3 2.46 C 3.61667 km/h
2683 24-02-2016 02:00:00 1.91667 C 5.3 g/m*3 1.92 C 2.94167 km/h
2684 24-02-2016 03:00:00 1.46667 C 5.14 g/m*3 1.47 C 2.8 km/h
2685 24-02-2016 04:00:00 1.45 C 5.14 g/m*3 1.45 C 1.86667 km/h
2686 24-02-2016 05:00:00 0.875 C 4.94 g/m*3 0.88 C 1.2 km/h
2687 24-02-2016 06:00:00 0.6 C 4.85 g/m*3 0.6 C 0.66667 km/h
2688 24-02-2016 07:00:00 0.79167 C 4.93 g/m*3 0.79 C 4 km/h
2689 24-02-2016 08:00:00 1.09167 C 5.04 g/m*3 -1.03 C 6.69167 km/h
2690 24-02-2016 09:00:00 1.425 C 5.13 g/m*3 1.43 C 4.13333 km/h
2691 24-02-2016 10:00:00 1.89167 C 5.3 g/m*3 1.89 C 2.95 km/h
2692 24-02-2016 11:00:00 2.71667 C 5.49 g/m*3 2.72 C 4.81667 km/h
2693 24-02-2016 12:00:00 4.01667 C 5.68 g/m*3 2.03 C 7.8 km/h
2694 24-02-2016 13:00:00 4.85 C 5.75 g/m*3 4.85 C 4.14167 km/h
2695 24-02-2016 14:00:00 5.85 C 5.4 g/m*3 5.85 C 3.46667 km/h
2696 24-02-2016 15:00:00 5.775 C 5.25 g/m*3 5.78 C 4.29167 km/h
2697 24-02-2016 16:00:00 5.56667 C 5.51 g/m*3 5.57 C 1.33333 km/h
2698 24-02-2016 17:00:00 3.675 C 5.36 g/m*3 3.68 C 3.06667 km/h
2699 24-02-2016 18:00:00 2.05833 C 5 g/m*3 0.72 C 5.06667 km/h
2700 24-02-2016 19:00:00 1.425 C 4.84 g/m*3 1.43 C 2.26667 km/h
Sensor: Nr:Datum:Temp:Abs-Feuchte:Windchill:Wind:
Aussen-T/F 2701 24-02-2016 20:00:00 0.70833 C 4.66 g/m*3 0.71 C 1.06667 km/h
2702 24-02-2016 21:00:00 0.04167 C 4.49 g/m*3 0.04 C 0 km/h
2703 24-02-2016 22:00:00 -0.46667 C 4.36 g/m*3 -0.47 C 0 km/h
2704 24-02-2016 23:00:00 -0.76667 C 4.3 g/m*3 -0.77 C 0.13333 km/h
2705 25-02-2016 00:00:00 -0.93333 C 4.27 g/m*3 -0.93 C 0 km/h
2706 25-02-2016 01:00:00 -1.24167 C 4.2 g/m*3 -1.24 C 0 km/h
2707 25-02-2016 02:00:00 -1.45 C 4.16 g/m*3 -1.45 C 0 km/h
2708 25-02-2016 03:00:00 -1.74167 C 4.08 g/m*3 -1.74 C 0.26667 km/h
2709 25-02-2016 04:00:00 -1.59167 C 4.16 g/m*3 -1.59 C 2 km/h
2710 25-02-2016 05:00:00 -1.80833 C 4.1 g/m*3 -1.81 C 0.4 km/h
2711 25-02-2016 06:00:00 -1.99167 C 4.05 g/m*3 -1.99 C 1.06667 km/h
2712 25-02-2016 07:00:00 -2.23333 C 3.98 g/m*3 -2.23 C 0.8 km/h
2713 25-02-2016 08:00:00 -2.15833 C 4 g/m*3 -2.16 C 1.6 km/h
2714 25-02-2016 09:00:00 -1.85833 C 4.11 g/m*3 -1.86 C 3.6 km/h
2715 25-02-2016 10:00:00 -1.51667 C 4.23 g/m*3 -1.52 C 2.53333 km/h
2716 25-02-2016 11:00:00 -0.70833 C 4.47 g/m*3 -0.71 C 1.6 km/h
2717 25-02-2016 12:00:00 0.45 C 4.85 g/m*3 0.45 C 0.13333 km/h
2718 25-02-2016 13:00:00 2.68333 C 5.62 g/m*3 2.68 C 0.13333 km/h
2719 25-02-2016 14:00:00 4.39167 C 5.3 g/m*3 4.39 C 4.95833 km/h
2720 25-02-2016 15:00:00 5.23333 C 4.81 g/m*3 3.58 C 7.36667 km/h
2721 25-02-2016 16:00:00 5.20833 C 4.79 g/m*3 4.29 C 5.075 km/h
2722 25-02-2016 17:00:00 4.74167 C 4.69 g/m*3 4.74 C 4.94167 km/h
2723 25-02-2016 18:00:00 2.66667 C 4.84 g/m*3 2.67 C 4.8 km/h
2724 25-02-2016 19:00:00 2.35 C 4.97 g/m*3 2.35 C 4.55 km/h
2725 25-02-2016 20:00:00 2.39167 C 5.09 g/m*3 2.39 C 0.93333 km/h
Sensor: Nr:Datum:Temp:Abs-Feuchte:Windchill:Wind:
Aussen-T/F 2726 25-02-2016 21:00:00 1.96667 C 5.03 g/m*3 1.97 C 0.4 km/h
2727 25-02-2016 22:00:00 1.675 C 5.01 g/m*3 1.68 C 0.13333 km/h
2728 25-02-2016 23:00:00 1.45833 C 4.96 g/m*3 1.46 C 0.13333 km/h
2729 26-02-2016 00:00:00 1.4 C 4.93 g/m*3 1.4 C 0.26667 km/h
2730 26-02-2016 01:00:00 1.29167 C 4.87 g/m*3 1.29 C 0 km/h
2731 26-02-2016 02:00:00 1.125 C 4.85 g/m*3 1.13 C 0.4 km/h
2732 26-02-2016 03:00:00 1.275 C 4.92 g/m*3 1.27 C 0.8 km/h
2733 26-02-2016 04:00:00 1.175 C 4.89 g/m*3 1.18 C 0 km/h
2734 26-02-2016 05:00:00 0.24167 C 4.58 g/m*3 0.24 C 0 km/h
2735 26-02-2016 06:00:00 0.1 C 4.58 g/m*3 0.1 C 0.4 km/h
2736 26-02-2016 07:00:00 0.2 C 4.62 g/m*3 0.2 C 0 km/h
2737 26-02-2016 08:00:00 0.63333 C 4.81 g/m*3 0.63 C 0.13333 km/h
2738 26-02-2016 09:00:00 1.425 C 5.01 g/m*3 1.43 C 0 km/h
2739 26-02-2016 10:00:00 2.65833 C 5.19 g/m*3 2.66 C 1.73333 km/h
2740 26-02-2016 11:00:00 4.06667 C 5.18 g/m*3 4.07 C 4.53333 km/h
2741 26-02-2016 12:00:00 4.58333 C 5.03 g/m*3 3.02 C 6.69167 km/h
2742 26-02-2016 13:00:00 4.75833 C 5.1 g/m*3 3.3 C 6.44167 km/h
2743 26-02-2016 14:00:00 5.03333 C 5.04 g/m*3 3.8 C 5.88333 km/h
2744 26-02-2016 15:00:00 5.175 C 4.79 g/m*3 4.1 C 5.48333 km/h
2745 26-02-2016 16:00:00 4.83333 C 4.95 g/m*3 4.83 C 1.33333 km/h
2746 26-02-2016 17:00:00 4.41667 C 4.88 g/m*3 4.42 C 1.2 km/h
2747 26-02-2016 18:00:00 3.35 C 4.78 g/m*3 3.35 C 0.13333 km/h
2748 26-02-2016 19:00:00 1.85833 C 4.64 g/m*3 1.86 C 4.4 km/h
2749 26-02-2016 20:00:00 1.725 C 4.73 g/m*3 1.73 C 3.06667 km/h
2750 26-02-2016 21:00:00 1.99167 C 4.77 g/m*3 1.99 C 1.33333 km/h
Sensor: Nr:Datum:Temp:Abs-Feuchte:Windchill:Wind:
Aussen-T/F 2751 26-02-2016 22:00:00 1.78333 C 4.64 g/m*3 1.78 C 1.06667 km/h
2752 26-02-2016 23:00:00 1.725 C 4.59 g/m*3 1.73 C 1.06667 km/h
2753 27-02-2016 00:00:00 1.76667 C 4.57 g/m*3 1.77 C 1.06667 km/h
2754 27-02-2016 01:00:00 1.75 C 4.63 g/m*3 1.75 C 0.4 km/h
2755 27-02-2016 02:00:00 1.66667 C 4.59 g/m*3 1.67 C 0 km/h
2756 27-02-2016 03:00:00 1.29167 C 4.5 g/m*3 1.29 C 0 km/h
2757 27-02-2016 04:00:00 0.25833 C 4.22 g/m*3 0.26 C 0 km/h
2758 27-02-2016 05:00:00 -0.58333 C 4.06 g/m*3 -0.58 C 1.73333 km/h
2759 27-02-2016 06:00:00 -0.75833 C 4.01 g/m*3 -0.76 C 3.33333 km/h
2760 27-02-2016 07:00:00 -0.8 C 4 g/m*3 -0.8 C 2.13333 km/h
2761 27-02-2016 08:00:00 -0.625 C 4.07 g/m*3 -0.63 C 0.93333 km/h
2762 27-02-2016 09:00:00 -0.3 C 4.17 g/m*3 -0.3 C 0.8 km/h
2763 27-02-2016 10:00:00 0.71667 C 4.33 g/m*3 0.72 C 2.66667 km/h
2764 27-02-2016 11:00:00 3.3 C 4.48 g/m*3 3.3 C 4.41667 km/h
2765 27-02-2016 12:00:00 4.74167 C 4.24 g/m*3 2.45 C 9.54167 km/h
2766 27-02-2016 13:00:00 6.01667 C 4.1 g/m*3 3.42 C 12.36667 km/h
2767 27-02-2016 14:00:00 6.775 C 4.12 g/m*3 4.07 C 14.08333 km/h
2768 27-02-2016 15:00:00 7.125 C 4.28 g/m*3 4.88 C 11.69167 km/h
2769 27-02-2016 16:00:00 7.33333 C 4.41 g/m*3 5.35 C 10.48333 km/h
2770 27-02-2016 17:00:00 6.34167 C 4.65 g/m*3 6.34 C 4.15 km/h
2771 27-02-2016 18:00:00 3.45833 C 4.62 g/m*3 3.46 C 4.26667 km/h
2772 27-02-2016 19:00:00 2.45 C 4.53 g/m*3 2.45 C 3.6 km/h
2773 27-02-2016 20:00:00 1.79167 C 4.47 g/m*3 1.79 C 1.33333 km/h
2774 27-02-2016 21:00:00 1.29167 C 4.36 g/m*3 1.29 C 2.66667 km/h
2775 27-02-2016 22:00:00 0.85 C 4.37 g/m*3 0.85 C 2.53333 km/h
Sensor: Nr:Datum:Temp:Abs-Feuchte:Windchill:Wind:
Aussen-T/F 2776 27-02-2016 23:00:00 0.70833 C 4.38 g/m*3 0.71 C 2.13333 km/h
2777 28-02-2016 00:00:00 0.25 C 4.29 g/m*3 0.25 C 1.06667 km/h
2778 28-02-2016 01:00:00 -0.28333 C 4.19 g/m*3 -0.28 C 0.53333 km/h
2779 28-02-2016 02:00:00 -0.95833 C 4.06 g/m*3 -0.96 C 0 km/h
2780 28-02-2016 03:00:00 -1.16667 C 4.03 g/m*3 -1.17 C 0.13333 km/h
2781 28-02-2016 04:00:00 -1.33333 C 3.99 g/m*3 -1.33 C 0 km/h
2782 28-02-2016 05:00:00 -1.325 C 3.98 g/m*3 -1.33 C 0 km/h
2783 28-02-2016 06:00:00 -1.5 C 3.94 g/m*3 -1.5 C 0.53333 km/h
2784 28-02-2016 07:00:00 -1.35 C 3.95 g/m*3 -1.35 C 1.06667 km/h
2785 28-02-2016 08:00:00 -0.81667 C 4.12 g/m*3 -0.82 C 0.4 km/h
2786 28-02-2016 09:00:00 0.27778 C 4.27 g/m*3 0.28 C 1.6 km/h
2787 28-02-2016 10:00:00 2.5 C 4.43 g/m*3 2.5 C 0.8 km/h
2788 28-02-2016 11:00:00 3.93333 C 4.51 g/m*3 1.49 C 9.54167 km/h
2789 28-02-2016 12:00:00 5.68333 C 4.49 g/m*3 3 C 12.49167 km/h
2790 28-02-2016 13:00:00 6.725 C 4.41 g/m*3 3.76 C 15.83333 km/h
2791 28-02-2016 14:00:00 6.98333 C 4.43 g/m*3 3.81 C 17.96667 km/h
2792 28-02-2016 15:00:00 6.59167 C 4.38 g/m*3 3.28 C 18.23333 km/h
2793 28-02-2016 16:00:00 6.16667 C 4.33 g/m*3 3.39 C 13.7 km/h
2794 28-02-2016 17:00:00 5.65833 C 4.21 g/m*3 2.31 C 16.76667 km/h
2795 28-02-2016 18:00:00 4.23333 C 4.51 g/m*3 2.65 C 6.56667 km/h
2796 28-02-2016 19:00:00 3.61667 C 4.47 g/m*3 2.26 C 5.65 km/h
2797 28-02-2016 20:00:00 2.2 C 4.48 g/m*3 2.2 C 3.2 km/h
2798 28-02-2016 21:00:00 1.8 C 4.38 g/m*3 1.8 C 2.66667 km/h
2799 28-02-2016 22:00:00 1.58333 C 4.41 g/m*3 1.58 C 1.86667 km/h
2800 28-02-2016 23:00:00 1.38333 C 4.39 g/m*3 1.38 C 2.26667 km/h
Sensor: Nr:Datum:Temp:Abs-Feuchte:Windchill:Wind:
Aussen-T/F 2801 29-02-2016 00:00:00 1.625 C 4.32 g/m*3 1.63 C 4.675 km/h
2802 29-02-2016 01:00:00 1.75833 C 4.29 g/m*3 0.2 C 5.48333 km/h
2803 29-02-2016 02:00:00 1.58333 C 4.29 g/m*3 1.58 C 4.80833 km/h
2804 29-02-2016 03:00:00 1.38333 C 4.26 g/m*3 -0.18 C 5.35833 km/h
2805 29-02-2016 04:00:00 0.96667 C 4.27 g/m*3 0.97 C 2 km/h
2806 29-02-2016 05:00:00 0.34167 C 4.22 g/m*3 0.34 C 1.2 km/h
2807 29-02-2016 06:00:00 0.19167 C 4.23 g/m*3 0.19 C 0.93333 km/h
2808 29-02-2016 07:00:00 0.30833 C 4.25 g/m*3 0.31 C 3.075 km/h
2809 29-02-2016 08:00:00 0.2 C 4.18 g/m*3 0.2 C 2.4 km/h
2810 29-02-2016 09:00:00 -0.14167 C 4.16 g/m*3 -0.14 C 2 km/h
2811 29-02-2016 10:00:00 1.65 C 4.41 g/m*3 -0.39 C 6.70833 km/h
2812 29-02-2016 11:00:00 4.65833 C 4.56 g/m*3 1.45 C 14.23333 km/h
2813 29-02-2016 12:00:00 6.54167 C 4.39 g/m*3 3.15 C 18.775 km/h
2814 29-02-2016 13:00:00 7.4 C 4.39 g/m*3 4.38 C 17.56667 km/h
2815 29-02-2016 14:00:00 7.65833 C 4.36 g/m*3 4.65 C 17.975 km/h
2816 29-02-2016 15:00:00 7.75 C 4.39 g/m*3 4.98 C 16.23333 km/h
2817 29-02-2016 16:00:00 7.58333 C 4.45 g/m*3 5.39 C 11.96667 km/h
2818 29-02-2016 17:00:00 6.95 C 4.23 g/m*3 3.95 C 16.5 km/h
2819 29-02-2016 18:00:00 6.08333 C 4 g/m*3 3.02 C 15.43333 km/h
2820 29-02-2016 19:00:00 4.875 C 3.98 g/m*3 2.14 C 11.83333 km/h
2821 29-02-2016 20:00:00 4.08333 C 4.01 g/m*3 1.23 C 11.55833 km/h
2822 29-02-2016 21:00:00 3.40833 C 4.01 g/m*3 0.9 C 9.41667 km/h
2823 29-02-2016 22:00:00 2.44167 C 3.96 g/m*3 2.44 C 2.53333 km/h
2824 29-02-2016 23:00:00 0.51667 C 3.86 g/m*3 0.52 C 1.2 km/h
2825 01-03-2016 00:00:00 -0.45833 C 3.76 g/m*3 -0.46 C 2.13333 km/h
Sensor: Nr:Datum:Temp:Abs-Feuchte:Windchill:Wind:
Aussen-T/F 2826 01-03-2016 01:00:00 -0.94167 C 3.77 g/m*3 -0.94 C 2.4 km/h
2827 01-03-2016 02:00:00 -1.38333 C 3.75 g/m*3 -1.38 C 0.8 km/h
2828 01-03-2016 03:00:00 -2.16667 C 3.65 g/m*3 -2.17 C 0 km/h
2829 01-03-2016 04:00:00 -2.61667 C 3.61 g/m*3 -2.62 C 0.4 km/h
2830 01-03-2016 05:00:00 -3.05833 C 3.55 g/m*3 -3.06 C 0.26667 km/h
2831 01-03-2016 06:00:00 -3.41667 C 3.51 g/m*3 -3.42 C 0.26667 km/h
2832 01-03-2016 07:00:00 -3.51667 C 3.51 g/m*3 -3.52 C 0.66667 km/h
2833 01-03-2016 08:00:00 -3.05833 C 3.64 g/m*3 -3.06 C 1.2 km/h
2834 01-03-2016 09:00:00 -2.5 C 3.78 g/m*3 -2.5 C 0.8 km/h
2835 01-03-2016 10:00:00 -0.875 C 4.13 g/m*3 -0.88 C 1.34167 km/h
2836 01-03-2016 11:00:00 2.16667 C 4.31 g/m*3 0.4 C 6.175 km/h
2837 01-03-2016 12:00:00 4.23333 C 4.14 g/m*3 1.44 C 11.43333 km/h
2838 01-03-2016 13:00:00 5.7 C 3.95 g/m*3 3.39 C 10.5 km/h
2839 01-03-2016 14:00:00 6.50833 C 3.9 g/m*3 4.21 C 11.3 km/h
2840 01-03-2016 15:00:00 6.36667 C 3.85 g/m*3 4.01 C 11.43333 km/h
2841 01-03-2016 16:00:00 5.76667 C 4.13 g/m*3 3.34 C 11.15 km/h
2842 01-03-2016 17:00:00 3.84167 C 4.95 g/m*3 3.84 C 2.675 km/h
2843 01-03-2016 18:00:00 2.43333 C 5.14 g/m*3 2.43 C 1.73333 km/h
2844 01-03-2016 19:00:00 2.525 C 5.15 g/m*3 1.02 C 5.625 km/h
2845 01-03-2016 20:00:00 2.39167 C 5.25 g/m*3 1.09 C 5.08333 km/h
2846 01-03-2016 21:00:00 2.75833 C 5.43 g/m*3 2.76 C 4.95 km/h
2847 01-03-2016 22:00:00 3.55833 C 5.68 g/m*3 0.71 C 11.025 km/h
2848 01-03-2016 23:00:00 4.24167 C 5.93 g/m*3 1.24 C 12.5 km/h
2849 02-03-2016 00:00:00 4.99167 C 6.18 g/m*3 2.04 C 13.14167 km/h
2850 02-03-2016 01:00:00 5.03333 C 6.25 g/m*3 5.03 C 4.14167 km/h
Sensor: Nr:Datum:Temp:Abs-Feuchte:Windchill:Wind:
Aussen-T/F 2851 02-03-2016 02:00:00 5.31667 C 6.4 g/m*3 5.32 C 4.68333 km/h
2852 02-03-2016 03:00:00 5.84167 C 6.61 g/m*3 5.84 C 2.8 km/h
2853 02-03-2016 04:00:00 5.84167 C 6.67 g/m*3 5.84 C 0.53333 km/h
2854 02-03-2016 05:00:00 6.45 C 6.97 g/m*3 4.55 C 9.25833 km/h
2855 02-03-2016 06:00:00 7.9 C 7.09 g/m*3 5.73 C 12.225 km/h
2856 02-03-2016 07:00:00 7.45833 C 7.17 g/m*3 7.46 C 2.93333 km/h
2857 02-03-2016 08:00:00 7.13333 C 7.33 g/m*3 7.13 C 3.75 km/h
2858 02-03-2016 09:00:00 7.55 C 7.38 g/m*3 6.28 C 7.38333 km/h
2859 02-03-2016 10:00:00 7.90833 C 7.36 g/m*3 5.77 C 12.075 km/h
2860 02-03-2016 11:00:00 8 C 6.89 g/m*3 5.65 C 13.56667 km/h
2861 02-03-2016 12:00:00 7.425 C 6.57 g/m*3 4.79 C 14.63333 km/h
2862 02-03-2016 13:00:00 7.6 C 5.93 g/m*3 5.46 C 11.69167 km/h
2863 02-03-2016 14:00:00 7.64167 C 5.64 g/m*3 6.22 C 8.06667 km/h
2864 02-03-2016 15:00:00 7.91667 C 5.74 g/m*3 6.26 C 9.40833 km/h
2865 02-03-2016 16:00:00 8.525 C 5.82 g/m*3 7.36 C 7.64167 km/h
2866 02-03-2016 17:00:00 7.85 C 5.71 g/m*3 7.85 C 4.95 km/h
2867 02-03-2016 18:00:00 5.85833 C 5.55 g/m*3 5.86 C 3.46667 km/h
2868 02-03-2016 19:00:00 4.48333 C 5.38 g/m*3 4.48 C 2.26667 km/h
2869 02-03-2016 20:00:00 5.1 C 5.44 g/m*3 3.35 C 7.64167 km/h
2870 02-03-2016 21:00:00 5.41667 C 5.5 g/m*3 3.17 C 9.93333 km/h
2871 02-03-2016 22:00:00 4.775 C 5.41 g/m*3 1.92 C 12.35833 km/h
2872 02-03-2016 23:00:00 4.28333 C 5.37 g/m*3 2.35 C 7.78333 km/h
2873 03-03-2016 00:00:00 4.1 C 5.2 g/m*3 1.39 C 10.89167 km/h
2874 03-03-2016 01:00:00 3.725 C 5.15 g/m*3 1.44 C 8.725 km/h
2875 03-03-2016 02:00:00 3.375 C 5.15 g/m*3 1.62 C 6.7 km/h
Sensor: Nr:Datum:Temp:Abs-Feuchte:Windchill:Wind:
Aussen-T/F 2876 03-03-2016 03:00:00 3.425 C 5.16 g/m*3 1.63 C 6.83333 km/h
2877 03-03-2016 04:00:00 3.41667 C 5.15 g/m*3 2.14 C 5.36667 km/h
2878 03-03-2016 05:00:00 3.60833 C 5.08 g/m*3 3.61 C 4.15 km/h
2879 03-03-2016 06:00:00 2.70833 C 4.96 g/m*3 2.71 C 0.93333 km/h
2880 03-03-2016 07:00:00 2.50833 C 5.12 g/m*3 2.51 C 1.06667 km/h
2881 03-03-2016 08:00:00 3.05 C 5.42 g/m*3 3.05 C 4.00833 km/h
2882 03-03-2016 09:00:00 4.05 C 5.66 g/m*3 4.05 C 4.14167 km/h
2883 03-03-2016 10:00:00 5.5 C 5.81 g/m*3 4.24 C 6.16667 km/h
2884 03-03-2016 11:00:00 5.65 C 5.71 g/m*3 3.39 C 10.23333 km/h
2885 03-03-2016 12:00:00 5.98333 C 5.82 g/m*3 4.14 C 8.625 km/h
2886 03-03-2016 13:00:00 5.85833 C 5.81 g/m*3 4.61 C 6.30833 km/h
2887 03-03-2016 14:00:00 5.78333 C 5.87 g/m*3 4.11 C 7.76667 km/h
2888 03-03-2016 15:00:00 4.13333 C 5.82 g/m*3 2.9 C 5.50833 km/h
2889 03-03-2016 16:00:00 4.65 C 6.09 g/m*3 3.18 C 6.44167 km/h
2890 03-03-2016 17:00:00 5.225 C 6.13 g/m*3 5.23 C 4.15 km/h
2891 03-03-2016 18:00:00 4.4 C 5.76 g/m*3 4.4 C 3.46667 km/h
2892 03-03-2016 19:00:00 2.71667 C 5.38 g/m*3 2.72 C 3.33333 km/h
2893 03-03-2016 20:00:00 1.625 C 5.06 g/m*3 1.63 C 0.26667 km/h
2894 03-03-2016 21:00:00 0.9 C 4.86 g/m*3 0.9 C 0.93333 km/h
2895 03-03-2016 22:00:00 0.44167 C 4.75 g/m*3 0.44 C 1.33333 km/h
2896 03-03-2016 23:00:00 -0.01667 C 4.6 g/m*3 -0.02 C 0.8 km/h
2897 04-03-2016 00:00:00 -0.325 C 4.51 g/m*3 -0.33 C 0.4 km/h
2898 04-03-2016 01:00:00 -0.53333 C 4.47 g/m*3 -0.53 C 0.93333 km/h
2899 04-03-2016 02:00:00 -0.61667 C 4.45 g/m*3 -0.62 C 0.26667 km/h
2900 04-03-2016 03:00:00 -1.325 C 4.24 g/m*3 -1.33 C 0 km/h
Sensor: Nr:Datum:Temp:Abs-Feuchte:Windchill:Wind:
Aussen-T/F 2901 04-03-2016 04:00:00 -1.475 C 4.2 g/m*3 -1.48 C 0.13333 km/h
2902 04-03-2016 05:00:00 -0.925 C 4.36 g/m*3 -0.93 C 0.53333 km/h
2903 04-03-2016 06:00:00 -0.81667 C 4.4 g/m*3 -0.82 C 1.2 km/h
2904 04-03-2016 07:00:00 -0.325 C 4.56 g/m*3 -0.33 C 1.33333 km/h
2905 04-03-2016 08:00:00 0.81667 C 4.92 g/m*3 0.82 C 4.15 km/h
2906 04-03-2016 09:00:00 1.7 C 5.05 g/m*3 -0.72 C 7.91667 km/h
2907 04-03-2016 10:00:00 2.475 C 5.1 g/m*3 0.96 C 5.625 km/h
2908 04-03-2016 11:00:00 3.25833 C 5.24 g/m*3 1.18 C 7.66667 km/h
2909 04-03-2016 12:00:00 3.9 C 5.35 g/m*3 1.32 C 10.1 km/h
2910 04-03-2016 13:00:00 4.2 C 5.41 g/m*3 2.01 C 8.725 km/h
2911 04-03-2016 14:00:00 3.70833 C 5.56 g/m*3 1.8 C 7.375 km/h
2912 04-03-2016 15:00:00 3.05 C 5.53 g/m*3 1.83 C 5.09167 km/h
2913 04-03-2016 16:00:00 2.89167 C 5.55 g/m*3 1.05 C 6.70833 km/h
2914 04-03-2016 17:00:00 3.25 C 5.68 g/m*3 3.25 C 3.88333 km/h
2915 04-03-2016 18:00:00 3.2 C 5.7 g/m*3 3.2 C 0.66667 km/h
2916 04-03-2016 19:00:00 3.19167 C 5.73 g/m*3 3.19 C 0 km/h
2917 04-03-2016 20:00:00 3.18333 C 5.77 g/m*3 3.18 C 0 km/h
2918 04-03-2016 21:00:00 3.225 C 5.79 g/m*3 3.23 C 0.13333 km/h
2919 04-03-2016 22:00:00 3.3 C 5.82 g/m*3 3.3 C 0 km/h
2920 04-03-2016 23:00:00 3.35833 C 5.86 g/m*3 3.36 C 0 km/h
2921 05-03-2016 00:00:00 3.39167 C 5.88 g/m*3 3.39 C 0 km/h
2922 05-03-2016 01:00:00 3.36667 C 5.87 g/m*3 3.37 C 0 km/h
2923 05-03-2016 02:00:00 3.25 C 5.85 g/m*3 3.25 C 0 km/h
2924 05-03-2016 03:00:00 3.2 C 5.85 g/m*3 3.2 C 0 km/h
2925 05-03-2016 04:00:00 3.28333 C 5.88 g/m*3 3.28 C 0 km/h
Sensor: Nr:Datum:Temp:Abs-Feuchte:Windchill:Wind:
Aussen-T/F 2926 05-03-2016 05:00:00 3.35 C 5.9 g/m*3 3.35 C 0 km/h
2927 05-03-2016 06:00:00 3.29167 C 5.88 g/m*3 3.29 C 0.26667 km/h
2928 05-03-2016 07:00:00 3.2 C 5.85 g/m*3 3.2 C 0.66667 km/h
2929 05-03-2016 08:00:00 3.2 C 5.85 g/m*3 3.2 C 1.46667 km/h
2930 05-03-2016 09:00:00 3.36667 C 5.91 g/m*3 3.37 C 2.4 km/h
2931 05-03-2016 10:00:00 3.95833 C 6.15 g/m*3 3.96 C 4.8 km/h
2932 05-03-2016 11:00:00 4.675 C 6.39 g/m*3 3.69 C 5.06667 km/h
2933 05-03-2016 12:00:00 6.16667 C 6.72 g/m*3 3.61 C 12.36667 km/h
2934 05-03-2016 13:00:00 6.95 C 6.72 g/m*3 4.6 C 12.1 km/h
2935 05-03-2016 14:00:00 7.1 C 6.53 g/m*3 5.02 C 10.76667 km/h
2936 05-03-2016 15:00:00 7.65833 C 6.49 g/m*3 5.92 C 9.55833 km/h
2937 05-03-2016 16:00:00 7.85833 C 6.25 g/m*3 6.19 C 9.41667 km/h
2938 05-03-2016 17:00:00 7.04167 C 6.04 g/m*3 7.04 C 4.69167 km/h
2939 05-03-2016 18:00:00 5.05 C 5.91 g/m*3 5.05 C 2 km/h
2940 05-03-2016 19:00:00 3.86667 C 5.73 g/m*3 3.87 C 1.86667 km/h
2941 05-03-2016 20:00:00 2.95 C 5.48 g/m*3 2.95 C 4.26667 km/h
2942 05-03-2016 21:00:00 2.525 C 5.4 g/m*3 2.53 C 1.6 km/h
2943 05-03-2016 22:00:00 2.70833 C 5.49 g/m*3 2.71 C 0.93333 km/h
2944 05-03-2016 23:00:00 2.30833 C 5.36 g/m*3 2.31 C 0.8 km/h
2945 06-03-2016 00:00:00 2.30833 C 5.37 g/m*3 2.31 C 1.875 km/h
2946 06-03-2016 01:00:00 2.21667 C 5.3 g/m*3 0.41 C 6.31667 km/h
2947 06-03-2016 02:00:00 2.30833 C 5.33 g/m*3 2.31 C 4.13333 km/h
2948 06-03-2016 03:00:00 2.3 C 5.34 g/m*3 2.3 C 2.66667 km/h
2949 06-03-2016 04:00:00 2.3 C 5.39 g/m*3 2.3 C 0.66667 km/h
2950 06-03-2016 05:00:00 2.35833 C 5.37 g/m*3 2.36 C 2.26667 km/h
Sensor: Nr:Datum:Temp:Abs-Feuchte:Windchill:Wind:
Aussen-T/F 2951 06-03-2016 06:00:00 1.925 C 5.19 g/m*3 1.93 C 1.73333 km/h
2952 06-03-2016 07:00:00 2.10833 C 5.24 g/m*3 2.11 C 3.475 km/h
2953 06-03-2016 08:00:00 2.65 C 5.32 g/m*3 2.65 C 2.93333 km/h
2954 06-03-2016 09:00:00 3.26667 C 5.61 g/m*3 2.09 C 5.06667 km/h
2955 06-03-2016 10:00:00 3.425 C 5.74 g/m*3 2.1 C 5.49167 km/h
2956 06-03-2016 11:00:00 3.58333 C 5.83 g/m*3 3.58 C 4.54167 km/h
2957 06-03-2016 12:00:00 4.13333 C 6.04 g/m*3 1.96 C 8.6 km/h
2958 06-03-2016 13:00:00 4.56667 C 6.07 g/m*3 3.04 C 6.575 km/h
2959 06-03-2016 14:00:00 3.59167 C 5.8 g/m*3 2.34 C 5.36667 km/h
2960 06-03-2016 15:00:00 4.25 C 6.13 g/m*3 3.15 C 5.21667 km/h
2961 06-03-2016 16:00:00 4.59167 C 6.18 g/m*3 2.54 C 8.44167 km/h
2962 06-03-2016 17:00:00 3.43333 C 5.72 g/m*3 3.43 C 2.13333 km/h
2963 06-03-2016 18:00:00 3.15833 C 5.71 g/m*3 3.16 C 2.26667 km/h
2964 06-03-2016 19:00:00 3.25 C 5.8 g/m*3 3.25 C 3.34167 km/h
2965 06-03-2016 20:00:00 3.16667 C 5.76 g/m*3 3.17 C 4.275 km/h
2966 06-03-2016 21:00:00 2.70833 C 5.58 g/m*3 2.71 C 0.53333 km/h
2967 06-03-2016 22:00:00 2.675 C 5.58 g/m*3 2.68 C 0 km/h
2968 06-03-2016 23:00:00 2.76667 C 5.62 g/m*3 2.77 C 1.06667 km/h
2969 07-03-2016 00:00:00 2.65 C 5.57 g/m*3 2.65 C 0.93333 km/h
2970 07-03-2016 01:00:00 2.3 C 5.44 g/m*3 2.3 C 0.4 km/h
2971 07-03-2016 02:00:00 2 C 5.33 g/m*3 2 C 0 km/h
2972 07-03-2016 03:00:00 1.8 C 5.29 g/m*3 1.8 C 0.8 km/h
2973 07-03-2016 04:00:00 2.05 C 5.41 g/m*3 2.05 C 1.2 km/h
2974 07-03-2016 05:00:00 1.59167 C 5.21 g/m*3 1.59 C 0.26667 km/h
2975 07-03-2016 06:00:00 1.55 C 5.23 g/m*3 1.55 C 0.53333 km/h
Sensor: Nr:Datum:Temp:Abs-Feuchte:Windchill:Wind:
Aussen-T/F 2976 07-03-2016 07:00:00 1.80833 C 5.32 g/m*3 1.81 C 0.53333 km/h
2977 07-03-2016 08:00:00 2.2 C 5.46 g/m*3 2.2 C 1.46667 km/h
2978 07-03-2016 09:00:00 3.1 C 5.8 g/m*3 3.1 C 2.66667 km/h
2979 07-03-2016 10:00:00 3.775 C 5.85 g/m*3 2.66 C 5.08333 km/h
2980 07-03-2016 11:00:00 3.83333 C 5.68 g/m*3 3.83 C 4.95 km/h
2981 07-03-2016 12:00:00 3.35833 C 5.64 g/m*3 1.34 C 7.53333 km/h
2982 07-03-2016 13:00:00 3.60833 C 5.69 g/m*3 1.89 C 6.7 km/h
2983 07-03-2016 14:00:00 4.50833 C 5.72 g/m*3 3.02 C 6.425 km/h
2984 07-03-2016 15:00:00 4.71667 C 5.53 g/m*3 4.72 C 4.025 km/h
2985 07-03-2016 16:00:00 4.5 C 5.69 g/m*3 2.68 C 7.525 km/h
2986 07-03-2016 17:00:00 3.5 C 5.55 g/m*3 3.5 C 4.15833 km/h
2987 07-03-2016 18:00:00 2.16667 C 5.19 g/m*3 2.17 C 3.2 km/h
2988 07-03-2016 19:00:00 1.56667 C 5.09 g/m*3 1.57 C 2.93333 km/h
2989 07-03-2016 20:00:00 1.11667 C 4.97 g/m*3 1.12 C 1.6 km/h
2990 07-03-2016 21:00:00 0.51667 C 4.77 g/m*3 0.52 C 1.06667 km/h
2991 07-03-2016 22:00:00 0.03333 C 4.63 g/m*3 0.03 C 0 km/h
2992 07-03-2016 23:00:00 -0.56667 C 4.47 g/m*3 -0.57 C 0 km/h
2993 08-03-2016 00:00:00 -0.80833 C 4.4 g/m*3 -0.81 C 0 km/h
2994 08-03-2016 01:00:00 -1.03333 C 4.33 g/m*3 -1.03 C 0 km/h
2995 08-03-2016 02:00:00 -0.90833 C 4.37 g/m*3 -0.91 C 0.53333 km/h
2996 08-03-2016 03:00:00 -0.7 C 4.45 g/m*3 -0.7 C 0.26667 km/h
2997 08-03-2016 04:00:00 -0.36667 C 4.58 g/m*3 -0.37 C 0 km/h
2998 08-03-2016 05:00:00 -0.18333 C 4.64 g/m*3 -0.18 C 2.93333 km/h
2999 08-03-2016 06:00:00 -0.125 C 4.66 g/m*3 -0.13 C 2.13333 km/h
3000 08-03-2016 07:00:00 -0.09167 C 4.67 g/m*3 -0.09 C 0.8 km/h
Sensor: Nr:Datum:Temp:Abs-Feuchte:Windchill:Wind:
Aussen-T/F 3001 08-03-2016 08:00:00 0.15833 C 4.75 g/m*3 0.16 C 2.4 km/h
3002 08-03-2016 09:00:00 0.34167 C 4.81 g/m*3 -1.41 C 5.475 km/h
3003 08-03-2016 10:00:00 0.76667 C 4.95 g/m*3 0.77 C 4.13333 km/h
3004 08-03-2016 11:00:00 1.5 C 5.21 g/m*3 1.5 C 3.73333 km/h
3005 08-03-2016 12:00:00 2.41667 C 5.43 g/m*3 2.42 C 2.13333 km/h
3006 08-03-2016 13:00:00 4.35833 C 5.51 g/m*3 4.36 C 4.81667 km/h
3007 08-03-2016 14:00:00 5.575 C 5.38 g/m*3 5.58 C 4.53333 km/h
3008 08-03-2016 15:00:00 6.15833 C 5.34 g/m*3 4.84 C 6.70833 km/h
3009 08-03-2016 16:00:00 6.45 C 5.26 g/m*3 4.54 C 9.29167 km/h
3010 08-03-2016 17:00:00 5.975 C 5.51 g/m*3 5.98 C 3.625 km/h
3011 08-03-2016 18:00:00 3.41667 C 5.37 g/m*3 3.42 C 2.66667 km/h
3012 08-03-2016 19:00:00 2.13333 C 5.03 g/m*3 2.13 C 4.13333 km/h
3013 08-03-2016 20:00:00 1.85833 C 5.05 g/m*3 1.86 C 1.46667 km/h
3014 08-03-2016 21:00:00 2.38333 C 5.12 g/m*3 2.38 C 1.6 km/h
3015 08-03-2016 22:00:00 2.13333 C 4.93 g/m*3 2.13 C 3.46667 km/h
3016 08-03-2016 23:00:00 0.71667 C 4.67 g/m*3 0.72 C 1.33333 km/h
3017 09-03-2016 00:00:00 0.04167 C 4.54 g/m*3 0.04 C 2.93333 km/h
3018 09-03-2016 01:00:00 -0.18333 C 4.5 g/m*3 -0.18 C 1.73333 km/h
3019 09-03-2016 02:00:00 0.25833 C 4.62 g/m*3 0.26 C 3.2 km/h
3020 09-03-2016 03:00:00 0.54167 C 4.59 g/m*3 0.54 C 0.8 km/h
3021 09-03-2016 04:00:00 -0.25833 C 4.36 g/m*3 -0.26 C 2 km/h
3022 09-03-2016 05:00:00 -0.11667 C 4.45 g/m*3 -0.12 C 1.33333 km/h
3023 09-03-2016 06:00:00 -0.09167 C 4.38 g/m*3 -0.09 C 2.675 km/h
3024 09-03-2016 07:00:00 0.60833 C 4.5 g/m*3 -1.96 C 7.79167 km/h
3025 09-03-2016 08:00:00 0.625 C 4.53 g/m*3 0.63 C 2.4 km/h
Sensor: Nr:Datum:Temp:Abs-Feuchte:Windchill:Wind:
Aussen-T/F 3026 09-03-2016 09:00:00 0.89167 C 4.65 g/m*3 0.89 C 3.35 km/h
3027 09-03-2016 10:00:00 2.025 C 4.8 g/m*3 -0.21 C 7.51667 km/h
3028 09-03-2016 11:00:00 2.73333 C 4.91 g/m*3 -0.28 C 11.025 km/h
3029 09-03-2016 12:00:00 4.15 C 5.12 g/m*3 2.01 C 8.45833 km/h
3030 09-03-2016 13:00:00 5.70833 C 5.3 g/m*3 3.76 C 8.86667 km/h
3031 09-03-2016 14:00:00 7.44167 C 5.16 g/m*3 5.36 C 11.15833 km/h
3032 09-03-2016 15:00:00 8.2 C 4.8 g/m*3 6.52 C 9.8 km/h
3033 09-03-2016 16:00:00 9.10833 C 5.02 g/m*3 7.28 C 11.68333 km/h
3034 09-03-2016 17:00:00 8.075 C 5.2 g/m*3 8.07 C 4.825 km/h
3035 09-03-2016 18:00:00 4.94167 C 5.18 g/m*3 4.94 C 3.46667 km/h
3036 09-03-2016 19:00:00 2.98333 C 4.95 g/m*3 2.98 C 4.93333 km/h
3037 09-03-2016 20:00:00 2.19167 C 4.82 g/m*3 2.19 C 4.93333 km/h
3038 09-03-2016 21:00:00 1.40833 C 4.68 g/m*3 -0.08 C 5.2 km/h
3039 09-03-2016 22:00:00 0.85 C 4.58 g/m*3 0.85 C 4.53333 km/h
3040 09-03-2016 23:00:00 0.45833 C 4.5 g/m*3 0.46 C 3.46667 km/h
3041 10-03-2016 00:00:00 -0.10833 C 4.37 g/m*3 -0.11 C 1.2 km/h
3042 10-03-2016 01:00:00 -1.025 C 4.15 g/m*3 -1.02 C 0 km/h
3043 10-03-2016 02:00:00 -1.525 C 4.04 g/m*3 -1.53 C 0 km/h
3044 10-03-2016 03:00:00 -1.53333 C 4.07 g/m*3 -1.53 C 0 km/h
3045 10-03-2016 04:00:00 -1.79167 C 4.01 g/m*3 -1.79 C 0 km/h
3046 10-03-2016 05:00:00 -2.26667 C 3.89 g/m*3 -2.27 C 0 km/h
3047 10-03-2016 06:00:00 -2.41667 C 3.86 g/m*3 -2.42 C 0 km/h
3048 10-03-2016 07:00:00 -2.53333 C 3.85 g/m*3 -2.53 C 0 km/h
3049 10-03-2016 08:00:00 -1.66667 C 4.12 g/m*3 -1.67 C 0 km/h
3050 10-03-2016 09:00:00 -0.28333 C 4.53 g/m*3 -0.28 C 0.8 km/h
Sensor: Nr:Datum:Temp:Abs-Feuchte:Windchill:Wind:
Aussen-T/F 3051 10-03-2016 10:00:00 1.46667 C 5 g/m*3 1.47 C 0.66667 km/h
3052 10-03-2016 11:00:00 3.83333 C 5.28 g/m*3 3.83 C 4.025 km/h
3053 10-03-2016 12:00:00 6.05833 C 5.43 g/m*3 4.93 C 6.025 km/h
3054 10-03-2016 13:00:00 7.81667 C 5.54 g/m*3 6.62 C 7.24167 km/h
3055 10-03-2016 14:00:00 8.55833 C 5.58 g/m*3 7.52 C 7.11667 km/h
3056 10-03-2016 15:00:00 9.10833 C 5.78 g/m*3 8.59 C 5.50833 km/h
3057 10-03-2016 16:00:00 9.46667 C 5.65 g/m*3 9.47 C 4.15833 km/h
3058 10-03-2016 17:00:00 9.9 C 5.61 g/m*3 9.9 C 3.60833 km/h
3059 10-03-2016 18:00:00 6.68333 C 5.62 g/m*3 5.88 C 5.33333 km/h
3060 10-03-2016 19:00:00 4.4 C 5.44 g/m*3 2.9 C 6.40833 km/h
3061 10-03-2016 20:00:00 3.73333 C 5.33 g/m*3 3.73 C 4.53333 km/h
3062 10-03-2016 21:00:00 3.21667 C 5.22 g/m*3 3.22 C 4.13333 km/h
3063 10-03-2016 22:00:00 3.33333 C 5.27 g/m*3 3.33 C 3.075 km/h
3064 10-03-2016 23:00:00 3.23333 C 5.22 g/m*3 3.23 C 3.46667 km/h
3065 11-03-2016 00:00:00 2.75833 C 5.12 g/m*3 2.76 C 4 km/h
3066 11-03-2016 01:00:00 2.01667 C 5 g/m*3 2.02 C 4.66667 km/h
3067 11-03-2016 02:00:00 1.26667 C 4.82 g/m*3 1.27 C 2 km/h
3068 11-03-2016 03:00:00 0.275 C 4.59 g/m*3 0.28 C 0 km/h
3069 11-03-2016 04:00:00 0.325 C 4.66 g/m*3 0.33 C 0 km/h
3070 11-03-2016 05:00:00 0.31667 C 4.66 g/m*3 0.32 C 0 km/h
3071 11-03-2016 06:00:00 0.175 C 4.65 g/m*3 0.18 C 0.26667 km/h
3072 11-03-2016 07:00:00 0.29167 C 4.7 g/m*3 0.29 C 0 km/h
3073 11-03-2016 08:00:00 1.29167 C 5.06 g/m*3 1.29 C 0 km/h
3074 11-03-2016 09:00:00 2.19167 C 5.33 g/m*3 2.19 C 0.26667 km/h
3075 11-03-2016 10:00:00 3.70833 C 5.65 g/m*3 3.71 C 0.93333 km/h
Sensor: Nr:Datum:Temp:Abs-Feuchte:Windchill:Wind:
Aussen-T/F 3076 11-03-2016 11:00:00 5.25833 C 5.9 g/m*3 5.26 C 2.93333 km/h
3077 11-03-2016 12:00:00 6.78333 C 6.23 g/m*3 6.78 C 3.875 km/h
3078 11-03-2016 13:00:00 7.98333 C 6.47 g/m*3 7.98 C 3.6 km/h
3079 11-03-2016 14:00:00 9.08333 C 6.38 g/m*3 8.56 C 5.5 km/h
3080 11-03-2016 15:00:00 9.53333 C 5.69 g/m*3 7.88 C 11.14167 km/h
3081 11-03-2016 16:00:00 9.625 C 5.49 g/m*3 8.19 C 9.94167 km/h
3082 11-03-2016 17:00:00 9.15833 C 5.51 g/m*3 9.16 C 4.01667 km/h
3083 11-03-2016 18:00:00 7.69167 C 5.59 g/m*3 7.69 C 1.74167 km/h
3084 11-03-2016 19:00:00 5.90833 C 5.51 g/m*3 5.91 C 4.93333 km/h
3085 11-03-2016 20:00:00 4.90833 C 5.45 g/m*3 3.9 C 5.2 km/h
3086 11-03-2016 21:00:00 4.46667 C 5.41 g/m*3 4.47 C 2.53333 km/h
3087 11-03-2016 22:00:00 3.76667 C 5.39 g/m*3 3.77 C 0.13333 km/h
3088 11-03-2016 23:00:00 3.425 C 5.32 g/m*3 3.43 C 0 km/h
3089 12-03-2016 00:00:00 3.41667 C 5.33 g/m*3 3.42 C 0 km/h
3090 12-03-2016 01:00:00 3.55833 C 5.38 g/m*3 3.56 C 0.53333 km/h
3091 12-03-2016 02:00:00 3.54167 C 5.09 g/m*3 3.54 C 2.26667 km/h
3092 12-03-2016 03:00:00 3.28333 C 5.06 g/m*3 3.28 C 0.66667 km/h
3093 12-03-2016 04:00:00 3.28333 C 5.16 g/m*3 3.28 C 0 km/h
3094 12-03-2016 05:00:00 3.125 C 4.99 g/m*3 3.13 C 1.6 km/h
3095 12-03-2016 06:00:00 2.76667 C 4.98 g/m*3 2.77 C 0.53333 km/h
3096 12-03-2016 07:00:00 3.05 C 5.15 g/m*3 3.05 C 0.26667 km/h
3097 12-03-2016 08:00:00 4.03333 C 5.11 g/m*3 2.84 C 5.36667 km/h
3098 12-03-2016 09:00:00 4.8 C 4.91 g/m*3 2.2 C 11.03333 km/h
3099 12-03-2016 10:00:00 4.925 C 4.9 g/m*3 2.07 C 12.5 km/h
3100 12-03-2016 11:00:00 5.35 C 5.02 g/m*3 2.98 C 10.48333 km/h
Sensor: Nr:Datum:Temp:Abs-Feuchte:Windchill:Wind:
Aussen-T/F 3101 12-03-2016 12:00:00 5.81667 C 5.04 g/m*3 2.96 C 13.69167 km/h
3102 12-03-2016 13:00:00 5.51667 C 5.06 g/m*3 2.68 C 13.15833 km/h
3103 12-03-2016 14:00:00 5.425 C 4.99 g/m*3 2.78 C 11.95833 km/h
3104 12-03-2016 15:00:00 5.275 C 5.03 g/m*3 2.94 C 10.21667 km/h
3105 12-03-2016 16:00:00 5.2 C 5.06 g/m*3 4.18 C 5.35 km/h
3106 12-03-2016 17:00:00 5.10833 C 5.1 g/m*3 3.24 C 8.06667 km/h
3107 12-03-2016 18:00:00 4.84167 C 5.09 g/m*3 4.84 C 3.475 km/h
3108 12-03-2016 19:00:00 4.69167 C 5.13 g/m*3 4.69 C 1.34167 km/h
3109 12-03-2016 20:00:00 4.61667 C 5.16 g/m*3 4.62 C 3.74167 km/h
3110 12-03-2016 21:00:00 4.65833 C 5.04 g/m*3 4.66 C 4.275 km/h
3111 12-03-2016 22:00:00 4.35833 C 5.02 g/m*3 4.36 C 2.94167 km/h
3112 12-03-2016 23:00:00 4.1 C 5.04 g/m*3 4.1 C 2.95 km/h
3113 13-03-2016 00:00:00 3.83333 C 4.94 g/m*3 3.83 C 3.08333 km/h
3114 13-03-2016 01:00:00 3.76667 C 4.88 g/m*3 3.77 C 4.40833 km/h
3115 13-03-2016 02:00:00 3.5 C 4.82 g/m*3 1.93 C 6.18333 km/h
3116 13-03-2016 03:00:00 3.10833 C 4.74 g/m*3 3.11 C 4.69167 km/h
3117 13-03-2016 04:00:00 2.725 C 4.81 g/m*3 2.73 C 2 km/h
3118 13-03-2016 05:00:00 2.39167 C 4.81 g/m*3 2.39 C 0.8 km/h
3119 13-03-2016 06:00:00 2.24167 C 4.84 g/m*3 2.24 C 3.46667 km/h
3120 13-03-2016 07:00:00 3.01667 C 4.95 g/m*3 1.24 C 6.58333 km/h
3121 13-03-2016 08:00:00 3.775 C 5.04 g/m*3 1.46 C 8.88333 km/h
3122 13-03-2016 09:00:00 4.48333 C 5.19 g/m*3 1.69 C 11.7 km/h
3123 13-03-2016 10:00:00 5.225 C 5.31 g/m*3 2.97 C 9.8 km/h
3124 13-03-2016 11:00:00 6.475 C 5.55 g/m*3 3.98 C 12.36667 km/h
3125 13-03-2016 12:00:00 7.74167 C 5.79 g/m*3 5.48 C 12.625 km/h
Sensor: Nr:Datum:Temp:Abs-Feuchte:Windchill:Wind:
Aussen-T/F 3126 13-03-2016 13:00:00 8.59167 C 5.94 g/m*3 6.59 C 12.09167 km/h
3127 13-03-2016 14:00:00 9.03333 C 5.89 g/m*3 6.43 C 17.43333 km/h
3128 13-03-2016 15:00:00 8.95 C 5.86 g/m*3 6.42 C 16.63333 km/h
3129 13-03-2016 16:00:00 8.93333 C 5.84 g/m*3 6.66 C 14.5 km/h
3130 13-03-2016 17:00:00 8.49167 C 5.82 g/m*3 7 C 9.13333 km/h
3131 13-03-2016 18:00:00 7.23333 C 5.81 g/m*3 7.23 C 2.14167 km/h
3132 13-03-2016 19:00:00 5.175 C 5.49 g/m*3 5.18 C 3.6 km/h
3133 13-03-2016 20:00:00 4.05 C 5.34 g/m*3 4.05 C 2.13333 km/h
3134 13-03-2016 21:00:00 3.84167 C 5.26 g/m*3 2.48 C 5.75833 km/h
3135 13-03-2016 22:00:00 3.175 C 4.99 g/m*3 1.92 C 5.225 km/h
3136 13-03-2016 23:00:00 1.90833 C 4.68 g/m*3 1.91 C 2.66667 km/h
3137 14-03-2016 00:00:00 0.84167 C 4.47 g/m*3 0.84 C 1.73333 km/h
3138 14-03-2016 01:00:00 0.53333 C 4.43 g/m*3 0.53 C 1.06667 km/h
3139 14-03-2016 02:00:00 0.78333 C 4.48 g/m*3 0.78 C 4.01667 km/h
3140 14-03-2016 03:00:00 1.725 C 4.56 g/m*3 -0.44 C 7.11667 km/h
3141 14-03-2016 04:00:00 1.95833 C 4.59 g/m*3 0.21 C 6.03333 km/h
3142 14-03-2016 05:00:00 1.91667 C 4.55 g/m*3 1.92 C 4.40833 km/h
3143 14-03-2016 06:00:00 1.33333 C 4.44 g/m*3 1.33 C 1.06667 km/h
3144 14-03-2016 07:00:00 1.10833 C 4.41 g/m*3 1.11 C 2.675 km/h
3145 14-03-2016 08:00:00 2.01667 C 4.37 g/m*3 2.02 C 4.40833 km/h
3146 14-03-2016 09:00:00 2.525 C 4.37 g/m*3 0.25 C 7.925 km/h
3147